GFSSGP_850_thetae_000.txt.gz
Theta_e
326 327 336 338 339 334 335 334 330 330 328 324 323 323 323 321 321 322 322 319 319 326 328 321 319 321 320 319 317 314 316 316 318 319 319 319 315 315 315 312 307 309 310 316 325 329 327 326 314
327 331 335 335 337 336 334 331 330 329 326 323 322 321 321 322 321 321 323 325 326 326 322 327 320 314 317 315 316 316 318 319 320 320 321 320 318 320 319 315 310 311 313 314 321 326 327 329 321
327 333 336 337 335 335 333 331 329 326 324 323 323 321 321 322 322 322 324 325 325 325 325 324 315 316 316 316 317 317 318 320 320 320 321 320 324 325 324 322 313 315 324 323 325 327 328 327 328
333 334 333 335 335 332 330 330 328 326 323 322 322 323 322 323 323 323 323 323 322 322 322 322 316 315 316 316 317 318 318 319 320 321 321 323 323 325 325 324 318 310 322 322 324 326 329 325 328
332 332 335 335 333 332 330 329 325 326 325 324 321 323 323 323 322 322 321 320 321 321 321 322 319 315 316 316 316 316 317 318 320 321 323 323 323 324 325 326 323 315 317 322 317 322 329 329 325
332 331 334 333 333 332 330 327 325 325 325 322 321 322 323 324 322 322 320 320 319 318 316 320 320 315 315 316 316 314 314 317 320 320 319 319 319 321 324 325 325 323 323 320 313 317 327 329 327
331 332 333 332 332 331 329 324 324 324 324 323 322 323 323 323 322 319 319 317 316 315 317 320 318 318 312 311 314 319 320 319 319 320 320 321 321 321 323 324 324 323 321 322 314 310 323 328 328
330 331 331 332 332 331 329 325 323 323 324 321 321 322 323 324 319 318 319 319 319 318 318 319 319 318 320 322 320 320 320 320 319 319 319 322 321 321 321 324 324 322 322 323 322 312 321 326 328
329 330 330 331 331 331 329 327 324 321 322 321 322 322 322 320 318 319 320 319 320 319 318 319 319 322 322 322 322 320 321 319 318 318 320 320 322 326 326 324 324 322 322 321 321 312 320 326 328
328 328 328 329 330 331 329 328 326 322 323 322 321 321 319 319 319 320 320 320 319 319 318 318 322 321 320 323 324 324 322 320 319 319 319 320 322 323 323 324 323 323 323 321 321 315 321 325 330
326 327 327 327 328 328 327 327 325 324 325 324 323 322 320 320 320 320 320 319 319 320 318 317 322 321 320 323 324 324 323 323 322 321 319 319 319 321 320 322 322 323 323 325 324 320 324 329 328
327 324 325 326 327 325 326 325 324 322 324 323 322 322 321 320 321 320 320 320 320 319 318 323 323 322 320 322 324 324 324 324 325 323 318 320 321 322 320 320 322 323 324 325 324 324 328 328 327
326 325 325 326 326 324 324 324 323 323 323 322 321 321 321 321 321 320 320 321 320 318 324 325 322 321 321 323 324 324 323 323 321 319 318 320 320 319 319 321 321 323 324 324 324 326 328 326 327
325 326 326 325 324 323 323 324 321 323 322 322 321 321 321 321 321 320 321 321 321 319 326 324 324 325 324 324 323 323 324 322 323 316 318 321 319 320 318 321 321 321 324 324 326 326 328 329 329
326 326 326 325 323 324 322 324 324 324 323 322 322 322 321 321 320 320 321 322 320 321 326 324 325 326 325 325 325 324 324 322 323 324 321 321 320 321 320 320 320 323 324 323 325 325 328 329 329
325 326 327 327 323 322 322 325 325 324 322 323 322 322 321 321 320 320 322 322 319 323 325 323 325 326 326 325 325 325 325 323 321 321 321 322 321 321 322 321 319 320 319 323 326 327 328 328 329
327 327 328 328 325 325 324 326 325 324 323 323 323 322 321 321 321 321 323 322 319 322 324 323 325 326 321 322 324 325 323 323 322 321 321 322 321 321 321 322 322 321 323 324 326 327 327 328 329
328 327 326 327 327 325 326 326 325 323 323 323 323 323 321 321 321 321 323 321 319 321 323 321 325 325 320 327 326 325 325 325 323 320 319 321 322 322 321 323 323 321 324 324 325 327 328 328 329
327 326 327 327 327 325 327 327 326 324 323 324 324 323 322 321 321 322 323 321 319 321 324 325 324 324 322 327 328 328 327 323 322 322 323 324 322 321 321 324 321 322 326 326 326 328 328 329 329
326 327 328 327 326 325 326 325 325 325 324 324 325 324 323 322 321 323 323 322 320 320 323 325 325 322 323 326 325 327 327 325 325 324 325 323 323 322 323 323 323 324 324 325 326 328 328 329 329
327 327 328 327 327 325 325 325 326 325 324 324 324 324 324 323 322 323 323 322 320 321 323 323 324 322 323 323 328 326 327 327 326 326 325 325 323 322 323 323 325 325 325 326 326 328 330 329 327
327 326 326 326 326 326 325 327 325 325 325 325 325 324 324 323 322 323 323 322 320 321 322 323 324 321 324 323 326 328 328 328 327 327 326 326 326 325 324 324 324 325 326 325 326 327 329 330 328
326 325 326 326 326 326 325 327 325 324 324 324 324 326 325 323 322 323 323 322 319 321 322 324 326 320 324 323 322 326 329 329 327 326 325 325 327 326 325 325 324 324 325 325 325 326 330 330 331
324 325 325 325 325 327 325 325 324 323 323 324 324 327 326 323 322 323 323 321 319 321 321 323 326 322 325 327 324 325 325 327 327 328 325 324 326 327 327 326 325 324 325 325 327 328 326 328 330
325 326 327 328 328 327 325 323 324 324 324 325 325 325 326 323 322 322 323 321 320 321 321 323 324 323 322 325 326 325 327 326 327 327 327 324 324 326 327 326 326 325 326 326 326 326 327 329 327
325 326 327 327 328 327 325 324 323 324 324 326 327 328 326 323 322 322 323 322 320 320 322 323 324 323 322 323 323 324 324 326 327 326 324 324 326 326 327 327 325 324 324 326 326 327 327 327 322
325 326 326 326 326 326 325 325 325 325 326 328 329 327 325 323 322 322 323 322 319 320 323 324 324 321 321 321 324 324 323 321 326 328 327 325 325 326 328 327 327 326 330 324 326 327 327 328 325
325 325 325 326 328 328 325 325 324 325 328 333 331 328 325 323 322 323 323 322 319 320 322 325 325 321 322 321 322 321 322 323 324 325 323 323 326 323 326 327 326 326 327 328 329 328 328 328 328
325 326 325 326 326 327 328 326 326 325 330 332 333 328 325 324 323 323 323 322 319 321 321 324 325 322 319 320 321 322 321 323 322 323 324 321 324 326 324 326 325 326 327 327 328 327 327 327 329
325 325 326 327 327 326 326 326 326 327 332 332 333 328 325 324 323 323 323 321 319 321 321 323 325 322 317 318 320 321 320 322 322 324 323 324 326 327 327 325 326 327 327 327 328 328 329 329 329

GFSSGP_850_thetae_003.txt.gz
Theta_e
327 328 335 339 341 336 336 337 334 332 332 328 327 327 326 325 325 325 326 326 326 327 330 328 321 318 316 316 317 315 316 317 318 320 323 323 322 318 316 318 315 312 309 326 322 325 328 322 320
329 336 338 339 338 338 337 334 332 331 329 327 327 326 325 326 323 323 324 327 327 327 331 332 332 318 315 314 316 316 316 317 318 320 323 326 326 322 320 322 321 316 312 325 326 328 325 327 324
336 337 336 339 339 338 335 333 331 330 327 327 327 325 325 326 324 323 327 328 328 328 328 331 326 318 315 316 315 315 316 317 318 319 321 323 323 324 325 325 324 323 316 325 326 325 325 327 328
334 335 334 334 335 335 333 331 330 329 328 326 326 326 325 325 325 324 326 326 325 324 324 325 324 321 316 316 316 317 318 319 320 319 319 319 320 323 325 325 326 325 322 324 324 323 326 327 327
333 333 336 336 336 334 332 330 329 328 328 326 325 326 326 326 325 325 325 324 324 323 323 323 324 321 317 315 317 320 317 317 317 316 317 318 321 324 323 322 324 326 326 324 320 320 322 328 328
332 332 335 335 333 334 332 329 327 327 327 326 325 325 325 327 326 325 324 324 324 323 324 326 326 322 319 315 316 316 315 314 314 318 320 321 320 320 320 320 323 325 327 324 323 311 319 325 329
332 333 335 334 333 332 332 329 327 327 327 326 325 325 325 326 324 325 324 324 323 323 323 323 323 324 320 320 319 317 317 319 320 320 320 321 321 321 321 321 323 325 326 325 317 310 313 322 329
330 332 333 333 333 333 331 330 329 326 327 325 324 324 324 326 325 324 323 322 322 322 321 322 320 319 321 323 325 324 322 320 321 321 319 318 318 319 321 321 322 325 325 322 321 317 311 320 327
330 332 333 332 331 332 330 331 329 327 326 325 324 324 324 325 324 323 323 322 322 322 321 321 320 321 323 325 325 324 326 325 321 321 320 319 322 325 325 326 325 324 324 321 323 321 314 317 324
330 332 331 330 330 330 330 330 329 329 327 326 324 324 323 323 323 323 323 322 322 322 322 320 320 324 325 325 325 326 326 325 322 319 319 319 323 324 325 325 325 324 324 320 322 321 315 312 329
330 332 330 328 327 327 329 328 328 328 328 326 325 324 324 323 323 323 322 322 322 323 322 319 322 326 325 325 326 325 325 323 324 324 324 322 318 322 324 324 325 323 324 324 323 324 319 323 328
331 330 328 326 325 327 329 328 328 327 326 325 323 322 323 323 323 323 323 323 323 322 321 325 327 328 328 326 326 325 326 324 324 324 324 321 323 323 323 322 324 324 325 325 326 326 321 324 328
330 329 327 325 326 328 328 327 327 326 325 324 323 323 323 323 324 324 323 323 323 323 323 327 328 329 328 327 326 327 325 324 326 324 324 322 323 322 320 323 322 323 324 325 325 328 324 327 331
328 329 327 327 327 328 327 328 326 326 325 324 324 324 323 323 324 324 323 324 323 322 326 327 328 329 328 327 327 327 325 325 327 325 323 322 323 320 320 322 323 323 322 325 325 327 327 327 328
328 328 328 328 327 328 327 327 328 326 325 325 324 324 323 324 324 324 324 325 324 322 327 327 327 326 328 327 328 326 326 326 326 325 323 325 324 322 321 321 323 321 323 325 325 326 329 327 330
328 329 330 329 329 328 326 328 329 327 326 326 325 325 325 324 324 323 324 325 324 324 326 327 326 326 328 328 328 328 326 324 323 322 319 318 322 322 323 320 322 324 324 325 326 327 328 329 330
329 330 330 329 329 329 327 328 329 328 327 326 325 325 325 324 324 324 324 325 323 324 326 326 327 327 328 329 330 329 326 326 325 323 321 320 321 323 323 323 320 320 322 325 327 327 327 330 329
330 331 330 329 330 330 329 329 329 328 327 326 325 326 326 325 325 324 325 325 323 324 327 327 327 328 326 328 329 330 327 325 324 323 322 322 322 323 324 323 323 321 322 323 326 326 327 330 329
329 329 329 329 330 329 330 329 329 329 328 327 325 325 326 326 325 325 326 325 323 323 327 328 327 328 326 328 329 329 329 329 327 326 325 325 324 324 326 323 324 322 324 324 327 327 327 329 330
329 329 329 329 329 330 330 330 329 327 326 326 325 325 327 327 325 325 326 325 323 324 326 327 327 327 326 328 329 330 327 328 328 328 326 324 324 324 324 324 325 326 323 325 327 328 329 331 331
329 329 329 329 330 330 329 329 328 328 327 326 325 326 327 327 326 325 326 326 324 323 326 327 327 327 325 328 329 330 331 328 327 327 328 326 323 324 324 325 326 324 326 325 325 327 330 330 328
329 328 328 328 330 330 328 329 328 328 327 326 326 325 326 327 327 326 326 326 324 323 326 326 326 327 329 324 328 330 330 329 329 326 328 328 325 325 325 325 326 326 325 326 328 327 330 328 329
328 328 327 328 329 329 328 329 328 327 326 325 325 325 326 328 327 326 326 326 324 323 325 326 327 327 330 329 328 329 330 330 328 327 326 328 326 326 325 325 326 326 327 328 327 327 328 329 330
327 327 326 327 328 329 327 328 328 326 326 325 326 325 328 328 326 326 326 325 323 322 324 327 328 326 329 329 328 330 330 331 330 328 325 327 327 326 325 325 325 325 325 327 326 328 328 329 328
326 327 328 329 331 330 328 327 327 326 325 325 326 328 329 327 326 326 326 324 324 323 322 326 327 325 325 328 328 329 330 328 328 328 325 327 326 327 326 325 325 326 326 328 326 326 328 329 328
326 326 328 329 330 329 328 328 328 325 325 325 326 328 330 327 326 326 326 324 324 323 322 324 326 325 325 326 327 328 329 330 326 325 326 326 327 327 327 326 326 327 328 327 327 327 329 326 324
326 327 327 328 328 328 329 328 327 325 326 327 328 331 331 328 326 326 326 325 323 322 323 324 326 325 324 325 327 327 329 331 328 326 325 324 326 328 327 326 326 327 328 327 328 328 329 326 326
326 327 328 328 329 331 329 328 327 327 328 332 332 331 330 327 326 326 325 326 322 322 324 325 326 324 324 324 325 326 328 331 331 329 330 326 323 328 327 327 328 325 327 327 326 326 323 322 325
325 325 327 328 328 329 330 329 328 327 330 333 333 331 328 326 326 325 325 326 321 321 323 325 326 322 323 323 324 325 327 329 329 330 330 327 324 326 326 327 328 327 327 327 327 327 327 327 325
326 325 327 328 329 328 329 329 327 327 330 331 331 330 327 326 325 326 325 325 320 322 323 324 326 322 320 322 323 323 327 328 329 330 332 329 327 324 326 327 327 328 329 327 328 328 327 327 327

GFSSGP_850_thetae_009.txt.gz
Theta_e
330 329 328 329 332 334 336 337 334 329 328 328 328 326 324 323 324 329 328 327 325 330 330 329 329 325 323 317 314 313 314 314 314 315 316 322 319 317 320 321 320 319 321 320 315 311 309 310 311
329 333 333 335 337 341 339 336 333 327 327 328 328 327 324 323 325 327 327 326 326 327 327 327 327 325 324 322 319 313 314 315 316 315 316 316 317 318 321 322 323 322 324 323 322 319 315 310 311
327 332 331 334 337 340 339 334 333 328 328 328 327 327 327 324 326 327 327 325 325 325 325 327 328 328 325 323 322 316 315 318 324 322 317 316 318 317 322 323 322 322 323 326 328 323 327 319 310
332 337 337 333 334 333 334 332 330 328 327 327 327 326 326 326 324 325 325 319 325 327 328 329 329 326 323 323 322 318 320 321 321 320 318 318 319 320 323 321 320 321 322 323 328 326 325 323 319
335 337 331 334 334 335 332 334 328 326 326 326 326 326 325 325 325 325 320 322 324 324 325 324 324 323 321 323 319 316 316 317 320 322 321 322 323 316 315 318 319 320 324 326 325 328 324 318 318
334 332 330 331 332 331 330 332 331 328 328 326 325 326 326 324 323 324 322 322 323 324 324 323 323 320 321 319 318 318 319 319 318 317 317 316 315 319 320 320 320 320 321 323 325 327 326 317 314
331 329 331 331 331 331 331 332 330 329 327 325 325 325 327 326 325 324 324 324 324 324 322 320 320 322 321 321 321 323 324 325 324 323 323 322 320 320 320 320 320 320 322 321 322 326 327 317 314
332 328 329 330 330 329 331 331 332 331 328 327 327 325 327 327 325 323 323 323 323 322 323 322 323 322 321 321 322 323 326 325 324 325 323 320 320 319 318 317 318 318 320 318 324 325 327 321 308
332 328 330 330 329 330 330 326 328 329 328 328 327 325 325 327 325 324 324 324 323 323 323 323 322 322 322 321 319 325 325 325 326 325 325 323 319 317 317 321 324 325 323 319 324 325 326 324 309
331 329 330 330 329 329 329 327 326 327 328 328 326 324 325 326 325 322 324 324 323 323 323 323 323 322 321 318 322 327 326 326 325 325 325 318 317 317 317 319 323 324 324 324 324 325 326 314 310
330 330 329 330 330 330 330 326 326 325 327 328 326 325 324 324 323 322 324 324 324 324 323 323 323 321 320 316 323 325 326 326 326 325 322 323 321 318 320 322 323 322 323 324 324 324 322 320 315
330 329 330 329 330 330 328 328 326 326 328 327 326 325 325 324 323 323 323 324 324 323 323 323 322 323 316 321 319 322 326 327 327 326 323 322 323 317 323 324 324 323 323 323 324 324 320 322 319
330 330 330 330 330 330 329 327 327 326 328 327 325 324 324 325 324 324 323 324 323 324 324 323 322 322 320 316 324 326 327 326 324 324 324 325 325 321 321 322 321 322 323 324 324 324 321 322 321
330 329 330 330 331 329 328 328 327 327 328 327 325 324 324 324 324 324 324 324 324 324 324 323 323 319 324 318 327 326 327 328 326 325 324 325 326 322 321 321 321 321 323 324 323 324 324 324 321
325 325 326 328 329 327 328 328 326 328 328 327 325 326 325 324 324 324 324 324 324 324 324 323 323 326 326 324 325 327 329 329 327 326 325 324 325 324 320 322 322 321 322 324 323 324 325 324 322
322 324 326 326 326 327 326 327 326 328 328 327 327 327 326 325 325 324 324 324 325 325 324 326 324 326 326 325 326 328 329 328 327 325 326 325 323 322 319 321 323 321 322 322 323 324 326 325 326
321 323 324 327 327 327 326 327 327 328 328 327 328 328 327 326 325 324 325 325 325 326 323 327 325 326 326 322 328 329 330 327 326 326 326 324 322 321 319 321 323 321 322 321 322 324 326 325 326
321 323 325 327 327 326 327 329 327 328 327 327 328 329 328 327 326 325 325 325 326 325 322 324 322 325 323 324 328 329 326 326 328 326 327 325 324 323 319 321 323 321 323 322 323 324 324 326 323
322 324 325 327 327 327 329 329 328 328 328 327 328 329 329 329 326 325 325 325 325 326 323 322 327 327 325 325 329 329 328 327 327 327 328 327 325 323 321 321 323 322 322 323 323 325 326 325 327
323 323 323 324 326 328 329 329 328 329 328 328 328 328 328 328 325 325 325 325 326 326 323 325 328 328 326 327 329 329 328 329 328 328 328 328 325 325 322 322 323 322 322 323 324 326 326 326 327
324 324 323 324 326 326 327 326 327 329 328 329 329 328 329 327 326 326 326 326 326 325 324 327 328 328 324 328 330 329 329 328 328 328 326 327 324 324 323 324 324 322 322 321 325 325 326 326 328
323 324 324 325 327 326 328 326 327 327 325 326 327 327 328 327 326 326 326 327 327 325 325 327 328 326 330 328 325 325 327 328 328 328 327 325 324 324 324 323 323 323 323 323 325 325 325 327 328
324 324 324 326 326 326 326 325 325 327 327 325 324 328 328 327 327 326 326 327 327 325 324 328 327 326 328 330 330 328 329 327 328 327 326 327 324 325 323 324 324 326 324 324 325 326 326 324 327
324 324 325 325 326 326 327 326 326 327 327 324 324 325 329 328 327 327 327 328 327 326 324 326 328 327 329 331 330 328 328 326 327 325 326 326 327 325 325 323 323 326 326 323 324 324 324 323 327
324 323 324 326 325 325 326 326 325 325 326 323 326 329 329 329 328 327 328 328 326 325 324 327 329 327 327 330 328 328 329 325 325 325 326 327 327 325 324 324 321 325 326 323 324 324 325 324 325
322 323 324 327 329 326 326 327 326 327 326 326 328 330 330 329 328 328 328 328 325 325 324 325 329 327 326 327 328 328 328 325 326 325 325 328 327 325 323 324 321 325 326 322 323 325 326 325 325
322 324 323 325 326 325 325 326 330 325 323 325 329 329 329 329 328 328 328 327 325 325 323 324 327 327 326 326 328 328 329 328 328 326 324 328 326 324 324 323 321 321 321 324 325 326 325 324 329
322 325 326 323 325 327 327 327 328 325 324 329 330 329 329 328 329 328 328 326 325 325 323 324 326 326 326 326 328 328 330 328 329 326 325 327 326 326 325 325 325 325 325 325 325 326 327 329 329
321 326 324 321 321 324 326 327 325 326 330 330 330 330 329 328 328 328 328 326 325 324 324 324 327 326 325 325 327 329 329 330 328 326 325 326 328 326 327 327 326 325 325 325 326 326 325 325 326
322 324 324 325 327 324 325 327 331 331 331 329 331 331 329 328 328 328 327 326 325 323 324 324 326 325 324 325 326 329 329 329 327 326 326 326 327 326 326 326 325 325 326 326 326 325 324 326 326

GFSSGP_850_thetae_012.txt.gz
Theta_e
321 325 326 330 331 330 335 335 331 327 327 327 327 325 322 323 323 323 333 331 326 329 331 329 327 327 324 322 320 318 314 313 313 313 313 313 320 316 316 319 321 320 320 321 321 315 311 307 310
323 326 330 333 334 339 338 333 334 326 327 327 325 323 323 324 327 329 329 326 326 325 326 325 325 326 325 324 323 321 317 313 312 314 314 325 318 315 316 317 320 323 322 323 323 322 316 313 309
321 326 327 333 334 337 338 334 333 332 327 327 326 325 324 325 325 326 327 327 325 324 324 325 328 328 328 326 324 321 320 315 315 322 323 319 317 320 319 319 318 319 321 329 334 329 323 319 316
324 332 334 333 333 332 336 334 333 327 327 327 326 325 325 325 325 326 326 325 322 324 326 327 329 329 328 323 322 322 319 316 319 322 324 322 319 318 322 323 322 317 317 321 325 329 328 325 324
330 336 333 332 333 332 330 332 328 325 326 325 325 326 324 326 325 326 325 321 323 326 325 326 326 324 323 322 320 317 315 315 315 316 322 322 323 321 323 323 317 323 327 327 326 326 327 327 324
334 330 328 329 329 330 328 330 331 329 327 325 326 325 325 325 324 324 320 321 325 323 323 324 323 323 319 319 319 319 317 317 321 323 323 322 322 319 318 317 319 320 321 324 325 326 324 327 324
331 328 330 330 331 329 329 330 330 330 329 325 326 324 326 325 324 323 320 321 322 321 322 323 322 320 322 321 321 321 321 321 324 324 324 323 321 322 321 320 319 321 323 326 325 323 324 325 326
331 326 329 328 329 329 328 329 328 329 329 328 325 326 324 324 324 324 323 322 321 322 322 322 322 322 322 322 321 321 319 325 325 325 324 324 323 321 318 319 319 320 321 323 326 320 321 326 327
331 328 329 328 328 329 329 326 329 327 327 326 326 326 328 327 325 324 324 324 323 323 322 323 322 322 322 322 321 319 322 325 325 325 324 325 324 318 317 317 320 323 323 323 319 320 324 325 327
329 328 332 330 328 328 329 327 327 325 324 325 326 325 326 326 325 324 323 323 323 323 323 323 323 322 322 321 319 320 324 326 326 325 326 325 322 321 317 317 317 320 323 325 324 321 324 325 326
330 331 330 330 329 329 329 329 329 325 323 326 325 325 325 326 325 324 323 322 323 323 323 323 322 321 321 319 318 320 324 326 325 326 326 326 323 321 318 320 320 320 321 323 324 324 323 325 326
329 330 330 330 330 329 327 329 328 327 327 327 326 325 325 326 325 325 322 323 323 323 323 323 322 323 321 315 315 323 324 324 325 326 326 323 323 323 318 322 324 323 322 323 323 324 323 325 321
329 329 330 330 329 329 329 328 327 328 330 329 326 325 325 325 325 323 323 323 323 324 323 323 323 322 319 316 317 323 326 327 327 327 325 324 323 325 320 319 322 321 321 322 323 323 323 324 321
328 329 330 330 329 329 328 328 327 328 330 328 325 325 324 324 324 323 323 323 323 323 323 323 323 322 317 319 316 323 327 328 328 327 326 325 324 325 325 320 321 321 320 321 323 323 324 322 320
320 324 326 327 326 325 326 326 326 328 328 328 325 325 324 324 324 324 324 323 323 323 323 323 323 320 314 318 319 327 329 329 329 326 325 326 325 325 325 323 321 322 320 321 323 323 324 324 323
319 318 320 321 323 324 324 326 325 327 327 327 326 325 324 324 324 324 324 323 324 324 324 324 322 318 316 316 323 328 328 329 329 326 326 325 325 324 323 323 320 323 320 322 323 323 324 324 324
317 320 320 321 322 324 324 326 325 327 326 326 327 326 326 325 323 324 324 324 324 324 324 324 321 314 318 318 325 327 328 327 327 326 326 327 325 322 322 320 320 323 321 322 322 323 324 324 323
319 319 321 322 323 323 324 324 324 326 326 325 326 327 327 327 326 324 324 324 324 325 325 323 318 316 316 320 325 328 328 327 326 327 327 327 325 324 322 320 321 323 321 322 321 322 324 325 324
320 320 320 322 323 324 324 325 326 326 326 324 326 327 327 327 326 324 324 324 325 325 325 321 315 318 319 320 325 328 329 328 328 328 327 327 327 325 322 320 321 323 321 322 321 322 323 326 324
317 320 321 321 322 322 322 324 326 325 325 326 326 326 326 327 326 325 325 325 325 325 324 320 318 320 322 322 327 328 329 328 328 328 327 326 326 325 324 321 322 323 321 323 323 324 323 324 324
319 319 321 322 323 322 322 324 325 326 326 327 327 327 326 327 326 325 325 325 325 325 324 319 322 321 322 325 327 326 328 328 327 328 327 326 324 324 323 322 323 322 321 323 323 324 325 324 326
320 321 321 324 324 323 323 324 322 324 324 324 325 326 326 327 326 325 325 326 326 325 323 320 324 325 322 328 328 326 328 327 327 328 327 326 324 324 323 323 323 322 322 322 324 325 324 325 326
321 321 322 323 324 321 322 323 323 323 325 324 322 325 327 327 326 325 325 326 326 325 323 325 326 324 324 328 330 326 327 326 327 327 326 327 325 324 323 323 323 322 322 323 324 323 324 325 326
320 321 321 321 321 323 323 324 325 323 325 325 322 326 326 325 325 325 326 326 326 325 324 326 324 326 326 330 329 326 328 325 325 325 326 326 326 325 322 324 324 324 323 325 325 325 325 326 326
319 319 321 320 324 325 323 325 325 323 323 324 323 325 326 326 325 326 326 327 326 325 324 325 324 328 327 330 327 326 327 325 324 325 326 327 326 325 323 323 323 325 323 324 324 323 326 324 326
315 318 321 323 324 324 323 325 325 323 323 324 326 326 326 326 326 326 327 327 326 325 324 324 326 327 326 328 326 328 328 327 326 324 325 327 326 324 324 322 322 325 324 324 324 325 325 325 327
316 316 319 321 323 323 323 324 325 323 325 326 326 327 327 327 327 327 327 327 326 325 323 323 328 327 325 327 326 328 328 328 328 326 327 326 324 323 324 322 323 325 325 323 323 325 326 324 324
316 319 321 319 324 325 324 325 325 324 326 327 326 325 327 327 327 328 328 327 325 325 323 323 327 326 326 325 327 329 329 329 326 325 327 326 325 325 323 321 320 322 323 323 324 325 326 324 327
315 317 320 320 320 323 323 323 321 323 324 327 325 326 328 328 328 328 327 327 325 325 322 324 326 326 325 325 327 328 329 329 326 325 326 327 326 325 326 325 323 323 324 324 325 324 323 325 329
316 315 319 323 323 321 321 322 322 322 327 327 326 327 328 328 328 328 327 326 325 324 323 323 326 326 325 324 326 328 329 329 327 326 326 327 326 326 326 326 325 325 325 326 325 326 328 328 328

GFSSGP_850_thetae_015.txt.gz
Theta_e
320 323 323 329 331 329 334 334 329 332 326 326 326 324 322 323 322 322 330 329 332 334 334 328 325 323 324 321 320 320 318 316 316 314 313 313 313 319 316 315 315 320 322 321 320 319 317 310 307
325 324 327 333 333 337 335 333 334 328 327 326 325 323 323 323 326 330 330 328 328 328 330 329 326 326 325 324 323 323 320 319 316 314 314 316 318 316 314 314 315 317 321 323 322 322 321 317 312
323 328 329 332 332 336 335 334 331 331 332 325 324 323 323 324 325 326 326 328 326 325 323 323 325 326 326 326 325 322 321 320 318 316 320 326 327 323 323 320 317 317 323 329 330 333 330 322 320
322 327 330 333 335 332 334 333 331 331 327 325 324 325 325 324 325 325 325 326 326 322 320 324 327 328 328 327 323 321 319 316 314 317 322 323 324 324 323 323 322 324 323 328 327 329 331 329 325
330 335 335 333 333 330 329 331 328 325 325 324 325 325 325 325 325 325 325 325 322 318 320 324 327 328 327 324 322 319 318 317 315 316 319 320 324 324 322 322 323 323 322 326 327 327 326 327 327
332 329 328 330 329 328 327 330 328 328 328 325 325 324 324 325 325 325 325 321 318 319 322 323 325 325 323 320 320 320 319 319 317 321 323 323 323 322 322 322 321 321 323 324 326 325 325 324 326
330 327 330 328 331 329 327 329 327 326 326 324 325 323 325 325 325 325 324 319 320 324 323 322 324 323 322 320 322 321 321 320 319 323 324 324 323 322 322 320 321 321 325 325 326 324 324 324 324
331 326 330 327 329 328 327 328 329 328 326 326 325 325 325 326 325 325 322 322 322 323 322 322 323 322 321 322 322 321 321 319 323 325 324 324 323 324 322 318 317 319 324 328 328 326 322 322 323
330 326 328 328 327 327 327 326 329 328 327 326 325 325 326 326 325 324 323 323 323 322 322 323 322 322 322 322 322 321 319 319 324 325 325 324 324 325 321 318 317 317 321 323 322 322 324 322 322
327 326 327 327 327 326 327 328 328 327 327 326 325 326 326 326 325 323 323 323 323 322 322 322 322 322 322 322 321 319 319 319 323 325 325 325 325 325 322 319 317 317 320 323 325 326 323 322 323
327 328 327 327 329 329 328 328 329 327 326 326 326 326 325 326 325 324 325 324 323 320 322 322 322 322 322 321 320 317 318 322 324 325 324 326 326 324 323 318 318 320 319 320 323 324 323 322 324
327 328 328 328 328 329 327 329 328 328 328 329 329 326 325 325 325 325 325 324 322 321 323 322 323 322 322 322 317 318 322 325 326 326 326 326 325 323 323 320 319 323 323 323 322 322 324 323 324
326 326 327 328 329 329 329 327 328 328 329 329 329 327 326 325 325 325 325 325 322 322 323 323 323 322 322 320 317 318 322 326 328 327 327 326 325 325 323 324 319 320 321 320 321 322 323 323 324
324 325 326 328 329 329 328 328 328 328 327 327 327 326 326 326 325 325 325 325 322 323 323 323 322 322 323 318 316 317 324 328 327 328 326 325 325 325 324 325 323 320 321 320 320 322 322 323 324
318 317 318 320 324 325 327 325 326 326 326 326 327 326 326 326 325 324 324 324 322 323 323 323 323 323 321 317 315 321 325 327 328 328 326 326 325 325 325 324 325 320 322 321 320 323 323 323 323
317 317 319 320 321 323 322 323 323 325 325 326 326 326 326 326 325 324 325 323 323 323 323 323 324 323 318 317 317 322 326 326 325 326 326 326 326 325 324 324 323 321 322 321 321 323 323 323 323
315 317 317 318 319 320 321 322 322 325 325 325 326 326 325 325 324 324 324 323 323 323 323 324 324 322 316 315 319 323 326 325 325 325 326 327 327 326 324 322 322 319 322 321 321 322 323 323 324
316 316 317 318 319 319 320 321 322 324 324 324 325 326 325 325 325 323 324 323 322 323 323 324 324 318 316 316 320 325 326 327 327 328 327 327 327 327 324 322 321 320 323 321 322 322 323 324 324
318 317 318 319 320 320 320 321 322 323 322 323 324 326 325 325 325 325 323 323 323 323 324 324 322 317 316 319 320 325 326 326 327 327 328 328 327 327 324 323 319 321 323 322 321 322 323 324 324
318 317 318 319 320 320 320 320 321 321 321 323 325 326 324 324 325 326 323 323 323 324 325 324 319 318 319 320 324 325 324 326 328 327 328 327 327 325 324 321 320 322 322 322 321 321 322 325 324
318 317 317 318 320 320 320 321 321 322 322 323 326 326 326 327 326 324 323 323 324 325 325 323 318 319 320 323 324 324 325 327 326 327 328 327 325 324 324 322 322 323 321 322 322 322 323 324 324
316 316 317 318 319 320 320 322 321 321 322 321 323 324 325 325 325 325 324 324 325 325 324 320 320 320 321 326 325 325 326 325 327 327 327 326 325 324 322 322 323 322 321 323 322 323 323 324 323
317 318 319 320 319 319 321 321 320 321 323 322 320 323 325 325 326 325 324 325 325 325 323 321 322 323 322 325 327 325 326 325 325 325 325 326 326 324 323 323 322 322 322 322 324 323 325 324 325
316 317 318 318 318 321 321 321 321 320 322 322 322 324 325 325 325 325 325 325 325 325 323 324 323 323 324 327 328 325 327 325 324 325 325 326 326 325 323 323 322 322 322 322 324 324 324 324 325
314 314 316 318 320 322 320 321 322 321 321 322 322 324 325 325 325 325 325 325 325 325 323 325 322 325 325 328 327 326 327 326 324 324 325 327 326 325 322 323 324 324 323 325 324 324 324 325 326
314 316 319 321 321 322 321 323 323 322 321 323 323 323 325 324 325 325 325 325 326 325 324 324 322 326 325 326 326 328 328 327 328 325 327 327 326 325 322 322 324 325 323 324 324 323 325 326 325
314 317 317 318 321 321 321 322 321 323 324 324 324 324 325 325 325 325 325 326 326 325 324 323 325 327 325 326 326 328 328 328 327 325 326 324 323 324 323 321 323 325 324 323 324 324 325 324 327
313 313 315 315 321 323 322 323 324 323 326 326 325 323 325 325 325 325 326 327 326 324 323 323 326 326 325 325 326 328 329 327 325 326 326 325 324 323 322 320 323 325 324 322 323 325 325 324 326
313 314 314 314 316 320 321 322 319 321 324 325 323 324 325 326 326 326 326 327 326 324 323 322 326 326 325 325 326 328 329 327 326 325 327 326 325 324 321 319 322 322 322 322 325 325 325 324 325
315 315 314 318 319 318 320 322 321 319 321 323 323 325 326 326 327 326 327 327 325 324 323 322 326 326 325 324 325 328 329 327 326 326 327 326 326 325 325 324 321 321 324 324 325 324 323 323 329

GFSSGP_850_thetae_018.txt.gz
Theta_e
317 318 324 329 330 329 334 333 328 331 331 325 325 323 320 323 326 322 327 330 327 330 330 332 327 320 321 321 319 320 320 319 318 317 314 311 311 311 314 315 313 314 315 320 320 319 320 317 309
322 324 327 333 333 336 333 332 334 331 329 327 324 323 322 323 324 327 329 328 327 329 330 329 326 325 324 323 322 322 322 320 319 318 316 314 315 316 316 314 314 320 324 324 322 321 322 321 319
324 330 330 332 332 336 334 332 332 332 331 330 323 323 323 324 325 326 326 326 326 326 325 325 324 324 325 325 324 324 322 320 319 318 317 316 322 326 326 320 319 320 327 332 330 331 330 327 323
323 327 330 333 335 333 332 332 331 327 330 324 324 324 325 325 325 324 325 325 325 323 323 321 323 325 326 326 325 322 320 318 316 315 315 319 326 324 323 322 322 320 323 327 330 328 328 329 329
323 334 335 334 334 331 329 331 331 326 325 325 324 324 325 325 325 325 325 325 323 320 319 320 324 325 326 326 324 321 319 318 318 316 315 323 322 323 324 327 325 323 323 326 326 328 326 324 326
331 330 331 333 331 328 326 330 328 326 327 324 323 324 325 325 325 325 325 324 322 319 318 320 324 326 326 325 323 321 320 320 319 318 317 323 323 322 322 322 321 323 325 325 323 326 326 324 328
329 326 329 329 330 329 327 329 325 326 326 326 324 323 325 326 325 325 325 324 320 320 320 321 322 324 327 324 321 321 321 321 320 318 320 323 323 323 322 322 321 320 322 324 325 325 325 325 325
332 325 329 327 329 327 327 328 327 327 327 328 325 323 324 326 326 325 325 325 319 321 321 322 322 324 324 323 321 321 321 321 319 318 323 324 324 323 323 322 317 316 318 325 327 323 323 324 324
329 326 327 326 326 326 326 326 327 328 329 327 328 328 327 325 325 325 325 324 320 322 321 323 323 323 323 322 321 322 322 320 317 320 323 324 324 324 324 323 320 316 316 316 321 322 319 320 323
326 325 326 323 324 325 325 327 328 327 328 327 327 328 326 327 325 325 325 324 322 322 322 322 322 324 322 322 322 322 321 318 317 320 322 323 324 325 325 323 321 316 316 317 323 324 325 323 323
326 328 327 325 326 327 327 328 329 328 326 328 327 329 329 327 325 325 325 325 325 324 322 321 323 323 323 322 322 322 320 316 320 322 323 324 325 326 325 323 321 316 319 319 319 321 324 326 323
326 326 327 326 326 327 327 328 328 328 328 329 329 329 328 326 325 326 325 325 324 324 323 322 323 323 323 322 322 321 316 320 325 325 326 326 326 326 324 323 323 318 322 323 323 321 322 323 321
324 325 327 327 328 327 327 327 327 328 328 329 329 328 327 326 326 326 325 325 325 324 324 323 323 323 323 322 322 319 316 320 325 327 327 327 326 326 325 324 324 320 320 322 321 321 322 323 323
323 325 325 325 325 326 327 327 328 328 329 328 327 327 327 326 326 326 325 325 325 325 324 323 323 323 323 321 321 316 318 325 327 327 328 327 325 325 325 325 324 324 320 321 320 319 322 322 323
318 317 316 318 319 320 322 322 324 324 325 327 326 326 326 326 326 326 326 325 325 325 324 323 323 323 322 323 318 315 323 325 327 328 327 327 325 325 325 325 324 325 321 321 321 320 322 322 323
316 315 317 317 319 319 320 320 321 322 323 324 325 325 325 326 326 326 326 325 325 324 324 322 323 322 322 322 317 319 324 325 325 325 326 326 325 326 326 324 324 324 322 321 321 320 322 323 323
313 316 315 315 317 318 320 319 320 322 322 322 323 323 325 325 325 326 326 325 325 324 324 322 322 322 323 318 316 321 324 325 327 327 326 326 326 327 327 325 323 323 321 320 321 321 322 323 323
315 314 314 315 316 316 316 317 318 320 320 321 323 323 323 324 325 326 325 324 324 323 323 322 322 323 321 318 319 321 325 326 325 326 327 327 328 328 327 325 322 321 319 322 322 321 322 323 323
315 315 314 315 317 318 317 317 318 320 320 319 321 322 323 324 325 326 325 322 323 323 322 322 324 323 318 317 319 322 324 323 324 326 327 327 328 327 327 324 322 320 320 323 322 322 322 323 324
315 316 316 317 319 318 318 318 318 318 318 320 321 322 323 324 326 326 324 323 321 323 322 324 324 321 318 319 320 322 323 324 326 326 326 328 327 327 325 324 322 319 322 322 322 321 322 323 324
316 317 317 318 318 317 317 318 318 320 320 321 322 323 325 325 325 324 324 322 321 322 324 324 323 319 320 320 321 322 324 326 326 327 327 327 326 325 324 324 320 321 323 321 322 321 322 323 324
316 317 318 320 318 317 317 320 319 318 319 319 321 323 325 324 324 324 324 322 322 324 324 324 320 320 319 320 322 325 324 326 324 325 326 326 326 324 323 322 321 323 322 322 321 321 321 324 324
317 319 318 317 316 316 317 318 319 318 320 319 319 323 323 323 323 324 323 323 324 324 324 322 321 320 319 321 325 325 326 325 324 324 325 326 326 325 322 322 323 322 321 322 322 323 323 323 323
318 317 315 316 315 318 318 319 320 319 321 320 320 322 324 324 325 324 323 323 325 324 323 322 321 319 320 323 327 325 327 325 324 324 324 325 326 325 323 323 322 322 322 322 323 323 324 324 324
316 313 314 315 315 319 318 318 319 318 318 319 319 322 324 324 325 324 324 325 325 324 323 323 321 319 322 325 326 326 327 326 326 325 325 327 326 324 323 322 323 323 323 323 324 324 324 324 325
315 314 313 316 318 320 318 321 320 319 320 321 322 321 323 324 325 324 324 325 325 325 323 323 319 323 323 325 326 328 327 327 327 326 327 326 326 324 323 323 324 323 324 325 324 324 324 324 325
314 315 313 315 318 319 318 319 320 319 321 322 322 322 323 324 325 325 325 325 325 324 323 322 321 325 324 326 326 328 327 327 325 326 324 323 324 324 322 323 324 323 324 324 324 323 325 325 326
314 314 315 314 319 321 320 321 321 323 323 325 324 322 323 324 324 325 325 325 325 324 323 321 323 325 325 325 326 328 328 326 325 326 326 324 323 323 321 321 324 325 323 323 323 324 325 324 325
310 313 311 313 314 318 320 320 318 320 321 323 322 322 324 324 324 325 325 325 326 324 323 322 324 326 325 325 326 327 328 326 325 325 326 325 324 322 321 320 324 323 324 322 324 325 325 324 325
313 312 313 315 315 315 318 319 318 318 318 320 321 323 324 325 325 325 325 326 325 323 323 322 325 326 325 325 326 327 328 326 326 326 326 326 325 323 320 318 322 321 323 324 325 325 324 324 324

GFSSGP_850_thetae_021.txt.gz
Theta_e
312 316 321 329 334 335 338 339 332 335 333 326 324 327 327 326 333 329 325 328 326 327 326 326 327 326 320 321 320 320 320 321 318 317 316 314 311 312 313 313 312 311 311 315 319 319 318 318 315
318 323 329 332 337 339 340 336 338 335 333 329 324 323 323 327 324 325 326 327 325 325 324 326 325 323 322 322 321 321 322 321 318 316 315 315 313 315 319 318 319 313 311 312 318 324 324 321 321
321 328 332 337 340 340 338 337 336 334 332 330 326 323 324 326 325 325 326 327 325 325 323 322 321 322 322 322 321 322 322 319 317 316 314 315 314 319 325 325 323 321 320 319 327 329 331 331 328
324 328 331 335 340 339 337 336 335 334 330 325 324 327 324 326 325 325 326 326 325 323 322 320 319 322 322 323 323 322 321 319 317 316 315 314 318 327 326 325 324 324 325 326 329 330 327 329 329
324 332 332 339 339 337 335 334 333 333 330 329 324 327 326 327 326 325 325 325 324 323 321 319 320 322 323 325 324 324 323 320 318 318 317 316 323 325 323 324 326 328 327 327 326 325 326 322 325
330 332 335 334 334 334 332 332 330 330 328 328 324 325 326 327 326 325 325 325 324 322 319 318 320 322 324 325 325 325 323 321 319 320 319 317 324 323 323 323 322 322 321 324 327 328 324 328 326
329 334 331 332 331 331 331 329 330 329 329 328 325 327 326 326 325 325 325 325 324 322 319 318 319 322 324 325 326 326 324 321 320 320 320 318 322 323 323 321 321 320 320 320 325 326 324 324 325
329 331 330 331 328 328 329 328 327 329 329 329 324 329 330 329 327 326 325 325 324 322 320 319 319 322 324 326 327 327 323 321 321 321 320 319 322 323 322 322 322 320 316 317 319 324 325 326 325
330 331 329 327 327 327 327 329 327 327 329 328 327 328 328 328 328 328 325 325 325 323 320 321 321 321 322 326 328 326 322 321 321 321 319 320 322 324 323 323 324 321 319 316 316 318 324 324 325
329 331 328 327 326 327 327 327 328 328 329 329 329 329 328 329 328 328 326 325 325 324 321 322 321 323 324 326 328 324 322 322 321 319 317 319 322 324 324 325 324 322 318 316 316 319 325 327 328
328 330 328 327 326 326 327 327 327 328 329 328 328 328 329 329 329 328 326 326 326 325 322 322 322 323 325 326 326 323 322 322 321 316 319 323 324 324 325 325 323 322 317 318 318 318 322 324 325
328 327 328 328 327 327 327 327 328 328 328 328 328 328 328 329 329 328 326 326 326 326 324 322 323 322 324 328 324 322 322 321 317 318 324 325 325 326 326 326 324 323 320 320 323 322 321 319 323
328 327 327 328 328 328 327 328 328 327 326 326 327 328 328 328 328 329 328 326 325 326 325 323 323 323 323 325 323 322 322 320 316 321 326 326 327 325 326 326 325 324 323 319 321 322 322 321 322
323 324 325 326 326 327 327 326 326 326 325 326 326 325 325 326 326 327 326 326 326 326 325 324 323 323 324 324 323 322 321 316 318 325 327 328 327 326 325 326 325 324 324 321 321 320 319 323 322
322 324 325 324 325 326 323 322 323 322 323 323 323 324 325 324 325 325 325 326 326 326 325 324 323 323 324 323 323 322 320 316 323 325 327 327 328 327 326 325 325 325 325 323 321 321 319 321 322
318 319 320 320 320 320 320 322 322 321 322 323 323 323 323 322 323 324 325 325 324 325 325 324 324 324 324 323 322 322 316 321 325 325 325 326 327 327 326 327 325 324 325 324 321 322 320 322 323
318 320 319 319 319 320 321 322 321 321 321 321 322 322 323 323 324 325 325 324 325 325 324 323 323 323 323 322 322 320 317 323 326 327 327 327 326 327 327 327 326 324 324 324 320 322 321 322 323
319 317 319 319 319 319 320 321 321 319 321 322 322 322 323 323 322 323 323 324 325 324 323 323 323 322 322 322 322 316 319 324 326 326 327 328 328 328 328 328 326 323 323 322 320 322 321 322 323
319 320 320 320 318 318 319 320 321 321 321 322 322 322 322 322 323 323 325 325 324 323 323 322 322 322 322 323 320 317 321 325 325 325 327 328 328 328 328 327 325 322 321 319 323 322 322 322 323
315 318 319 319 318 318 320 321 321 322 322 321 321 323 323 324 323 324 325 324 322 321 322 322 322 322 323 321 317 319 324 323 326 325 326 326 328 328 327 326 325 322 320 321 323 322 322 323 323
315 316 317 317 318 319 320 321 321 322 322 321 321 323 323 324 323 324 325 323 321 321 322 322 323 323 322 317 320 323 323 325 325 325 327 327 327 326 325 325 324 320 321 322 322 321 322 322 324
317 316 316 316 317 319 320 323 323 322 322 322 322 324 324 323 322 323 324 323 322 321 322 323 324 322 319 320 322 323 324 325 324 324 325 325 326 326 323 324 321 321 323 322 322 321 322 323 323
316 316 317 317 318 320 321 322 321 321 322 323 323 324 325 323 322 323 324 323 321 323 324 324 323 320 320 321 323 325 324 325 324 324 325 325 325 326 322 322 322 323 322 322 322 321 321 323 323
316 318 318 319 320 322 321 320 321 321 322 322 325 325 323 324 323 324 323 322 323 324 324 323 321 320 320 321 325 325 326 325 325 324 325 325 326 326 323 323 322 321 322 322 322 322 323 323 324
318 319 320 320 320 321 320 321 321 321 322 324 325 326 324 324 324 324 323 324 324 325 324 322 321 320 320 323 326 325 327 326 327 327 325 327 327 325 323 322 322 322 322 322 323 323 324 324 324
318 320 319 320 321 321 320 320 320 323 322 321 323 324 323 325 325 325 326 326 325 324 323 322 321 320 321 325 325 327 326 327 326 325 325 326 326 324 323 323 324 324 324 324 324 324 324 324 325
318 320 319 320 321 322 323 322 323 324 325 325 324 324 325 326 326 325 326 325 324 324 323 323 319 323 324 325 326 328 327 326 325 325 323 323 324 322 322 324 324 324 324 324 324 324 324 324 325
318 319 318 319 319 319 323 325 325 326 326 327 328 327 326 326 325 325 326 325 324 324 324 321 322 324 325 325 326 328 328 326 325 326 326 323 323 322 321 323 324 324 324 324 324 324 325 325 325
315 319 318 318 319 318 318 321 327 328 328 329 330 327 326 326 325 325 326 325 324 324 323 320 323 325 325 325 326 327 328 326 325 326 326 325 322 322 321 322 324 325 323 323 324 324 325 325 325
316 317 318 318 319 320 320 322 323 327 325 328 328 326 326 326 325 325 325 325 325 324 322 320 324 325 325 325 326 327 328 326 326 326 326 324 323 321 321 321 324 322 323 324 325 325 325 324 325

GFSSGP_850_thetae_024.txt.gz
Theta_e
312 315 326 330 332 330 333 338 338 337 336 332 331 331 332 330 331 332 327 328 327 326 324 323 325 325 322 320 320 319 320 320 318 317 315 313 312 311 311 313 312 313 311 312 313 317 318 317 316
315 321 328 332 331 335 338 340 339 338 336 334 333 332 331 330 329 328 332 327 325 325 323 321 321 323 321 320 320 319 320 320 318 317 315 314 312 312 313 316 317 319 315 311 312 316 321 323 321
320 327 331 334 340 340 339 339 338 336 333 332 332 329 329 331 329 329 332 327 325 324 323 321 319 321 321 320 320 320 320 320 318 317 315 315 314 314 319 324 326 324 321 321 318 320 325 330 330
325 329 330 335 339 340 340 338 336 335 332 330 330 331 329 329 329 330 331 326 325 324 323 320 319 320 321 321 321 321 321 320 319 318 317 316 315 317 326 326 325 325 327 327 327 326 328 327 330
327 330 330 333 334 336 339 338 337 335 333 332 329 332 331 330 327 327 331 328 327 331 324 320 319 320 321 321 321 322 321 321 320 319 319 317 316 323 329 326 325 326 330 329 329 329 327 329 327
330 330 332 331 332 334 335 335 335 334 333 331 329 329 330 328 329 329 330 333 333 333 325 324 318 320 321 322 323 324 323 323 321 320 320 319 317 325 329 323 323 324 323 322 324 328 330 328 326
330 332 329 330 332 332 332 332 332 333 333 332 331 331 331 331 330 328 331 332 334 334 327 321 319 320 322 323 324 324 324 324 323 321 320 320 319 324 322 323 323 321 321 321 321 324 327 328 326
327 330 332 331 332 330 330 330 331 332 333 330 329 332 332 332 329 330 332 332 334 334 334 323 319 320 322 324 324 323 325 325 324 322 321 321 322 322 323 323 323 323 323 321 317 318 325 325 325
328 331 332 332 331 331 330 331 330 330 331 331 330 330 330 330 330 331 332 333 332 332 334 334 334 337 326 328 329 324 326 326 326 323 323 323 331 332 332 330 325 323 324 322 319 316 318 323 325
331 332 331 331 331 331 330 330 330 330 330 330 330 330 330 330 331 331 332 331 332 332 333 335 334 337 338 336 337 330 329 330 332 335 336 334 332 332 330 328 326 325 324 321 318 316 317 324 330
331 333 331 331 330 330 330 330 329 330 331 330 330 330 330 330 330 331 332 332 330 331 332 334 332 326 333 337 337 339 339 337 336 336 334 330 330 331 332 331 331 331 329 327 325 326 326 327 328
330 330 330 330 330 330 330 330 330 330 330 329 329 329 328 328 329 329 329 331 331 330 331 334 336 325 324 336 337 337 337 335 333 332 323 319 330 331 331 330 330 331 329 328 327 327 327 327 326
327 329 328 328 329 329 329 330 330 330 328 328 328 327 328 328 327 327 328 329 332 330 330 334 337 330 323 324 337 336 334 331 329 329 325 321 330 331 331 331 331 329 329 329 327 327 327 329 329
325 325 325 326 327 328 329 329 328 328 327 327 327 325 325 326 325 326 327 328 331 328 330 333 336 332 324 323 327 326 325 327 322 327 329 326 328 331 332 331 331 329 330 330 328 328 327 326 327
325 326 327 326 326 327 326 328 328 326 326 325 325 324 325 325 325 325 325 328 330 332 329 330 330 331 325 324 323 326 324 323 328 328 325 325 326 331 329 330 330 328 327 325 326 326 327 326 327
324 326 328 328 327 327 327 329 327 325 324 325 324 324 324 325 325 325 327 328 329 331 328 327 328 332 326 325 323 325 325 323 328 328 330 327 326 327 328 328 327 327 328 326 327 327 326 327 326
324 326 327 327 327 326 326 327 327 325 324 324 324 324 325 325 324 325 327 329 330 330 327 325 325 334 326 324 324 324 322 324 329 327 331 332 330 329 329 327 328 329 326 326 325 328 327 327 327
324 325 325 327 328 324 324 325 326 326 324 323 324 325 325 325 324 326 328 328 326 324 324 323 327 330 326 327 325 325 328 328 329 331 332 332 332 330 328 328 329 327 325 326 326 327 326 326 326
322 325 326 326 326 326 325 325 327 326 324 324 325 326 326 325 325 328 328 324 324 324 323 324 329 331 329 329 326 329 329 328 330 331 332 332 331 329 328 330 328 327 325 323 325 324 324 324 325
321 322 324 324 324 325 325 325 326 326 326 325 325 325 325 325 327 328 330 326 324 323 324 328 331 327 326 327 329 329 328 329 331 331 333 331 330 329 330 328 327 326 323 322 323 323 324 326 323
320 321 321 322 324 324 324 324 325 325 325 325 325 325 325 324 327 329 331 330 329 328 327 329 331 323 324 330 329 323 328 328 330 332 333 333 329 328 327 326 325 325 324 326 323 323 323 324 323
320 320 319 321 322 324 323 327 325 326 328 327 326 325 325 324 328 329 331 331 331 331 329 328 324 322 323 323 328 330 329 329 331 331 331 331 329 327 327 324 325 326 323 322 324 324 327 324 327
319 320 320 320 322 322 322 324 325 326 327 327 327 325 323 327 329 331 331 332 331 330 331 331 324 324 325 319 330 328 329 331 331 331 329 329 329 327 325 326 327 326 324 323 326 327 325 325 326
318 318 319 320 321 324 323 324 325 327 328 328 327 324 325 330 331 331 331 330 330 331 331 331 327 328 323 323 330 330 332 331 331 331 330 331 328 327 327 328 325 324 324 325 325 327 326 326 325
318 319 321 323 324 326 325 326 327 327 326 325 325 326 330 331 331 331 331 330 330 331 331 331 331 330 329 331 331 331 332 330 331 331 331 328 328 326 327 326 326 324 325 326 327 326 329 326 324
317 321 322 324 326 327 326 326 327 325 325 323 322 326 330 331 332 331 331 331 330 330 330 330 330 330 330 331 332 332 329 332 331 331 330 330 327 327 327 326 325 327 327 327 326 327 327 326 325
318 322 322 323 325 326 327 325 324 324 324 325 326 324 329 331 332 331 331 331 330 331 331 330 329 329 330 331 331 333 332 331 331 330 324 330 328 328 326 326 326 327 326 327 326 325 328 327 326
319 321 323 323 325 326 325 327 327 327 326 328 329 329 330 331 331 331 331 331 331 331 331 330 328 329 330 331 331 332 332 332 331 330 329 329 329 328 328 327 328 326 326 327 326 327 327 328 326
319 321 322 323 323 325 325 325 324 326 328 329 330 331 332 331 331 331 330 331 331 331 330 328 328 329 330 330 331 332 333 331 331 332 331 329 330 328 329 329 329 328 325 324 325 327 328 325 326
320 321 322 323 324 323 323 323 327 328 330 331 333 332 332 331 330 330 330 330 331 330 329 327 328 328 329 330 330 332 332 331 331 331 331 329 329 328 328 328 329 324 323 324 325 326 328 327 327

GFSSGP_850_thetae_027.txt.gz
Theta_e
312 313 326 330 334 331 335 334 337 338 337 335 334 334 335 333 333 334 336 337 334 333 323 321 323 325 324 319 318 318 319 319 318 316 315 313 313 312 311 311 312 312 314 311 311 312 317 318 316
319 323 329 332 333 335 334 335 339 338 338 337 336 335 334 334 332 332 334 337 334 332 322 320 321 324 322 319 319 319 319 320 318 316 315 314 314 313 313 313 316 315 315 317 313 311 313 319 323
323 326 332 333 336 335 338 340 339 338 336 335 334 333 332 333 332 331 336 336 335 333 323 320 319 321 322 320 319 319 319 320 319 317 316 315 315 315 315 320 323 324 325 322 322 322 326 323 330
326 328 330 336 338 338 337 339 338 337 335 333 332 333 331 332 331 332 335 335 334 333 335 320 319 320 321 320 320 320 320 320 320 319 319 318 316 316 317 325 327 326 326 327 328 328 327 329 327
327 330 333 333 332 333 335 336 337 337 335 333 332 332 333 331 330 331 335 335 333 333 334 332 319 320 321 321 320 320 320 320 320 320 320 320 318 317 321 329 328 327 327 330 331 330 331 330 330
328 329 335 333 331 332 334 335 337 337 335 333 332 331 332 331 332 331 333 336 334 334 334 335 325 320 321 321 321 321 321 321 322 321 320 320 320 318 319 330 330 323 323 324 322 321 325 330 330
329 333 333 333 331 332 333 332 335 334 333 333 332 333 332 333 333 332 333 334 336 334 335 335 334 320 321 322 322 322 323 323 323 323 322 321 321 320 322 327 323 323 323 320 320 319 319 324 327
326 331 332 333 333 331 332 331 331 332 333 333 332 332 332 333 333 332 332 334 334 336 335 336 339 331 321 323 323 323 323 323 324 324 323 322 321 321 327 330 325 324 325 323 322 321 317 317 325
327 331 332 333 333 332 331 332 331 331 332 332 332 332 331 331 331 331 331 332 333 334 336 337 336 340 336 327 325 324 324 322 323 325 325 324 326 334 335 334 332 330 329 324 324 322 320 316 318
330 335 334 333 332 332 332 332 331 332 331 331 331 331 331 331 331 332 331 330 331 332 334 335 337 337 341 339 339 337 327 323 324 326 334 337 337 335 333 332 332 330 329 327 325 322 319 316 325
330 334 334 333 332 332 332 332 331 332 333 331 331 331 331 331 331 331 331 330 330 331 333 335 336 337 339 340 339 343 341 339 338 338 339 338 336 332 332 333 333 333 331 330 331 329 329 329 328
330 331 332 332 332 332 333 332 332 331 332 331 331 330 331 330 329 330 330 329 329 329 333 333 336 337 338 340 338 340 341 340 340 339 340 338 335 333 334 333 332 333 331 332 330 329 329 329 328
329 329 329 329 330 331 330 331 332 332 331 331 331 330 329 329 329 328 328 328 328 329 330 333 334 337 336 338 338 339 339 339 338 337 335 335 332 332 334 334 333 332 332 331 330 329 328 328 326
328 329 329 328 328 329 331 331 330 331 331 330 330 329 329 328 327 327 327 328 328 329 330 334 334 336 337 338 337 339 339 337 336 334 333 332 332 333 334 333 332 333 332 332 329 329 328 328 328
327 330 330 330 329 329 328 329 330 329 329 329 329 328 328 327 327 327 327 328 327 328 331 335 334 338 339 340 339 341 339 333 329 332 331 332 334 332 330 333 333 331 330 330 328 329 328 327 328
327 329 331 329 329 328 328 331 330 329 329 329 329 327 327 327 327 327 328 327 327 329 331 335 335 339 342 344 343 341 337 333 332 331 332 335 334 330 333 334 334 332 330 328 328 329 328 328 327
328 330 329 329 329 330 330 331 330 329 329 329 328 328 327 326 327 327 328 327 328 331 334 336 337 339 343 344 343 340 335 333 331 332 333 334 335 334 332 332 331 328 327 329 327 326 328 327 326
327 328 327 328 328 329 330 330 329 328 327 327 328 327 326 326 327 328 328 327 331 333 334 338 338 338 341 344 341 336 334 333 331 332 333 334 335 333 335 333 330 329 329 327 325 326 326 328 328
325 326 327 328 328 328 328 329 330 329 327 328 328 328 327 326 327 328 328 331 330 333 336 336 336 338 342 341 337 334 333 333 332 332 333 334 334 333 334 331 329 329 328 327 325 326 326 327 326
322 323 326 327 327 328 329 329 329 329 328 327 327 328 327 327 327 328 328 333 334 336 336 336 337 340 340 337 334 332 332 332 332 333 334 335 334 333 334 331 330 329 328 327 325 325 325 322 324
321 323 324 326 327 327 328 327 327 327 327 326 326 326 326 327 327 328 328 336 336 336 337 337 338 339 336 334 333 333 333 333 333 331 333 332 331 334 330 330 329 328 326 327 326 327 325 326 326
321 322 323 325 326 327 325 328 327 327 328 327 326 327 327 328 328 327 332 337 336 336 337 337 338 337 335 334 334 333 332 331 332 333 331 334 332 331 331 328 328 326 328 328 327 325 325 325 326
320 321 323 324 324 325 325 326 325 326 326 327 329 327 328 328 328 327 334 336 336 336 336 337 337 336 336 333 333 333 331 330 331 331 333 332 331 329 328 329 327 328 327 325 325 325 325 326 326
320 320 321 323 324 326 325 326 326 326 327 329 329 328 328 327 326 332 335 336 336 335 336 337 337 336 335 334 334 333 334 332 332 333 333 331 330 329 328 330 328 328 325 325 326 327 328 326 326
321 321 322 324 326 328 325 325 326 327 329 329 329 328 326 326 333 334 336 335 335 336 336 336 335 336 334 334 334 333 334 334 334 334 332 331 330 328 327 329 328 325 326 326 328 328 328 327 327
321 322 322 325 326 325 324 325 328 330 328 327 327 326 331 333 334 335 334 335 335 335 335 334 335 334 334 333 333 333 333 334 333 333 333 331 330 328 332 331 328 329 328 329 330 329 329 328 326
320 323 322 324 326 325 328 328 329 330 329 327 326 325 333 333 335 335 335 334 334 334 334 335 334 333 333 333 333 333 334 334 333 334 330 330 329 330 330 330 327 329 329 330 331 328 330 327 326
320 322 322 325 326 327 328 331 330 329 328 327 327 327 331 334 335 334 334 334 334 334 334 334 333 332 332 332 332 332 333 333 333 333 332 329 330 330 330 329 328 329 330 329 328 326 328 326 323
318 321 322 324 324 326 329 329 329 330 328 329 330 328 331 335 335 334 334 334 334 334 334 333 332 331 332 331 332 332 333 333 332 330 331 330 330 329 329 330 329 330 329 328 328 326 326 327 326
319 321 322 327 326 326 328 328 327 327 329 331 331 330 334 334 334 334 334 334 334 334 333 331 331 331 331 331 331 332 333 333 331 332 330 330 328 329 329 329 330 330 330 330 325 330 330 329 329

GFSSGP_850_thetae_030.txt.gz
Theta_e
312 313 322 326 332 330 335 334 335 338 337 335 334 333 334 333 333 336 338 337 335 328 323 321 321 322 322 318 317 317 317 316 315 314 313 313 313 313 312 312 311 313 313 312 311 310 311 314 316
312 320 326 330 332 335 334 332 334 338 338 336 335 336 335 334 332 336 337 335 334 329 323 321 320 321 321 319 318 318 318 318 317 316 315 314 314 314 314 315 315 317 316 316 320 318 314 312 315
321 323 329 331 335 336 334 337 338 339 337 335 334 334 332 333 333 336 338 336 334 331 324 321 320 320 320 319 318 318 319 319 318 318 317 316 315 315 315 317 321 323 324 325 324 325 325 327 327
325 326 327 333 336 336 336 339 340 339 338 335 333 333 333 332 332 333 336 336 335 335 328 321 320 320 320 320 319 319 319 319 319 319 319 319 319 317 316 319 326 327 327 327 327 330 332 330 329
327 328 331 331 331 332 333 335 338 338 337 335 334 332 333 332 332 332 336 335 335 335 336 327 319 320 321 321 320 319 319 319 320 320 320 320 320 319 317 319 326 329 327 325 329 331 331 331 331
327 328 332 334 333 333 332 333 334 336 336 336 334 333 333 332 333 332 334 336 335 335 334 335 325 320 320 321 321 320 320 320 320 321 321 321 320 321 320 319 325 332 328 322 322 321 320 320 324
327 329 331 332 333 333 332 333 334 333 334 334 333 333 332 335 334 333 334 334 335 335 335 335 335 327 322 321 321 321 320 321 321 322 322 322 322 321 321 320 326 325 322 322 322 320 319 319 318
325 328 330 332 334 333 332 331 332 332 332 334 333 334 333 334 333 333 332 332 335 336 335 336 335 336 330 322 321 321 321 321 322 323 324 324 323 322 322 329 332 333 331 330 327 324 323 322 317
325 326 329 331 332 332 332 332 332 331 332 332 333 333 332 331 331 332 332 331 331 332 336 336 336 336 337 325 322 322 322 322 322 323 324 325 324 323 327 334 334 335 331 330 329 326 325 322 319
328 328 329 330 331 332 332 332 333 333 332 332 332 331 331 331 332 332 332 332 331 330 331 336 337 337 336 338 326 323 323 323 323 323 323 325 325 328 335 335 334 331 331 332 330 329 328 328 322
330 330 329 330 332 332 333 333 333 333 333 332 332 332 332 331 331 331 331 331 331 330 329 332 336 336 337 337 340 337 332 326 324 323 323 326 328 338 338 333 333 334 333 332 330 330 329 329 329
328 330 330 331 332 332 333 332 332 332 333 333 333 332 332 332 331 331 330 330 330 329 329 329 335 335 336 337 341 339 339 338 331 325 325 331 335 338 331 329 332 334 333 331 331 330 330 329 330
328 328 328 330 331 332 331 331 331 331 331 331 331 332 332 332 331 330 330 329 328 328 329 329 332 335 335 336 339 341 341 342 339 339 339 339 337 332 332 334 335 334 333 332 331 331 329 329 328
327 327 327 328 328 329 330 330 329 330 331 331 331 331 331 332 330 330 330 328 328 329 329 328 329 337 335 334 337 340 340 342 341 341 339 339 335 330 332 334 334 333 332 331 331 331 329 328 329
325 328 329 330 329 330 329 331 331 329 328 329 329 330 330 330 330 329 329 328 328 329 328 327 330 335 337 335 337 337 340 339 340 339 337 335 333 330 330 334 335 333 332 331 330 329 328 328 328
325 326 329 329 329 330 330 332 332 329 329 329 330 330 330 330 329 328 328 327 329 328 327 328 331 335 337 337 338 337 343 340 339 337 334 332 331 331 331 333 333 331 332 332 330 328 328 328 327
325 327 327 329 329 329 331 331 331 329 329 330 330 330 330 330 329 328 327 327 329 328 328 330 333 335 337 339 341 340 343 341 339 333 332 332 334 333 331 332 332 333 332 330 328 328 327 326 326
325 325 327 329 329 329 330 331 331 331 330 331 331 330 329 328 329 328 327 327 329 331 330 333 334 337 339 341 342 343 342 340 334 332 332 333 334 335 334 331 333 333 331 329 330 328 325 326 327
323 326 326 328 328 329 330 330 330 331 330 331 330 330 329 330 330 329 327 327 330 331 330 331 336 338 340 342 343 344 341 336 333 332 333 333 334 335 334 332 333 332 330 330 329 328 325 326 327
319 322 325 327 327 328 329 330 330 331 331 330 330 330 330 329 328 329 328 328 334 332 331 332 338 339 339 342 343 340 336 334 333 332 333 334 334 333 333 332 332 331 330 329 328 327 325 325 323
319 321 323 324 325 326 327 329 330 330 330 329 328 328 328 328 327 327 327 331 334 333 332 334 337 340 341 342 338 336 333 334 333 334 334 334 335 331 330 332 330 330 329 328 326 325 324 325 325
321 320 320 322 323 326 325 329 331 330 331 330 329 328 328 328 328 327 329 335 335 335 335 338 339 339 339 337 336 334 333 333 334 331 333 334 333 331 329 330 329 329 328 327 327 327 325 324 325
320 319 320 321 323 325 324 328 328 329 329 329 329 328 327 328 329 329 330 335 338 337 338 339 339 335 337 334 335 334 334 333 333 333 331 333 332 332 329 328 328 327 326 327 327 326 325 325 324
320 319 320 322 323 326 327 327 327 327 330 329 329 328 328 328 328 329 336 338 339 338 339 339 336 338 336 334 334 333 332 333 332 332 333 333 332 330 329 328 327 326 327 326 324 325 325 326 325
318 323 323 324 324 325 324 325 327 328 328 328 329 329 329 329 329 336 338 338 338 338 339 338 337 337 334 335 335 336 335 329 330 333 333 331 330 329 331 328 328 327 326 324 326 325 326 326 326
318 322 323 323 324 324 323 326 327 329 328 327 327 328 328 331 334 338 338 337 337 338 338 338 337 336 335 335 335 334 334 334 334 334 333 333 331 328 328 328 327 327 327 326 327 327 327 326 326
318 319 321 325 323 323 325 327 328 329 329 330 328 327 331 335 336 337 337 337 338 338 337 337 337 336 335 334 334 334 333 335 333 333 328 330 328 328 329 329 327 328 328 328 329 328 327 326 326
318 319 321 324 325 326 325 327 329 331 331 332 330 329 335 337 337 336 336 337 337 337 336 336 335 335 334 334 333 333 332 331 332 331 331 329 328 331 327 327 326 327 328 328 327 325 326 323 324
318 319 320 324 323 326 327 327 333 333 332 329 329 329 336 337 336 337 336 336 336 336 336 335 335 334 333 333 333 331 330 332 331 331 331 329 330 330 329 326 327 328 328 327 327 325 324 323 324
317 319 321 324 325 325 326 328 331 329 330 331 330 329 336 336 336 336 336 336 336 336 335 334 333 333 333 332 334 331 331 333 331 330 330 328 329 328 328 329 329 329 329 327 327 329 329 328 326

GFSSGP_850_thetae_033.txt.gz
Theta_e
320 312 315 324 326 327 330 331 329 333 336 335 335 333 332 333 335 338 337 336 335 324 323 322 322 321 320 319 318 318 318 317 317 316 315 315 314 314 314 314 314 314 314 313 312 314 311 310 311
313 321 326 329 327 330 331 329 336 337 336 335 335 335 333 334 337 337 338 336 334 326 324 323 321 321 320 319 319 319 318 318 317 316 316 316 315 314 314 315 318 320 321 316 320 321 322 318 312
313 321 324 326 330 331 329 335 337 338 337 336 334 334 333 334 337 337 336 334 333 329 324 322 321 321 320 320 319 319 318 318 318 318 319 319 318 317 315 316 320 322 324 323 325 325 327 326 325
322 324 326 328 332 332 333 334 337 337 338 336 335 332 332 333 336 337 336 334 333 332 327 321 321 321 320 320 319 319 319 319 319 320 320 321 321 320 317 316 319 324 326 326 328 332 332 332 332
326 328 324 328 329 332 331 333 337 337 338 336 335 333 332 332 333 334 336 335 335 333 334 324 320 320 321 320 319 319 319 319 320 320 321 321 321 321 321 319 318 321 330 328 323 328 328 332 330
324 327 326 328 330 331 331 331 337 336 336 337 335 334 332 332 332 332 334 335 335 335 333 334 328 320 320 321 321 319 319 319 320 321 321 321 322 322 321 321 320 322 328 326 321 321 321 319 319
327 324 325 326 328 330 331 332 329 330 331 333 334 332 333 333 332 332 333 332 335 335 335 334 334 333 321 320 320 320 320 320 320 320 321 321 321 322 322 321 322 327 330 327 327 326 323 320 319
330 323 324 325 328 329 330 331 331 331 332 333 333 333 333 334 333 332 332 332 333 335 335 334 334 334 332 321 320 320 321 320 320 320 321 322 322 322 322 322 324 330 332 330 329 329 327 324 324
333 325 323 324 326 328 330 329 332 332 332 332 333 332 332 332 333 332 332 332 333 334 336 335 335 334 334 334 325 320 321 321 320 320 321 322 323 324 323 324 327 330 330 330 331 329 327 325 324
334 326 324 324 325 327 329 330 332 333 332 332 332 332 332 332 331 331 332 332 332 331 333 335 335 335 335 335 335 327 320 321 321 321 321 322 323 324 325 328 327 329 331 332 332 329 329 328 328
329 330 327 325 326 327 329 331 332 332 331 332 332 332 332 333 332 331 331 331 331 330 331 333 335 335 336 336 336 333 322 320 321 322 322 321 321 323 328 334 333 332 333 334 332 330 330 329 328
325 328 329 328 327 327 328 330 331 331 330 331 330 331 332 332 332 332 331 331 331 330 330 329 333 335 336 337 336 335 336 332 322 322 322 323 322 324 335 337 334 333 333 333 331 330 330 329 328
325 325 326 328 329 329 329 330 330 331 331 330 329 329 331 331 331 331 331 330 329 330 329 329 328 333 335 337 337 336 336 336 336 335 335 329 324 331 335 338 331 331 333 333 332 333 331 330 329
323 326 327 327 326 327 327 328 328 329 328 329 329 329 329 330 330 331 332 330 329 329 329 328 328 328 328 332 337 336 336 336 338 339 337 332 335 337 337 332 332 335 335 334 333 331 331 331 329
319 321 322 324 326 326 326 327 327 328 329 329 329 329 328 328 328 329 330 330 329 329 328 328 328 327 328 332 338 337 338 338 339 340 340 339 340 338 335 331 334 334 334 334 331 331 330 330 328
321 321 321 322 323 325 326 328 327 328 329 329 329 329 329 328 329 330 330 330 329 329 327 327 328 327 329 334 337 340 341 341 341 342 341 341 338 335 332 330 332 334 334 331 331 332 330 328 328
319 322 322 323 323 324 325 327 327 328 328 328 329 329 328 329 329 329 329 329 328 327 327 329 329 328 329 334 337 339 341 341 341 342 340 337 334 332 331 332 329 332 332 333 332 331 329 328 327
319 321 322 322 323 324 325 325 326 326 327 328 328 329 329 329 330 329 328 327 328 327 328 330 329 330 332 335 338 340 339 341 342 339 336 333 332 332 334 333 332 332 332 332 331 329 328 328 325
318 322 322 322 323 324 324 325 326 327 327 326 327 329 329 329 329 328 327 329 328 327 328 331 331 333 334 338 340 341 341 342 342 340 332 332 332 333 334 333 334 332 331 332 330 329 329 327 325
316 316 317 320 323 323 324 325 326 326 326 326 326 327 328 329 330 328 328 328 328 327 330 332 331 334 336 340 343 342 341 342 340 338 332 332 333 333 334 332 330 331 331 329 329 329 328 326 326
315 316 316 317 319 320 320 321 322 323 324 326 327 328 328 328 327 328 327 327 329 330 331 332 333 338 341 343 342 342 342 339 334 333 332 332 333 334 334 331 329 330 328 328 328 327 326 324 324
316 316 317 318 318 319 320 321 321 322 323 324 326 327 328 328 327 326 327 327 331 333 333 332 333 339 340 342 340 338 335 335 334 333 333 333 334 334 333 330 328 328 328 328 326 326 326 324 324
315 318 317 318 317 317 319 319 321 322 324 325 324 326 326 327 328 328 327 328 333 334 333 333 335 337 340 340 338 336 335 334 333 333 333 333 333 332 330 331 328 327 326 326 326 326 326 325 325
315 316 316 317 316 318 318 319 320 320 321 324 324 326 326 326 326 327 332 334 335 335 335 335 335 338 339 335 336 334 332 334 333 332 332 333 333 333 330 329 327 326 325 326 325 325 325 325 325
311 313 314 317 317 318 318 320 321 321 322 324 323 325 326 327 329 334 336 336 337 337 336 335 335 336 337 335 334 333 333 333 332 332 332 333 331 329 328 327 327 326 325 325 325 325 325 326 326
310 312 314 318 319 318 319 320 319 321 322 323 324 325 329 332 334 336 337 338 337 337 336 333 336 337 335 334 334 334 335 331 328 328 331 332 329 328 327 327 326 325 325 325 326 326 327 326 326
309 310 314 315 317 318 319 319 320 320 320 323 323 330 336 337 337 338 338 337 337 337 336 335 337 336 334 334 333 330 327 333 334 332 331 329 327 328 327 328 326 327 326 327 327 327 326 325 325
315 312 314 314 316 318 321 319 320 321 324 322 325 329 337 338 338 338 337 337 338 337 337 336 335 332 334 334 333 332 332 333 331 331 329 328 329 330 327 326 326 327 326 327 327 328 326 324 325
315 312 311 313 315 318 321 321 321 321 322 323 325 336 337 337 337 337 337 338 337 337 337 336 335 334 334 333 331 331 330 330 331 330 331 329 330 330 326 326 327 326 325 327 326 325 325 323 323
313 313 311 313 317 318 320 320 324 326 326 325 331 336 336 336 337 337 338 337 337 337 336 335 335 334 333 333 332 330 329 330 332 330 330 328 328 327 328 329 328 328 328 327 326 326 327 327 326

GFSSGP_850_thetae_036.txt.gz
Theta_e
321 314 313 324 325 325 328 331 328 331 332 335 334 332 331 332 333 335 331 329 331 324 324 323 322 321 320 319 320 320 319 319 318 318 318 317 316 315 314 315 317 318 318 316 313 313 315 312 310
319 313 326 328 325 328 328 326 329 336 336 336 335 333 334 336 335 335 333 332 326 325 324 324 322 322 320 320 320 320 319 319 319 319 319 319 318 317 316 315 317 319 320 320 318 322 323 323 317
312 323 324 325 326 328 327 332 336 335 337 336 335 334 334 336 337 335 334 334 333 325 323 323 322 321 320 320 320 320 319 319 319 320 320 320 320 320 319 317 316 318 321 322 322 323 325 327 327
317 322 324 325 329 329 330 330 331 334 335 334 337 333 334 336 336 336 334 333 333 329 323 323 323 322 321 320 320 320 319 319 320 320 321 321 321 321 321 320 317 316 321 323 323 326 331 332 332
324 327 323 325 327 329 330 330 330 335 336 336 336 333 333 336 337 336 332 331 331 332 330 325 323 322 321 321 321 321 320 319 320 320 320 321 321 321 322 321 320 318 320 328 326 321 328 326 330
324 324 324 326 327 328 328 329 330 335 336 336 336 335 332 334 333 334 334 333 332 330 331 332 326 322 322 321 321 321 320 320 320 320 320 321 321 321 322 322 321 321 323 325 323 321 322 321 320
324 321 323 325 327 327 328 329 329 333 334 334 334 332 332 332 332 332 333 334 333 332 332 332 333 325 322 321 321 321 320 320 320 320 320 320 321 321 321 321 321 322 326 328 327 327 327 325 322
328 321 324 323 325 326 327 330 329 330 332 333 332 332 331 332 332 333 333 333 334 333 334 334 333 333 330 326 321 321 320 320 320 319 320 320 321 321 321 322 322 323 328 329 329 330 329 328 326
331 325 322 322 324 326 326 327 331 329 331 332 332 332 333 332 332 333 333 334 335 335 335 335 334 334 334 333 330 320 320 320 320 319 320 320 321 322 322 323 323 327 327 330 330 331 329 327 325
331 331 328 322 323 323 323 325 326 329 330 331 332 331 332 331 332 333 333 332 333 333 333 335 334 334 334 334 334 328 321 321 321 320 319 320 321 322 323 323 325 329 329 332 332 331 329 329 328
330 334 331 329 326 325 325 325 326 327 329 331 330 330 330 330 331 331 331 331 331 331 331 332 333 334 334 334 334 334 331 324 321 321 320 320 320 321 322 322 326 332 330 331 333 332 330 329 328
327 329 331 331 329 327 326 326 326 327 328 329 331 331 329 329 329 331 332 331 331 331 331 330 329 332 334 335 335 335 335 334 329 322 321 321 320 321 321 321 327 331 330 331 333 332 330 330 329
321 325 327 327 328 328 328 327 327 328 329 329 330 330 328 329 329 330 330 330 330 331 330 329 329 330 332 334 335 335 336 336 335 328 322 321 322 322 321 322 328 333 332 331 332 332 331 331 329
316 317 321 324 324 324 326 326 327 327 328 327 327 328 328 329 329 329 328 328 329 330 330 329 329 329 328 330 332 334 335 336 336 336 330 324 324 326 323 325 332 337 333 332 333 330 331 330 330
315 315 317 318 320 323 325 325 325 326 326 326 327 327 328 329 329 329 329 328 329 329 330 329 329 328 328 327 328 331 330 333 337 337 337 338 338 332 330 335 335 334 331 335 332 332 331 331 331
318 316 317 318 319 320 322 324 326 326 326 326 327 327 327 327 327 328 329 328 328 328 329 329 328 327 328 328 328 328 329 335 338 338 339 340 339 338 338 336 335 331 333 334 335 334 331 331 331
314 320 320 320 320 321 321 323 323 324 326 326 326 327 327 328 328 329 329 328 328 329 329 329 327 327 329 329 328 329 332 338 339 340 341 341 340 340 337 337 332 331 331 333 333 332 332 331 329
316 318 319 321 321 321 322 322 322 323 324 324 324 325 326 326 327 328 328 328 329 329 328 327 328 329 329 329 329 332 338 341 341 342 343 342 341 338 336 332 333 332 330 330 331 330 330 329 328
315 317 319 320 320 321 322 322 322 323 323 323 324 324 325 326 328 327 328 328 329 328 328 327 327 327 328 330 332 337 342 343 343 342 341 338 334 332 332 333 333 330 331 332 329 328 329 328 328
313 314 315 315 315 319 321 321 322 322 322 323 323 324 325 326 326 327 327 328 328 328 328 327 327 328 330 332 334 339 342 343 342 340 338 336 334 332 333 332 333 332 331 330 328 327 327 328 327
313 313 314 315 315 315 315 316 317 318 319 321 322 323 324 326 327 328 328 328 328 327 327 327 328 330 332 335 340 342 342 341 342 341 339 336 332 332 332 333 334 331 328 329 327 328 327 326 325
312 313 315 314 315 315 316 316 316 318 318 319 320 322 324 323 324 325 327 328 327 327 329 330 331 333 335 339 343 343 341 340 341 338 335 332 332 332 332 333 332 330 328 328 328 327 325 324 323
311 314 315 315 315 314 315 314 316 316 318 319 319 321 322 323 325 325 326 326 327 329 330 333 333 335 341 342 342 340 340 337 332 332 332 332 333 333 333 333 331 329 327 326 326 326 326 326 324
309 312 313 314 313 315 315 314 316 316 317 318 320 323 323 323 324 326 326 326 330 332 333 334 333 339 341 341 341 336 334 335 334 333 334 333 333 333 332 331 329 327 324 324 325 325 325 325 325
307 307 310 311 314 316 316 315 317 316 317 317 318 319 321 323 324 325 328 329 332 333 335 335 337 341 341 340 337 335 335 333 333 333 332 332 332 332 330 328 327 326 326 326 325 324 324 325 325
305 305 309 312 315 315 316 316 316 317 318 319 319 321 322 323 324 327 332 333 335 336 336 336 339 340 335 336 334 333 333 333 332 332 332 332 331 329 327 327 327 326 324 324 324 325 325 326 326
310 306 306 309 312 313 315 316 317 318 318 318 318 321 324 328 331 334 336 337 337 337 336 336 338 337 335 334 333 333 333 333 331 328 329 331 328 326 327 326 326 325 325 325 326 326 326 325 325
309 312 309 307 313 314 315 317 318 317 318 318 317 320 332 336 337 337 337 338 337 336 335 335 336 335 334 333 333 331 327 330 332 331 328 329 326 326 327 326 325 326 326 326 326 326 326 326 324
309 312 310 308 309 314 315 316 316 318 317 318 318 328 335 337 337 338 338 337 337 335 334 336 335 334 333 331 329 327 331 329 330 330 330 328 328 328 326 326 326 326 326 326 325 325 326 326 324
309 311 311 308 309 312 314 315 317 316 318 319 320 334 335 337 337 337 337 337 337 334 335 334 332 331 331 330 330 330 330 330 331 330 330 328 328 327 327 327 327 327 327 326 326 325 324 326 326

GFSSGP_850_thetae_039.txt.gz
Theta_e
321 318 312 322 323 324 327 327 326 330 332 336 334 329 332 333 334 331 328 328 327 325 324 323 322 321 320 320 320 320 320 320 319 319 319 319 318 317 316 315 315 316 316 317 316 313 313 313 311
321 312 320 327 322 327 325 325 327 330 335 335 334 333 333 335 335 330 328 328 326 325 324 324 323 322 321 320 321 320 320 319 319 319 319 319 319 319 318 317 316 317 318 318 318 320 322 324 324
318 321 324 324 324 325 325 327 334 332 332 333 335 332 334 335 335 330 329 327 327 324 325 324 324 323 321 321 321 321 320 320 319 320 320 320 320 320 320 319 317 316 318 319 320 322 323 325 327
314 322 324 325 327 327 325 329 328 329 330 333 336 332 335 335 334 333 331 330 328 327 325 324 324 323 322 321 321 321 320 320 320 320 320 320 321 321 321 321 320 318 317 321 321 321 324 331 332
319 325 322 324 325 327 328 329 328 327 330 336 336 331 334 335 335 333 331 330 329 329 327 325 323 323 322 321 321 321 321 320 320 320 320 320 321 321 321 321 321 321 319 321 325 321 321 327 327
324 323 324 324 324 326 326 328 328 331 334 336 335 331 334 336 335 332 330 330 329 329 329 329 325 323 322 323 321 321 321 320 319 320 320 320 321 321 321 321 321 321 321 323 324 323 323 323 322
322 320 323 324 325 326 327 328 328 327 331 334 334 333 332 334 333 331 332 332 331 331 330 330 330 325 322 322 321 321 321 320 320 319 320 320 320 321 321 321 321 321 323 325 326 327 328 328 327
323 320 324 322 324 325 326 327 329 328 328 331 333 332 331 332 333 333 333 334 333 332 332 332 332 330 328 327 322 321 320 320 320 319 319 320 320 320 321 321 321 322 323 326 327 329 329 328 326
329 321 321 323 323 324 324 323 328 328 328 328 330 332 332 332 332 333 334 334 334 334 333 333 333 333 332 331 325 321 321 320 319 319 319 319 320 320 320 321 322 323 324 327 328 330 330 329 327
328 325 324 321 322 323 323 323 324 325 327 327 329 331 332 332 332 332 333 333 334 334 334 333 334 334 333 333 330 325 323 321 320 320 319 319 319 320 320 321 322 323 326 327 330 332 331 329 328
329 331 327 325 324 325 327 325 326 325 325 326 329 329 329 330 330 332 332 333 332 332 332 333 333 334 334 334 333 331 328 327 322 321 320 319 318 319 320 321 322 323 327 328 327 332 331 329 328
327 328 330 330 330 330 327 328 326 326 325 326 327 328 329 329 330 329 329 331 332 332 331 330 332 333 334 334 334 334 333 332 329 325 322 320 319 318 319 320 321 322 326 330 327 331 332 330 329
322 325 326 330 331 330 329 327 327 327 327 328 329 329 329 328 327 328 328 329 329 330 330 330 330 330 330 333 334 333 334 334 333 329 326 323 321 319 319 319 320 321 327 332 328 329 332 331 330
315 317 319 321 321 323 324 325 326 327 327 327 326 326 326 326 327 327 328 328 329 328 328 328 329 330 329 330 330 331 332 331 332 333 331 328 324 321 321 320 320 321 329 334 332 330 331 330 331
314 313 314 315 316 317 321 322 324 324 325 325 325 326 326 327 327 327 327 327 327 328 328 328 328 329 329 329 328 330 330 329 331 333 334 334 331 323 322 322 322 324 333 336 333 332 330 330 331
315 314 315 316 316 317 320 323 323 324 325 326 326 326 326 327 327 327 327 327 327 328 328 329 328 329 329 329 328 328 328 329 332 334 335 337 333 331 331 332 328 333 333 333 331 333 330 331 332
313 318 317 318 318 318 319 322 323 324 323 323 324 325 325 326 326 326 326 326 327 327 327 328 328 328 329 329 327 328 328 329 332 334 337 338 338 339 338 334 335 336 334 331 332 334 333 333 330
316 316 317 319 319 319 320 320 321 322 322 321 322 322 323 323 325 325 326 327 327 327 327 328 328 328 329 328 328 329 329 332 333 337 340 339 340 340 339 338 338 335 332 332 332 332 330 329 328
312 313 316 318 318 320 320 320 320 320 321 321 322 322 323 323 325 325 325 326 327 326 326 327 328 328 328 329 328 329 330 333 337 341 340 341 341 341 341 337 335 333 332 329 330 331 328 327 327
311 311 312 314 315 315 315 318 317 318 320 320 321 322 322 322 324 325 325 326 326 327 328 328 328 327 328 327 328 330 331 337 340 342 342 341 341 340 336 333 332 333 332 332 328 329 328 326 327
310 311 312 313 314 314 314 315 315 315 316 318 320 321 322 323 322 322 323 325 324 325 328 328 328 328 327 328 331 334 340 342 343 342 341 339 337 335 333 331 333 333 331 331 328 329 327 328 327
307 311 312 314 313 314 313 315 314 314 315 315 316 318 318 320 321 322 322 323 324 325 328 328 327 327 329 331 335 337 340 342 342 341 340 337 335 332 331 332 333 332 332 330 328 327 327 327 325
308 309 311 312 312 313 313 312 314 313 314 314 315 316 318 319 319 321 321 322 324 325 328 329 328 331 333 334 338 340 342 342 341 340 338 335 332 332 333 333 333 333 331 329 326 325 325 325 324
307 308 309 310 311 312 313 313 314 313 314 315 314 317 319 320 320 322 322 322 324 325 328 331 331 334 336 339 342 343 342 341 340 334 332 332 332 332 333 334 333 331 328 325 324 324 325 326 325
306 304 306 310 311 313 313 313 314 313 314 314 314 315 317 318 319 320 320 322 324 326 331 333 336 336 339 340 340 339 338 335 333 332 332 333 333 333 333 333 330 328 326 324 325 325 324 324 324
303 304 306 312 314 312 313 315 315 314 315 316 316 317 317 318 319 319 321 323 327 332 336 336 337 337 339 340 339 335 334 333 332 332 333 332 331 332 330 328 327 326 324 323 323 323 324 324 325
309 304 305 306 307 308 312 314 315 315 315 315 314 316 317 318 319 321 326 330 333 336 336 336 337 339 340 339 336 335 334 332 333 332 331 331 329 330 326 326 326 325 324 324 325 325 326 326 325
308 309 305 303 309 311 312 313 315 315 315 315 314 314 318 319 323 328 333 335 337 337 338 339 339 337 336 335 334 333 333 332 331 330 329 330 328 326 326 325 325 325 324 326 326 326 327 327 326
307 310 309 305 307 311 312 312 313 314 315 315 314 316 318 321 330 334 336 337 337 337 338 339 338 335 334 334 333 332 330 328 329 330 328 328 326 326 325 325 325 326 326 327 327 326 326 326 325
307 310 310 308 311 308 310 311 313 313 312 312 315 318 327 327 334 336 337 338 337 336 337 337 336 335 334 333 327 324 326 328 330 329 329 328 328 326 325 327 326 326 326 327 326 326 325 325 323

GFSSGP_850_thetae_042.txt.gz
Theta_e
322 319 312 321 320 322 324 323 323 326 329 333 332 332 334 333 331 331 329 328 327 326 325 323 323 322 321 320 319 319 319 319 319 319 319 318 318 317 317 316 316 315 316 316 316 315 313 313 312
323 317 316 325 319 325 318 324 326 324 333 332 331 331 332 331 333 330 328 328 327 326 325 324 324 323 322 320 320 320 319 319 319 319 319 318 318 318 318 317 317 316 316 317 317 318 320 322 323
321 314 322 323 321 322 320 325 328 330 330 330 334 331 333 333 334 329 328 327 326 325 325 324 325 324 323 321 321 320 319 319 319 319 319 319 319 319 319 319 318 317 316 318 318 319 321 323 326
315 323 323 324 326 325 322 327 327 326 328 331 335 330 332 335 333 329 328 327 326 325 325 324 325 325 324 322 321 320 320 319 319 319 319 319 320 320 321 321 320 319 317 319 321 319 320 326 330
318 322 321 323 324 325 324 326 326 325 326 331 335 331 332 334 331 330 328 327 327 326 326 325 325 325 324 323 321 321 320 319 319 319 319 320 320 320 321 321 321 321 320 320 321 321 321 322 325
323 322 322 321 322 324 323 326 326 326 328 334 333 331 334 335 333 330 329 328 328 327 326 326 326 325 325 324 322 321 321 320 319 319 319 320 320 320 321 321 321 321 321 322 323 322 324 324 324
321 319 322 323 324 325 324 326 325 326 327 332 333 330 332 334 335 330 330 330 330 329 328 329 328 326 324 323 322 321 321 320 320 319 319 319 320 320 321 321 321 321 321 323 323 324 326 327 326
322 320 323 322 324 323 324 325 327 327 328 329 330 331 332 333 334 335 333 333 332 332 331 330 328 327 326 324 322 321 320 320 320 320 319 319 319 320 320 321 321 321 321 323 323 324 325 325 326
327 319 320 322 322 323 323 322 326 325 327 327 329 330 330 332 333 332 333 333 332 331 331 332 331 331 328 325 323 321 321 320 319 319 319 319 319 319 320 320 320 321 322 323 324 324 327 327 326
325 321 320 320 321 322 322 324 324 324 324 326 327 330 330 330 333 332 332 332 332 332 331 331 332 332 331 328 325 323 322 321 320 320 319 319 319 319 319 320 320 321 323 324 326 326 330 329 327
328 330 326 323 322 322 324 325 325 324 323 325 326 327 328 328 329 331 331 332 332 332 332 331 332 333 333 333 332 329 326 323 322 321 320 319 318 318 318 319 320 321 322 323 327 327 329 331 328
326 327 328 328 326 329 326 326 327 327 326 327 326 326 326 327 328 329 329 329 329 331 332 332 332 333 333 333 333 333 331 328 327 324 323 320 319 317 318 318 319 320 321 322 329 329 329 331 330
326 325 328 329 329 330 331 330 328 328 329 328 327 326 326 327 328 328 326 326 327 328 330 330 330 330 331 332 332 333 333 333 329 327 326 322 321 318 317 318 318 319 320 321 327 331 329 330 331
315 320 324 325 323 322 323 323 323 326 326 326 326 326 326 326 326 326 326 327 327 327 327 327 327 327 328 329 329 330 332 333 333 331 330 326 323 320 318 319 320 318 320 320 327 334 330 330 331
313 313 313 313 316 317 322 323 323 323 323 324 324 325 325 325 325 326 326 326 327 326 326 326 326 328 328 328 328 329 329 331 332 333 333 332 329 325 320 320 321 319 319 322 333 334 332 331 330
313 311 314 316 313 315 319 322 322 324 323 323 324 325 325 326 326 326 326 326 326 326 325 326 326 326 327 328 328 328 328 330 331 331 332 332 333 333 328 324 322 322 322 323 335 333 332 331 329
311 316 313 315 315 316 317 319 321 323 323 323 323 323 323 323 324 324 325 325 325 325 325 326 327 327 327 327 328 328 329 329 329 331 331 332 335 337 336 330 325 326 326 332 333 332 332 332 330
312 314 315 316 317 316 316 318 318 319 320 321 322 322 322 322 323 324 324 325 325 324 326 326 327 326 326 328 327 328 329 329 329 331 333 335 337 338 335 335 336 333 332 335 331 331 331 332 332
311 312 314 315 317 318 316 317 318 318 318 318 319 320 321 321 322 322 323 324 324 325 325 326 326 327 326 328 328 329 329 328 329 332 335 337 339 338 338 339 338 337 334 332 329 330 331 331 328
309 310 310 311 313 313 313 313 312 313 314 317 318 319 319 321 321 322 323 323 324 323 324 324 325 327 328 328 328 328 328 328 331 335 338 340 340 340 340 340 335 333 332 332 331 330 328 328 328
309 309 310 312 312 312 313 314 315 315 313 314 315 316 318 318 319 320 321 323 323 323 323 323 324 327 327 328 328 328 329 330 334 337 340 341 342 342 339 334 332 332 332 333 330 330 328 328 327
306 309 311 312 312 312 313 315 314 314 314 313 313 315 315 316 317 319 319 321 322 322 322 322 324 327 327 327 328 329 330 333 336 339 341 341 341 338 336 331 332 332 332 331 331 329 328 327 327
307 307 308 310 310 311 311 311 313 312 312 312 313 314 314 315 316 317 319 319 319 319 321 324 325 328 328 329 330 333 335 338 340 341 340 338 336 333 333 332 331 331 331 332 330 327 326 326 326
307 307 307 308 309 310 310 311 312 311 311 311 312 313 314 315 315 316 317 319 321 322 321 324 327 329 330 333 334 337 339 340 341 340 338 336 333 331 331 332 332 331 332 331 327 324 325 325 325
305 303 306 308 309 310 310 311 311 311 312 312 313 313 315 316 316 317 318 319 319 320 322 324 329 332 333 337 338 342 342 341 341 340 335 332 331 331 332 332 333 333 330 327 324 324 325 324 324
302 302 305 310 312 309 310 313 312 312 313 313 314 315 315 316 317 317 318 318 319 321 325 329 333 336 338 338 342 342 341 340 337 332 331 331 332 332 332 333 332 328 327 325 324 324 323 324 323
305 303 304 304 306 305 308 310 311 312 312 312 312 314 315 317 319 319 319 319 323 327 331 337 338 338 337 340 339 338 335 333 332 332 332 332 331 331 331 328 326 326 325 323 323 323 323 324 325
305 304 304 302 306 309 309 310 312 312 312 312 313 312 315 320 323 321 323 326 330 333 337 338 337 336 339 338 336 334 334 332 332 332 331 331 329 329 326 326 325 325 323 324 323 325 326 327 325
307 307 307 303 304 309 310 310 309 311 312 311 310 313 316 327 329 325 330 333 335 337 337 337 338 338 338 336 334 333 332 332 331 330 328 328 327 325 324 325 325 324 324 325 325 326 327 327 327
306 307 308 309 310 307 307 308 308 310 310 311 313 315 318 327 330 332 334 336 337 337 339 339 338 336 335 333 333 332 330 328 326 328 328 328 326 326 324 325 325 325 326 326 326 326 326 326 326

GFSSGP_850_thetae_045.txt.gz
Theta_e
317 319 312 321 322 325 323 321 324 330 332 332 332 337 336 335 334 338 329 327 327 326 325 323 322 320 321 320 319 319 318 318 317 316 317 317 317 316 315 315 315 315 316 316 316 315 314 314 313
321 319 315 323 322 322 321 323 328 325 332 331 332 330 336 339 334 332 328 327 327 326 325 325 323 322 322 321 320 319 319 318 318 318 318 318 318 318 318 317 316 316 316 317 317 318 319 321 322
323 313 321 326 321 320 321 325 325 330 329 329 332 332 333 335 336 329 328 327 327 326 325 325 324 323 323 323 322 320 319 318 318 318 318 318 318 319 319 319 318 317 317 318 318 319 320 322 325
319 318 322 326 325 322 322 329 329 328 329 330 331 332 332 334 335 329 327 327 327 326 325 325 324 324 324 324 322 321 320 319 318 319 318 318 319 320 320 321 321 320 318 318 319 319 320 322 327
317 322 321 324 322 325 327 326 327 327 328 329 335 335 333 334 334 329 327 327 327 326 325 325 324 324 324 325 323 322 321 319 319 319 319 319 319 320 320 321 321 321 321 319 320 320 320 321 322
320 323 324 320 321 322 324 325 325 326 326 330 335 332 334 334 331 328 327 327 327 326 325 326 324 324 324 324 322 321 320 320 320 319 319 319 319 320 320 321 321 321 322 321 321 320 321 323 324
320 324 322 322 321 321 321 323 324 326 329 332 334 333 333 334 331 329 328 327 327 326 326 326 325 325 324 323 322 321 319 320 319 319 318 319 319 320 320 320 321 321 321 322 322 321 322 323 325
319 324 320 321 320 321 325 325 326 327 330 329 330 334 333 332 334 331 331 329 329 329 328 326 325 325 325 325 324 322 321 319 319 319 318 318 318 319 320 320 321 321 321 322 323 322 324 324 325
322 321 321 321 322 321 323 324 325 325 326 327 328 330 329 331 334 335 332 331 331 332 332 330 328 327 327 325 324 323 321 321 320 318 318 318 318 318 319 320 320 321 321 322 323 324 325 326 325
326 325 323 321 321 323 322 324 325 326 326 327 328 328 328 328 333 335 334 332 332 332 332 331 331 331 330 328 326 324 322 322 321 320 318 318 318 318 318 319 320 320 321 322 323 326 327 328 328
327 329 325 322 320 322 322 323 324 324 326 326 326 327 327 328 328 329 329 333 333 332 332 332 331 332 332 332 331 329 326 324 322 321 320 317 317 317 318 318 319 320 320 322 323 326 328 331 330
323 324 326 327 324 324 323 323 324 325 325 325 326 327 328 326 326 327 329 329 329 328 329 331 333 333 332 333 333 333 331 330 327 323 321 319 318 317 317 318 318 319 319 320 322 324 328 329 330
322 322 323 324 327 328 329 330 330 329 329 329 329 329 328 327 326 325 327 328 328 327 327 328 328 331 330 329 329 330 332 333 333 329 325 322 320 319 316 317 317 318 318 319 321 322 331 331 330
320 322 322 323 326 328 328 327 328 328 327 327 326 326 326 326 326 326 325 326 327 327 326 327 327 326 326 326 327 327 328 330 332 332 331 327 322 320 319 317 316 317 318 319 319 321 330 333 331
315 318 318 322 324 326 325 327 328 326 325 325 325 325 325 326 325 325 325 325 326 326 326 326 325 325 325 325 326 327 327 328 328 330 332 333 329 325 322 321 318 317 318 319 319 321 325 334 332
314 316 318 319 317 319 322 326 326 325 324 324 324 325 325 326 325 325 325 326 326 325 325 325 325 325 325 325 326 326 327 327 328 329 331 332 333 332 329 330 325 319 318 320 319 320 325 334 331
315 316 317 318 319 318 320 323 323 322 323 325 325 325 325 324 324 324 324 324 324 324 324 325 324 325 325 326 326 326 326 327 328 329 330 331 333 334 334 335 332 325 321 319 320 322 332 332 331
314 315 316 318 318 318 319 321 322 321 321 322 323 323 323 323 323 323 322 322 322 322 323 324 324 324 325 325 326 326 327 327 328 329 330 332 334 335 336 337 334 328 324 323 324 332 332 331 332
314 315 316 316 318 319 319 321 321 320 320 320 321 321 321 322 322 321 320 321 321 322 324 323 323 324 323 325 326 326 327 327 328 329 331 333 335 336 339 336 332 334 334 330 335 331 329 330 330
312 313 314 314 315 316 319 320 319 318 319 319 320 321 321 321 321 320 321 321 321 322 322 323 323 323 323 324 327 327 327 328 329 331 333 335 337 339 338 337 338 336 335 335 333 331 330 329 328
312 313 314 314 315 316 316 318 318 319 318 318 318 318 318 318 318 319 319 320 320 321 322 322 322 323 322 324 327 327 328 329 330 331 333 336 340 339 340 340 336 335 334 333 332 332 330 329 328
311 311 312 313 315 317 316 318 318 319 319 318 317 317 317 317 317 317 319 319 319 320 321 321 320 321 322 324 327 328 328 329 329 331 335 340 340 341 341 337 335 332 332 332 332 331 331 329 328
309 310 310 311 312 313 315 315 316 317 317 318 318 317 316 317 316 316 316 316 316 317 318 318 319 321 324 326 327 328 329 331 334 337 340 341 341 341 339 333 331 331 331 332 333 331 330 327 327
309 309 311 311 312 313 313 314 316 316 317 317 317 316 315 316 315 315 315 315 316 317 318 320 320 321 326 329 329 331 332 335 338 340 341 340 339 337 339 332 332 332 331 332 332 329 326 325 325
307 309 310 310 312 313 312 312 315 315 316 316 316 316 316 317 317 316 317 317 317 317 319 319 321 324 329 331 334 336 337 338 340 340 340 339 337 333 333 332 332 332 332 333 329 325 323 324 325
307 308 310 309 311 311 311 312 313 315 315 315 315 316 317 319 320 320 321 319 317 318 319 320 323 328 333 337 338 339 341 341 340 340 339 335 331 330 331 332 333 333 333 329 325 324 325 325 324
307 307 309 309 310 311 312 312 313 314 315 315 316 316 318 319 322 327 326 321 318 319 321 324 329 335 338 339 340 341 341 340 338 332 330 331 332 332 331 331 332 331 327 326 324 323 323 323 324
308 309 307 308 310 310 312 312 313 315 315 316 317 316 316 318 324 331 328 324 323 326 328 334 337 338 340 341 340 340 338 334 331 331 331 331 331 330 330 330 327 327 325 323 323 324 325 325 325
309 309 309 309 309 311 312 314 316 316 316 317 316 316 316 317 326 333 332 333 333 332 338 340 340 340 341 339 337 333 332 331 331 331 331 331 329 328 326 326 326 325 323 325 325 325 325 326 326
310 310 310 311 310 310 310 312 314 315 315 316 316 315 317 318 327 333 333 339 337 339 340 340 340 340 338 335 334 333 332 331 331 331 328 328 327 324 325 325 325 325 325 325 326 326 326 326 326

GFSSGP_850_thetae_048.txt.gz
Theta_e
314 320 317 321 327 324 325 325 327 335 336 335 335 337 337 338 339 341 334 331 328 327 326 324 323 321 319 317 318 318 318 318 318 317 316 316 315 315 316 316 316 315 315 316 316 316 315 314 313
321 323 319 323 324 325 325 326 328 332 336 333 334 336 337 339 337 336 331 327 327 327 326 324 323 322 320 319 318 319 319 319 319 319 318 317 317 317 317 317 317 316 316 317 317 318 319 320 322
326 320 322 323 324 324 325 325 328 332 333 333 334 334 337 339 338 335 330 327 327 326 326 325 324 323 322 320 319 319 319 319 319 319 319 318 318 317 318 319 318 318 317 318 318 318 319 321 323
322 321 321 325 324 324 325 331 329 334 332 332 334 335 334 335 338 336 328 327 327 326 326 325 324 324 323 321 319 320 319 319 319 319 319 318 318 318 319 320 320 319 318 318 319 319 319 321 324
322 322 322 323 323 325 326 325 327 332 330 332 334 337 335 335 336 336 327 327 327 327 326 325 325 324 322 320 319 319 319 319 319 319 318 318 318 319 320 320 321 320 320 320 319 319 320 321 322
321 323 323 323 324 324 325 325 326 329 329 331 335 337 335 338 338 336 327 327 332 327 326 325 324 323 323 321 320 319 319 319 319 318 318 318 318 318 319 320 321 321 321 321 321 320 320 322 323
325 323 322 322 323 323 324 324 325 327 328 333 337 338 336 337 338 335 331 327 327 327 326 325 325 324 323 322 322 320 318 319 319 318 318 317 318 318 319 320 320 321 321 322 322 321 321 322 323
323 325 325 323 322 322 322 324 323 325 330 333 335 337 337 336 340 338 336 331 327 327 326 325 325 325 323 322 322 321 320 318 318 318 318 317 317 317 318 319 320 321 321 321 322 323 322 323 322
324 326 327 325 323 323 322 324 324 325 329 331 332 334 333 334 339 337 336 335 335 335 328 327 326 325 324 323 323 322 321 320 317 317 318 317 316 316 317 318 320 320 321 321 322 323 324 324 324
328 328 328 326 325 323 322 323 325 327 327 331 331 331 330 334 339 337 336 336 335 336 336 330 329 328 326 325 324 326 323 322 320 319 318 317 316 321 322 321 319 320 320 321 321 323 324 325 336
327 330 328 328 325 323 322 323 324 326 329 332 331 332 330 330 332 335 336 337 337 337 338 340 333 333 331 329 329 329 328 326 324 322 320 318 319 327 327 330 320 319 320 320 321 322 324 337 337
326 327 327 328 327 324 324 323 324 324 325 328 329 328 329 330 331 332 332 332 333 334 336 338 335 330 332 334 333 333 332 332 331 329 324 320 321 324 330 332 332 324 329 321 331 334 336 338 337
324 325 326 326 327 328 327 326 327 327 326 326 327 328 329 330 331 331 330 330 331 332 332 333 330 327 328 330 332 331 330 331 334 336 335 330 333 331 333 332 331 332 332 331 333 333 336 337 337
321 322 323 324 325 326 327 328 328 328 329 329 330 330 329 329 329 329 330 330 329 330 331 332 327 327 326 326 326 326 326 328 331 339 339 336 335 333 333 333 333 331 332 331 334 332 335 336 335
316 319 321 324 325 325 326 328 329 327 327 328 329 329 328 328 328 329 329 329 330 329 330 327 327 326 325 325 325 325 325 326 327 333 337 338 337 335 333 335 334 332 331 332 331 332 334 333 336
316 318 319 321 323 324 325 329 329 327 327 328 328 328 328 328 328 328 329 329 330 331 329 326 326 326 325 325 324 325 325 326 327 332 338 335 336 337 336 336 335 333 332 332 331 330 331 330 334
317 318 319 320 321 322 323 327 327 326 326 328 327 327 327 327 328 328 329 329 329 327 324 324 325 325 325 324 324 325 325 326 328 330 337 336 335 337 338 337 336 335 334 332 330 330 329 330 333
316 318 318 319 321 321 322 323 324 325 324 326 326 326 326 327 327 327 327 327 327 327 322 322 323 323 324 323 324 324 326 327 330 334 338 336 336 336 335 339 339 336 335 332 331 329 329 333 335
314 316 318 318 319 320 322 323 323 323 323 325 325 325 325 325 325 325 325 325 326 326 320 321 321 323 323 323 323 324 330 337 339 340 338 334 336 337 335 340 337 336 333 330 329 331 328 335 334
312 315 317 318 318 320 320 322 323 323 324 323 324 324 324 324 324 325 325 325 326 326 321 321 321 322 323 322 322 331 338 341 342 341 336 335 338 337 337 340 337 335 336 334 332 332 337 335 332
311 312 315 317 317 319 320 321 322 322 323 322 322 322 322 322 322 323 323 323 324 325 325 321 320 321 321 320 321 325 335 332 332 337 341 338 338 338 339 338 339 335 336 336 335 335 335 335 333
310 311 312 314 317 319 320 321 321 322 322 322 321 321 321 322 322 322 322 322 322 324 324 326 320 320 320 319 323 327 338 339 341 343 343 335 338 340 339 339 336 334 338 338 334 335 332 333 332
310 310 312 314 316 317 317 319 320 321 321 322 323 321 321 321 320 320 320 320 321 322 323 324 319 318 319 319 326 329 339 344 343 344 339 340 340 340 340 339 335 337 337 336 336 333 332 332 332
310 310 311 313 315 318 318 319 319 320 321 321 322 320 320 319 320 320 320 320 320 320 321 323 319 318 319 322 326 329 342 344 344 345 345 343 342 341 341 339 338 336 337 335 333 333 332 329 330
309 311 312 312 314 316 316 317 318 319 319 320 319 319 319 320 321 322 322 322 322 322 323 325 321 320 321 326 329 330 335 339 341 343 346 345 345 343 341 337 332 336 335 333 333 333 332 326 330
309 310 312 312 313 313 315 316 318 318 318 318 318 319 319 322 323 326 329 328 326 323 325 331 335 336 331 336 335 339 338 346 346 346 345 343 342 342 338 335 336 336 334 334 333 332 330 331 329
313 310 311 311 313 313 314 315 316 317 317 319 319 318 320 320 322 328 334 332 332 325 330 334 340 343 344 344 342 341 345 345 344 343 341 340 337 337 335 337 335 334 333 332 331 330 331 330 329
313 311 310 310 312 313 314 316 316 318 316 318 320 320 320 321 325 331 336 336 336 335 336 339 343 344 345 345 344 344 344 343 340 337 338 337 337 337 336 336 334 333 333 331 328 330 330 330 331
310 310 310 311 310 312 314 315 317 317 318 320 320 319 319 320 322 332 336 336 338 339 341 343 344 344 344 344 344 343 341 338 336 337 337 335 333 334 335 335 334 332 332 330 330 331 331 331 329
311 312 312 312 313 313 314 317 318 321 320 319 318 318 318 318 318 330 336 336 341 342 343 344 344 344 343 343 341 339 338 338 337 337 337 333 335 334 334 332 331 331 330 332 331 331 330 331 327

GFSSGP_850_thetae_051.txt.gz
Theta_e
313 324 325 322 328 327 328 328 329 331 331 333 335 335 337 338 340 343 343 337 336 337 327 326 325 323 321 319 318 318 319 318 318 318 317 317 316 316 315 314 314 314 315 316 316 317 317 318 317
315 322 324 324 326 328 328 328 328 331 336 336 336 337 339 339 339 338 341 337 337 333 327 326 325 323 321 320 319 318 319 319 318 317 317 317 316 316 316 315 315 315 316 317 317 318 319 320 322
325 324 321 325 327 327 328 329 329 331 336 336 336 336 338 339 339 337 336 336 334 327 327 326 325 323 321 319 319 318 318 319 318 318 317 317 317 317 317 316 316 316 317 318 318 318 319 320 322
326 322 321 326 326 327 327 329 329 333 335 335 336 338 336 339 340 338 329 329 333 334 326 326 325 323 321 319 318 318 319 318 318 318 318 318 318 318 318 317 317 318 318 318 318 318 318 319 321
325 323 324 324 325 327 328 328 331 334 337 336 336 338 337 336 338 339 329 335 338 338 339 327 325 324 323 320 318 319 319 318 318 318 318 318 318 318 318 318 318 319 320 319 319 319 319 319 320
325 323 324 324 324 326 327 327 327 330 335 335 336 337 338 338 339 339 334 336 336 338 340 329 325 324 323 321 319 318 318 318 318 318 318 318 317 317 317 318 319 320 321 321 320 320 320 320 321
328 327 325 324 324 326 327 326 328 330 333 334 334 338 338 338 338 339 334 335 336 338 339 333 326 324 323 322 321 319 318 318 318 318 317 317 317 317 317 318 319 320 321 321 322 322 321 321 321
328 330 329 327 325 325 325 325 325 328 331 331 335 339 339 338 339 338 335 335 336 337 338 341 328 325 323 323 322 321 319 318 318 318 317 317 317 317 317 318 319 320 321 321 322 322 322 322 322
327 330 330 329 328 327 325 325 324 325 327 329 335 337 337 338 340 338 335 336 336 336 337 340 342 331 325 323 323 322 321 320 318 317 317 317 316 316 316 317 318 319 320 321 321 322 323 323 324
328 331 330 329 328 328 326 325 325 326 328 329 334 334 334 337 339 337 336 336 336 336 337 339 341 342 339 336 334 327 324 321 320 319 317 316 316 317 319 319 317 318 320 320 321 321 324 324 330
328 332 330 329 328 328 326 325 325 326 328 330 333 334 334 334 337 336 335 336 336 336 336 339 342 343 343 341 338 336 332 329 326 322 320 319 318 321 330 332 329 321 319 320 320 321 323 335 330
326 327 328 329 329 329 329 325 325 326 326 328 331 334 334 333 335 337 338 337 338 338 337 339 343 341 335 340 342 340 342 343 341 338 334 327 327 328 330 333 334 334 330 322 332 334 335 337 339
323 325 326 326 327 328 329 328 328 327 326 326 327 332 332 331 333 334 335 335 335 335 336 336 338 342 333 328 338 342 341 343 343 344 343 340 338 336 334 334 335 335 335 334 333 334 336 338 338
320 322 323 324 326 327 329 329 329 329 328 327 326 327 329 331 332 333 333 334 334 333 334 335 335 337 331 327 327 330 332 341 343 343 344 342 341 339 338 336 337 334 335 335 335 335 336 337 337
318 319 321 322 324 326 327 328 329 328 328 329 329 329 330 332 333 332 331 332 333 333 333 333 335 336 331 327 325 325 326 336 337 342 342 342 341 342 339 339 339 337 334 334 334 334 336 335 337
318 320 320 321 322 323 325 328 328 327 328 328 329 329 329 331 331 331 330 331 332 332 332 332 335 334 332 329 327 326 326 327 338 342 342 343 343 342 341 340 340 338 337 334 334 335 334 336 334
314 319 320 320 321 322 323 326 327 327 327 329 329 329 329 329 330 330 330 330 331 332 334 335 333 333 333 334 332 326 325 325 337 341 343 343 345 345 343 341 340 339 338 336 336 335 334 333 332
313 315 317 320 321 321 322 323 324 324 326 328 328 329 329 329 329 329 330 330 331 332 331 333 327 325 325 325 324 324 326 328 340 342 343 343 345 345 343 343 342 340 339 338 337 335 334 333 331
314 314 315 318 319 320 321 323 323 324 324 326 327 328 329 329 329 329 330 329 329 329 329 329 327 321 322 323 327 329 335 339 342 343 343 345 346 344 343 343 342 342 341 340 336 335 333 333 336
313 314 314 315 317 320 321 322 322 324 325 324 325 326 327 328 328 329 328 328 327 327 328 328 326 324 323 332 324 331 335 340 344 345 344 346 345 344 342 342 344 343 343 340 337 335 335 335 338
313 312 313 315 316 318 321 321 322 323 323 324 324 324 325 326 326 327 327 327 327 327 327 328 329 326 325 322 328 327 332 343 344 346 347 346 344 344 342 341 344 342 341 341 338 338 337 338 338
312 313 312 313 314 316 319 322 322 323 324 324 324 324 324 325 325 325 324 325 325 326 326 326 328 328 326 321 324 334 340 344 346 346 347 346 346 344 339 342 343 341 342 341 339 340 340 337 336
313 313 313 313 313 314 315 320 321 323 323 324 325 323 323 323 323 323 324 324 324 324 324 324 326 329 326 326 322 336 340 345 346 346 348 346 342 339 341 345 344 339 340 341 339 339 337 337 335
313 313 313 312 313 315 315 318 320 321 323 323 324 323 323 323 323 323 323 322 322 323 323 324 325 327 327 324 319 326 341 346 347 348 347 346 347 344 345 345 341 340 341 340 339 337 335 334 334
314 315 314 312 314 314 315 318 319 320 321 322 322 322 323 322 322 322 323 323 323 324 324 323 324 327 328 332 326 332 341 348 346 348 348 344 346 345 346 342 342 342 340 340 337 333 334 334 333
313 314 313 312 314 314 314 315 318 320 321 320 321 320 321 322 323 325 326 328 328 328 326 325 325 329 340 345 345 347 349 349 349 348 349 347 345 346 343 343 342 341 338 338 336 334 333 333 332
315 315 314 312 312 314 316 317 317 320 320 320 321 320 321 322 323 324 327 332 333 331 327 327 332 341 346 346 348 349 349 349 348 349 346 347 345 345 342 342 340 338 337 338 334 334 333 332 332
315 315 316 313 314 314 315 316 318 318 319 320 321 322 322 323 323 326 332 336 338 335 328 331 336 343 346 348 349 349 351 350 349 347 345 342 341 341 341 339 338 337 337 334 334 333 333 330 331
313 315 314 316 314 315 316 316 317 319 319 320 322 322 321 321 321 324 337 338 339 339 336 337 342 346 347 348 348 348 348 347 346 344 342 341 340 339 336 336 337 336 336 334 333 333 332 331 330
314 315 313 315 313 314 314 315 317 319 321 322 322 321 320 320 320 323 338 338 343 340 341 343 345 346 346 346 347 347 346 344 342 341 340 339 338 336 334 335 336 334 333 333 332 331 331 332 333

GFSSGP_850_thetae_054.txt.gz
Theta_e
314 320 327 326 325 327 327 327 328 329 329 330 331 333 334 335 342 347 339 337 336 326 326 326 326 324 321 321 321 320 319 318 318 318 318 317 317 317 316 316 316 316 316 316 317 317 318 319 320
314 322 325 324 325 327 328 328 329 329 332 332 333 335 337 339 341 342 338 337 333 327 326 326 326 325 323 320 321 321 320 319 318 318 318 318 317 317 317 317 317 317 317 317 317 318 319 320 321
318 322 324 324 325 327 327 329 329 330 334 336 336 336 337 339 340 341 337 337 333 327 327 327 326 325 324 322 320 320 320 319 318 318 318 318 317 317 317 317 317 318 318 318 318 318 318 319 321
328 327 324 323 325 326 327 329 329 330 331 337 336 337 337 340 341 339 337 337 329 328 328 327 326 325 324 323 321 319 319 319 319 318 318 317 318 317 317 318 318 318 319 319 319 318 318 319 319
328 326 324 323 324 326 328 329 328 330 333 334 335 337 337 339 340 336 336 334 328 328 328 327 326 325 324 323 321 320 318 318 318 318 318 318 318 318 318 319 320 320 320 320 320 319 319 319 319
326 324 325 325 325 325 326 327 327 329 331 336 336 336 338 338 340 337 330 331 332 332 328 327 326 325 324 323 321 321 319 319 318 318 318 318 318 318 318 318 319 320 321 321 321 321 320 320 320
329 328 325 324 324 325 326 326 326 328 330 332 335 336 336 339 338 339 334 336 338 340 330 327 326 326 324 323 321 320 320 319 318 318 318 318 318 317 317 318 318 320 321 321 321 321 321 321 321
329 331 331 328 328 327 326 326 326 326 327 329 334 334 337 339 339 339 334 337 338 340 333 329 328 327 325 324 323 321 320 319 318 318 318 318 317 317 317 317 317 319 320 321 321 321 322 322 322
324 329 332 330 329 329 328 327 326 325 325 326 329 333 339 340 339 339 335 335 337 339 339 335 330 327 326 324 324 323 321 320 317 317 317 317 317 317 317 317 317 318 319 320 321 321 322 322 322
323 328 329 329 329 329 328 328 327 326 326 326 328 333 335 338 340 339 337 335 337 337 339 340 338 332 328 325 324 323 321 321 320 320 318 317 317 316 316 316 316 317 318 319 320 321 322 322 322
323 327 328 328 329 329 329 328 327 326 327 326 329 331 335 335 338 339 337 336 336 337 337 339 341 340 339 336 332 333 331 329 325 322 321 320 317 316 316 317 319 318 317 318 319 320 321 321 322
321 324 326 327 328 329 330 330 330 328 326 326 327 330 334 335 336 338 338 336 337 337 337 339 340 340 339 339 342 339 338 335 334 334 333 329 326 321 318 319 326 327 328 322 319 320 320 321 322
319 320 322 324 326 328 328 329 330 330 327 326 326 327 331 335 334 336 337 337 337 337 337 338 338 341 342 341 342 343 341 339 335 337 335 336 338 336 332 327 331 332 333 334 331 322 326 333 334
318 319 320 321 323 325 327 328 328 329 329 329 328 327 328 334 334 334 335 336 336 336 336 337 340 337 338 338 332 335 343 341 342 343 340 336 338 341 340 336 333 334 336 336 335 334 331 336 336
317 319 320 321 321 323 324 326 328 329 329 329 330 329 328 328 333 333 334 335 335 335 334 334 335 337 336 335 333 327 330 333 337 345 344 343 342 343 343 340 337 336 335 338 336 336 335 335 338
314 317 319 320 320 321 322 324 326 325 328 329 329 330 330 329 328 330 333 334 333 333 334 334 333 334 336 335 334 327 326 329 331 339 342 345 343 342 343 341 339 339 338 335 336 336 336 336 336
314 313 315 317 320 320 321 322 325 325 326 328 329 329 329 330 330 331 331 333 332 332 331 332 333 334 337 336 333 332 329 328 327 330 336 341 343 342 343 343 341 340 340 338 335 335 335 336 335
314 314 314 314 316 318 321 322 323 323 323 326 328 330 329 329 330 330 332 332 331 333 333 333 333 333 334 338 336 335 332 327 325 325 332 340 342 344 344 344 343 341 340 339 338 336 335 336 335
316 315 316 316 316 316 318 321 323 324 324 324 325 327 329 330 331 329 329 330 331 330 331 332 332 331 332 332 326 324 324 325 325 327 335 341 343 344 344 344 343 342 340 339 339 337 336 336 334
315 315 314 314 315 316 317 317 320 323 324 324 325 325 326 328 330 330 332 331 331 330 329 329 329 328 328 326 322 323 330 334 333 337 341 343 343 344 344 343 342 343 342 341 340 339 337 335 334
314 314 314 314 314 314 315 317 319 320 323 323 323 325 325 326 327 330 330 330 331 329 328 328 328 327 328 325 323 328 328 331 341 343 344 345 344 344 345 343 342 344 341 341 341 339 336 336 334
313 313 313 313 313 313 314 316 320 320 322 324 323 324 326 326 325 327 328 329 329 329 329 330 329 327 327 325 326 329 329 326 327 343 345 346 345 345 345 343 344 345 342 343 340 337 336 336 338
313 313 313 313 314 314 314 314 315 318 321 324 325 323 325 324 325 325 326 326 326 326 326 325 325 327 326 326 328 327 335 337 341 345 347 348 347 345 344 341 344 343 341 344 342 338 337 339 336
314 313 313 313 315 315 314 314 315 316 319 321 325 324 324 324 324 325 325 325 325 324 324 324 327 326 325 327 330 330 329 330 344 346 346 348 347 346 345 341 342 343 341 343 341 338 338 336 334
313 315 318 316 316 317 314 314 315 317 318 319 322 324 324 324 325 325 325 326 325 325 325 324 324 325 326 327 334 329 325 339 347 347 347 348 347 344 342 342 342 343 339 342 338 338 337 333 332
313 312 313 314 315 314 313 315 317 318 318 317 320 322 322 322 323 324 323 323 324 325 324 324 324 326 326 330 331 327 325 339 351 348 348 347 341 343 342 342 344 342 340 341 338 335 332 331 331
313 313 314 316 316 316 315 313 315 317 318 320 321 321 322 322 323 324 325 325 326 329 332 329 327 326 325 328 330 340 336 342 351 349 347 347 343 343 343 344 343 341 338 337 335 333 332 332 331
315 315 317 317 317 317 313 312 313 317 318 319 321 322 321 322 324 324 325 327 334 335 334 331 327 328 328 338 345 346 349 350 349 347 350 348 344 345 344 343 340 339 338 336 333 332 333 332 330
313 315 314 315 318 318 315 312 317 318 321 320 323 322 322 323 323 323 325 334 337 340 339 329 328 337 346 347 347 349 347 350 351 351 347 347 346 345 339 340 339 337 334 334 332 333 333 331 330
314 313 316 319 317 316 315 317 317 317 319 318 319 322 323 322 321 321 333 339 339 338 339 334 335 345 346 348 349 349 352 348 350 347 344 342 342 340 338 338 334 333 334 333 332 330 332 330 329

GFSSGP_850_thetae_057.txt.gz
Theta_e
316 314 324 326 319 319 321 322 323 323 323 328 334 333 335 339 343 342 339 337 328 326 326 324 324 324 323 323 322 322 321 320 320 320 319 319 319 318 319 318 318 318 317 317 318 318 319 319 320
315 317 323 325 318 319 321 324 323 324 326 331 334 334 335 342 340 338 338 339 326 326 326 326 324 324 324 323 323 322 321 320 320 320 319 319 319 319 318 318 318 318 318 318 318 318 319 319 320
314 321 323 320 318 321 321 323 323 325 327 335 335 335 336 341 339 336 337 336 326 326 326 327 326 324 323 323 323 323 321 321 320 320 320 319 319 319 319 319 319 319 319 319 319 319 319 319 319
327 328 327 319 318 319 322 323 324 325 331 336 336 335 339 341 339 338 338 334 326 326 327 327 327 326 324 322 323 323 322 322 321 321 320 320 319 319 319 319 319 320 320 320 320 320 320 319 319
328 327 321 318 317 320 322 324 325 323 325 336 336 335 340 340 340 336 336 333 327 326 327 327 327 326 325 324 322 322 322 322 322 321 320 319 319 319 319 319 320 320 321 321 321 321 321 320 320
328 325 321 320 321 322 322 324 324 323 324 331 334 335 337 339 339 337 336 333 327 327 327 327 327 326 326 325 324 322 321 320 320 320 320 319 319 318 319 319 319 320 321 321 321 321 321 321 320
327 325 323 321 322 323 323 324 322 322 323 325 331 334 338 339 338 336 335 331 327 328 328 328 327 327 326 325 324 323 322 321 320 320 319 319 319 318 318 318 318 319 320 321 321 321 321 321 321
321 328 330 330 329 326 325 327 327 325 324 325 326 331 336 338 339 335 333 330 327 328 328 328 328 328 326 325 324 324 323 322 321 320 319 319 319 318 318 317 317 318 319 320 320 321 321 321 321
322 322 329 330 329 329 328 326 328 327 326 326 325 336 339 340 339 335 337 339 338 336 328 328 328 327 327 326 326 325 324 322 320 320 319 318 318 318 317 317 317 317 317 318 319 320 321 321 322
320 320 322 326 327 328 327 327 327 327 325 325 325 330 335 339 337 335 336 340 339 338 337 329 328 328 328 326 326 325 325 324 323 322 321 320 318 318 317 317 316 316 316 317 318 319 320 321 321
319 321 321 323 325 327 327 328 328 328 324 326 326 326 334 335 339 338 335 337 339 338 335 330 330 330 328 327 326 325 325 324 323 322 322 321 319 318 318 317 316 316 316 316 317 318 319 320 321
315 317 321 322 323 324 325 327 328 328 329 328 327 326 326 327 335 339 339 336 338 337 337 336 333 332 333 331 330 329 328 330 331 331 330 328 323 321 319 319 318 317 318 318 318 317 318 319 320
314 315 317 319 322 323 324 325 326 328 328 328 329 328 327 327 334 337 338 338 336 338 339 338 338 338 338 337 335 333 333 332 332 332 333 335 335 334 332 330 326 326 322 324 328 330 326 320 320
313 314 316 318 318 320 322 323 324 326 327 327 329 329 329 329 331 334 334 336 336 337 340 340 340 339 340 341 341 338 330 328 329 332 331 332 334 336 339 339 337 335 331 330 332 334 334 330 324
312 312 313 316 317 317 319 320 321 323 325 327 328 328 328 329 330 331 333 334 335 336 336 337 338 338 337 342 341 337 330 328 329 331 328 328 331 336 339 341 342 340 335 334 334 337 335 334 333
311 311 311 315 317 318 318 317 319 321 323 324 328 328 328 329 329 330 333 333 336 335 334 334 335 341 341 343 338 337 335 329 332 337 336 333 334 338 341 342 343 342 339 335 335 338 336 335 335
310 310 310 312 313 314 316 318 318 319 321 323 323 324 329 328 328 329 329 332 333 335 334 334 333 337 339 339 337 335 333 329 326 330 334 343 344 344 343 343 343 343 341 338 337 337 338 337 337
311 310 311 311 312 312 312 313 316 319 320 320 323 325 327 328 328 327 328 329 330 331 333 332 333 333 333 333 336 335 334 332 331 330 328 335 343 344 341 343 344 343 342 340 339 338 336 337 336
314 314 314 314 314 312 312 313 314 315 315 318 320 321 322 328 328 327 328 328 329 331 332 332 332 332 332 332 332 332 331 330 331 328 328 328 333 340 340 343 345 344 343 341 341 339 337 336 335
311 312 313 313 314 313 312 312 313 313 314 316 317 320 321 321 328 329 330 330 329 329 333 332 331 332 332 332 330 329 329 331 325 323 326 328 336 338 342 344 344 343 343 342 341 340 339 337 336
310 310 311 312 312 312 312 312 312 313 314 315 317 318 321 321 322 326 326 328 329 330 331 332 332 331 330 329 328 328 326 325 322 326 336 337 340 342 342 343 344 344 343 342 341 340 339 338 337
312 312 312 312 311 310 312 312 311 312 313 314 316 318 320 321 323 324 324 325 327 331 332 331 330 329 329 328 327 327 326 323 321 325 337 342 342 343 344 343 343 343 341 343 341 340 340 340 338
313 313 312 312 312 311 311 311 312 312 313 313 313 315 316 321 321 323 323 324 326 331 331 330 329 329 329 328 327 326 325 324 322 331 332 345 344 344 344 344 344 341 343 343 342 341 340 340 336
313 311 312 312 311 312 311 311 312 312 312 313 313 315 315 317 321 321 325 324 324 325 327 328 326 326 326 325 324 325 324 325 329 334 340 344 345 346 347 344 343 342 343 342 342 342 339 337 335
310 310 311 313 312 312 312 313 313 313 312 313 314 315 315 316 317 320 323 324 325 326 326 325 324 324 324 323 324 325 325 327 328 336 346 346 346 347 346 342 343 342 342 341 343 342 337 337 338
311 311 313 313 310 310 313 314 312 313 314 314 314 315 316 316 316 320 322 323 324 325 324 324 324 324 325 325 326 327 326 328 328 335 345 345 345 345 346 342 340 341 343 342 342 340 337 336 334
310 311 311 313 312 313 313 313 313 313 315 317 317 316 316 317 317 321 324 325 325 325 325 326 324 324 323 323 323 328 327 328 330 336 347 348 346 347 346 341 342 342 342 340 341 338 336 333 331
312 311 312 312 316 316 315 314 315 317 317 315 314 314 315 317 320 324 324 324 325 326 327 328 331 330 325 324 326 328 328 333 328 335 347 348 347 341 339 342 343 343 341 340 337 335 332 331 331
313 313 313 315 314 315 315 314 316 316 315 315 314 314 316 318 320 323 323 326 331 334 334 331 334 331 327 326 328 330 334 334 341 352 351 347 346 341 343 343 344 342 340 338 336 332 331 332 330
311 314 314 316 315 317 318 316 315 313 314 314 313 314 317 319 320 320 320 325 332 330 329 333 337 329 327 328 330 338 342 343 351 350 347 348 345 343 343 344 342 339 338 335 332 331 333 332 330

GFSSGP_850_thetae_060.txt.gz
Theta_e
317 313 322 326 319 315 318 320 321 322 322 324 325 332 334 339 339 340 340 332 326 326 324 323 322 323 323 323 323 323 323 322 322 321 321 320 320 320 320 320 320 319 319 319 319 319 319 319 320
315 316 323 324 317 317 317 319 322 321 323 325 325 329 338 341 339 340 339 338 327 326 325 324 323 324 324 324 323 323 323 322 322 321 321 320 320 320 320 319 319 319 319 319 319 319 319 319 320
315 319 322 319 316 317 318 320 322 322 323 324 326 333 340 340 339 339 337 337 326 326 325 324 323 325 325 325 324 324 324 323 322 321 321 320 320 320 320 319 319 320 320 320 320 319 319 319 320
327 328 326 320 319 318 319 320 320 321 323 325 325 335 341 338 338 337 338 333 326 327 325 323 323 325 326 325 325 324 324 323 323 322 321 321 321 321 320 320 320 320 320 320 320 320 320 320 320
328 326 323 318 318 318 319 320 320 319 321 323 325 335 340 337 337 336 336 329 326 327 325 322 323 324 326 326 325 325 324 324 323 322 322 321 321 320 319 319 320 320 320 321 321 321 320 321 320
329 325 321 320 322 322 320 322 321 321 322 323 324 332 339 337 337 336 332 328 327 328 326 324 323 324 326 325 324 324 324 324 323 322 322 321 320 320 319 319 319 319 320 321 321 321 321 321 320
327 322 321 321 322 323 323 324 323 321 321 323 325 330 337 339 337 336 335 327 326 327 326 325 325 325 325 325 324 323 323 322 322 321 321 320 320 319 319 318 318 318 319 320 321 321 321 321 321
321 324 328 325 327 328 328 328 326 326 325 325 325 336 337 339 340 338 334 326 326 326 327 326 326 326 325 325 325 324 323 322 321 321 320 320 320 319 319 319 318 318 318 319 320 320 321 321 321
321 318 327 330 330 329 328 327 328 327 328 328 325 335 339 339 340 340 336 327 326 326 327 327 326 326 325 325 325 324 324 323 322 322 321 321 321 320 319 319 318 317 317 317 318 319 320 320 321
318 317 320 325 327 327 327 326 326 327 327 327 327 330 337 337 338 340 337 332 326 326 326 327 326 326 325 325 325 325 326 326 325 324 323 323 322 321 319 319 318 317 316 316 316 317 318 320 320
315 318 320 321 322 323 323 324 325 325 326 327 327 327 326 331 337 339 336 332 328 327 327 327 327 327 326 326 326 326 327 327 326 325 324 323 322 321 321 320 318 317 316 316 316 316 317 318 319
312 314 317 320 320 321 321 322 323 324 325 325 326 328 327 326 327 329 336 332 334 335 333 328 328 327 327 327 327 327 327 327 327 326 325 325 325 324 322 321 319 318 317 316 315 315 315 316 317
311 313 314 315 316 319 321 322 323 322 323 324 325 326 327 329 327 328 335 337 338 338 338 336 330 328 328 328 327 327 326 327 327 329 332 332 332 332 331 330 328 326 323 320 319 320 321 324 324
311 311 312 313 314 315 316 318 320 320 321 322 323 325 326 327 329 329 332 336 336 338 339 338 335 331 332 330 332 333 333 332 332 332 330 332 330 333 335 336 337 337 337 334 330 328 329 332 334
311 310 310 312 313 314 316 317 317 319 319 320 321 323 325 327 327 328 328 332 337 338 338 339 338 338 338 338 339 340 341 337 331 328 328 329 330 329 333 338 340 341 340 340 336 333 333 335 335
310 310 309 312 312 314 316 316 317 318 318 318 319 321 323 324 327 328 327 328 333 335 336 338 339 340 340 339 338 339 339 335 333 331 328 329 327 329 330 339 337 343 342 342 338 336 334 337 336
308 309 310 311 311 311 312 313 314 315 317 318 319 319 321 322 323 325 327 328 328 333 335 336 338 340 339 337 337 339 336 335 335 334 331 328 326 327 330 337 335 345 344 343 341 337 336 337 337
310 309 309 311 312 312 311 311 312 313 314 314 314 315 318 320 321 323 324 326 328 328 334 335 336 335 335 336 336 335 335 335 335 333 329 329 327 328 332 337 340 343 345 343 341 338 337 337 336
311 311 310 311 312 312 311 311 312 312 313 312 313 313 314 315 318 323 325 326 326 327 327 332 335 334 335 335 334 334 335 334 335 332 331 332 333 333 334 340 340 342 344 344 342 340 338 338 337
309 308 308 310 311 311 310 311 312 312 311 312 313 313 314 315 316 318 320 322 324 327 327 328 333 333 333 333 331 332 331 331 331 332 333 332 328 329 334 333 334 342 344 344 343 341 340 339 338
310 310 311 312 312 310 310 310 310 311 311 312 313 313 313 314 315 316 319 321 322 327 328 329 332 333 333 332 332 332 334 335 333 330 331 327 325 326 332 335 339 343 345 345 344 342 341 339 339
311 312 312 312 311 310 310 311 310 310 311 311 312 312 313 313 314 315 315 317 321 328 328 328 330 335 334 333 333 332 332 329 328 327 327 326 323 333 337 339 342 343 345 344 344 343 341 340 339
312 312 310 311 311 310 311 309 310 310 311 311 311 312 312 313 313 313 314 315 320 323 324 323 326 331 334 333 333 331 329 328 327 326 324 324 324 335 342 342 343 344 344 344 342 342 341 339 339
311 310 309 309 309 311 309 310 310 310 310 311 312 312 313 314 314 314 315 315 317 320 324 324 326 332 333 331 329 328 328 328 326 324 324 326 326 327 343 344 344 344 345 342 342 342 341 340 340
308 309 308 309 310 311 310 309 309 310 311 312 313 315 315 315 316 316 315 315 315 318 322 326 328 330 329 329 328 328 327 325 325 325 325 325 331 340 345 344 345 345 342 341 342 341 341 340 337
309 308 309 314 311 310 311 311 310 310 312 315 314 314 313 313 315 317 317 316 316 317 321 326 327 329 329 329 326 324 324 324 324 327 325 325 335 342 345 346 346 340 341 341 341 341 340 339 336
308 310 308 311 310 312 311 311 310 315 315 315 314 313 313 313 314 318 319 316 318 319 320 324 325 326 325 324 324 324 325 325 325 328 326 327 337 345 346 346 344 340 340 341 341 339 339 337 337
310 310 310 309 313 314 313 312 312 316 315 314 312 312 313 313 314 319 320 319 323 323 322 323 325 324 324 325 324 324 325 324 326 329 327 328 336 346 346 346 344 338 341 341 341 340 339 336 335
309 310 311 310 311 310 316 314 312 314 314 313 311 312 313 313 316 319 319 318 328 328 325 325 326 327 327 328 326 324 323 324 329 331 330 329 333 348 346 344 340 341 341 340 339 338 335 333 331
309 311 311 309 311 315 315 313 312 313 312 312 312 313 314 316 318 319 317 316 330 335 335 334 331 328 329 329 330 328 326 328 335 335 331 331 344 347 341 339 342 342 340 340 338 336 333 331 330

GFSSGP_850_thetae_063.txt.gz
Theta_e
317 314 319 325 319 314 317 319 318 320 321 323 324 322 325 333 340 338 340 327 325 324 323 322 321 320 322 323 323 322 321 321 320 320 320 320 320 319 319 319 319 319 319 319 319 319 319 319 320
316 314 323 323 316 316 315 317 320 319 321 322 323 324 327 338 340 340 334 326 325 325 325 324 323 322 323 323 324 323 323 323 322 322 321 321 320 320 320 320 320 320 319 319 319 319 319 319 320
315 317 322 318 315 317 316 318 319 319 321 321 321 323 327 339 340 340 330 327 325 325 325 325 324 323 323 323 323 323 323 323 323 322 322 321 321 320 320 321 320 320 320 320 319 319 319 319 320
326 324 323 320 320 319 318 318 317 318 322 322 322 322 338 339 339 339 330 327 326 325 325 325 325 324 323 324 324 324 324 324 323 323 322 322 321 321 321 321 321 321 321 320 320 319 319 319 320
327 325 323 320 320 319 319 320 320 318 319 322 324 323 336 339 339 339 333 326 326 326 326 325 326 324 324 324 325 325 325 324 323 323 322 322 321 321 321 321 321 321 320 321 321 320 320 320 320
330 323 321 323 322 322 320 322 321 319 322 324 322 325 338 338 339 338 335 327 326 326 326 326 325 324 323 324 325 325 325 324 324 323 322 322 321 320 320 320 320 320 320 320 321 321 320 320 320
326 320 322 321 323 322 322 323 324 323 322 323 327 325 336 338 338 337 334 326 326 326 326 325 325 324 323 324 325 325 325 325 324 323 322 322 321 321 320 319 319 319 319 319 320 320 320 320 320
323 323 327 323 324 324 326 327 326 325 326 327 326 326 335 338 338 338 334 326 325 325 325 325 325 324 323 323 324 325 325 324 323 323 322 321 320 320 319 319 319 318 318 318 319 319 320 320 320
320 319 326 327 326 325 326 326 327 326 326 326 327 327 328 337 339 337 330 325 325 325 325 324 324 323 322 322 322 323 323 323 322 322 321 320 320 320 320 319 319 318 318 318 318 318 318 319 320
317 317 321 325 326 327 326 324 324 324 324 325 326 327 327 335 343 338 328 325 325 325 326 325 324 322 322 322 322 322 322 323 324 324 324 323 322 321 320 320 319 318 317 317 317 317 317 317 318
314 317 320 321 321 322 321 322 322 321 322 324 324 324 325 328 339 342 332 326 326 326 325 325 325 324 323 323 324 323 324 324 325 325 323 324 323 322 322 321 319 318 317 317 316 316 316 316 316
311 313 315 317 317 318 319 320 320 321 321 322 323 323 324 326 327 333 339 332 326 325 326 326 326 326 325 324 324 324 324 325 326 326 325 324 324 324 323 322 320 319 318 317 317 316 315 315 315
311 311 312 313 313 314 315 318 318 318 319 319 320 321 322 323 326 327 330 330 336 327 326 326 326 326 326 326 326 325 325 326 327 326 325 325 324 325 326 327 326 324 322 323 326 321 318 317 318
310 310 310 311 312 312 313 314 315 317 317 318 318 319 320 321 324 327 328 331 333 336 331 327 326 327 327 327 326 326 326 327 326 325 325 325 328 330 332 333 334 333 333 336 337 333 329 326 327
311 309 309 311 312 312 315 314 315 316 317 317 318 318 318 319 322 325 327 327 328 335 336 337 329 328 328 328 327 326 326 326 327 330 331 332 333 333 334 335 336 336 340 340 340 339 336 332 332
309 307 308 309 311 312 314 315 315 314 315 315 314 316 316 318 319 321 323 327 328 328 335 336 337 338 335 330 329 330 329 334 339 338 335 330 329 331 333 334 336 338 342 342 342 341 339 335 334
306 308 309 310 310 310 312 310 311 313 313 313 313 313 313 314 315 317 320 322 325 327 332 337 338 339 339 338 333 335 339 340 340 338 334 333 333 331 329 331 336 339 342 343 344 343 341 337 335
310 310 309 309 311 311 310 310 311 312 312 313 313 313 313 313 314 314 315 318 323 324 327 330 333 336 338 339 338 339 339 338 340 337 335 333 331 330 328 330 333 337 340 343 344 343 342 339 336
310 310 309 309 310 309 309 310 310 311 311 311 312 312 312 313 313 314 314 315 317 322 327 327 328 333 339 341 340 338 337 337 337 335 335 331 330 329 328 331 334 334 334 340 344 344 342 340 337
308 308 309 309 311 311 309 310 310 310 310 311 311 312 312 312 312 313 313 314 315 317 320 326 328 329 335 338 338 337 336 335 333 335 334 331 333 331 331 333 332 329 333 339 343 344 343 341 338
310 311 311 311 311 310 309 310 309 310 310 311 311 312 312 312 312 311 312 312 314 315 316 319 325 327 333 336 335 334 335 335 336 334 331 331 333 332 331 326 329 331 335 338 343 344 343 342 339
310 311 311 310 310 309 310 310 309 309 309 309 310 311 312 312 312 312 312 312 313 314 316 316 320 326 328 329 332 334 334 334 333 332 331 332 332 329 327 329 336 334 339 341 344 345 343 342 339
310 311 309 310 309 309 310 309 309 309 309 308 309 310 311 312 313 313 314 314 314 313 315 316 318 324 329 328 330 333 334 334 332 332 332 332 328 326 325 324 334 339 341 343 345 344 344 341 339
310 309 307 307 307 309 309 309 309 307 308 308 309 311 314 314 314 315 315 315 315 314 314 316 316 319 325 327 328 332 333 332 332 333 332 327 326 324 323 324 330 342 343 343 344 344 341 341 340
307 306 305 307 308 311 308 309 308 309 309 309 313 314 314 313 313 313 314 315 315 315 315 315 316 318 323 325 325 330 334 333 333 333 328 326 325 324 324 324 332 342 343 344 344 340 340 341 339
308 306 306 311 311 308 308 309 308 309 313 314 314 314 313 312 312 312 312 313 316 315 315 315 316 317 322 326 327 332 333 334 332 329 327 326 325 324 324 328 339 344 344 345 341 340 341 341 339
308 308 306 308 308 309 309 309 308 309 314 313 313 313 312 312 312 312 312 312 319 318 317 316 316 318 323 326 330 331 331 328 328 327 324 324 327 325 326 337 344 345 345 340 341 341 339 339 339
306 307 310 306 312 313 310 310 310 310 310 311 312 312 311 313 313 313 314 314 318 320 325 320 319 320 323 329 329 329 329 328 325 324 324 325 328 327 329 344 345 346 343 340 340 341 339 338 338
307 308 310 308 306 308 311 312 310 310 311 312 311 312 312 314 314 315 316 317 316 321 331 331 324 321 322 325 328 328 327 324 324 324 325 326 329 328 331 344 346 345 341 340 339 340 339 339 335
307 308 309 308 308 311 315 313 310 308 310 310 311 311 313 314 314 315 315 317 317 321 326 333 336 323 320 323 325 326 324 324 325 324 325 329 332 330 335 346 346 343 339 339 339 340 338 334 332

GFSSGP_850_thetae_066.txt.gz
Theta_e
318 314 318 325 317 313 315 317 317 319 319 321 322 321 322 325 338 337 339 339 326 323 319 317 317 317 318 317 317 317 318 318 318 319 320 320 320 320 320 319 319 319 319 319 319 319 319 319 319
316 313 321 322 316 315 313 315 319 318 320 321 321 322 320 320 325 335 339 332 326 325 321 318 318 320 320 320 320 320 320 321 321 321 321 321 321 321 320 320 320 320 319 319 319 319 319 320 320
316 317 321 317 314 315 315 315 318 318 321 319 320 323 322 332 338 333 337 327 325 325 323 319 319 322 322 322 322 322 323 322 322 322 322 321 321 321 321 320 320 320 320 320 319 319 319 320 320
325 323 321 319 318 318 317 318 316 317 322 322 322 319 324 336 338 339 332 326 325 325 324 321 321 323 323 323 323 323 323 323 323 322 322 322 321 321 321 320 320 320 320 320 319 319 320 320 320
324 325 319 321 320 320 318 319 320 318 319 322 323 321 323 337 339 339 331 326 326 325 324 322 322 323 323 323 323 323 323 323 323 323 322 322 321 321 321 320 320 320 320 320 320 319 319 319 320
330 322 322 322 321 321 320 321 321 319 323 324 325 324 329 330 338 338 327 325 324 325 324 323 322 323 323 323 323 323 323 324 324 323 323 322 322 321 321 320 320 320 320 320 320 320 320 320 320
326 320 322 322 323 322 322 323 323 323 322 325 326 323 326 332 338 338 327 326 323 324 324 324 322 323 323 323 323 323 323 324 324 323 323 322 322 321 320 320 319 319 319 319 319 319 320 320 320
326 320 324 321 323 323 325 326 326 326 325 326 326 325 324 328 340 339 330 326 323 324 323 324 323 323 324 324 323 323 323 323 324 323 323 322 322 321 320 320 319 318 318 318 318 318 319 319 320
319 322 325 324 324 324 325 325 325 325 325 323 325 325 324 324 339 339 333 326 322 322 323 324 324 323 324 324 324 323 323 322 322 322 322 322 321 321 320 320 319 318 317 318 318 317 317 318 319
317 318 319 323 324 324 324 324 323 322 321 321 323 323 322 323 338 341 335 326 323 322 323 323 324 324 324 324 324 323 322 322 322 321 321 321 321 320 320 320 319 318 318 317 317 316 316 316 316
314 317 318 320 321 321 320 319 320 320 321 321 321 321 321 322 327 328 339 335 324 322 321 322 322 323 324 324 324 323 322 322 321 321 321 321 321 321 321 320 320 319 318 317 317 316 316 315 315
311 312 316 317 318 316 316 316 317 317 318 318 319 319 319 319 320 324 327 339 328 324 321 321 322 322 323 323 323 323 322 321 322 321 321 322 322 322 321 321 320 319 318 317 317 317 316 315 315
310 310 311 312 312 313 314 313 314 315 315 317 318 318 318 319 320 321 325 328 333 328 324 322 322 322 321 322 323 324 323 323 324 325 323 323 323 323 322 320 320 320 320 322 322 323 321 320 318
309 310 310 311 312 312 313 313 313 315 316 316 316 317 318 318 318 319 323 326 327 329 332 325 323 321 322 322 323 324 324 325 325 325 325 324 324 323 322 322 323 328 331 331 333 335 332 330 328
310 308 307 308 310 311 312 312 313 314 315 316 315 315 316 317 318 318 319 323 324 327 330 334 332 324 323 323 324 323 324 324 325 325 325 324 323 323 323 329 332 334 335 337 339 339 338 337 335
308 306 306 307 310 311 312 312 314 313 313 313 313 313 313 314 314 315 318 319 322 327 329 330 334 335 331 324 324 323 323 323 324 324 324 324 323 324 329 332 333 336 336 338 340 341 341 340 338
305 308 309 308 309 309 311 311 311 312 312 312 313 313 313 313 313 314 315 316 319 322 327 330 328 335 336 336 327 327 327 324 323 324 325 328 333 331 333 333 333 336 337 337 340 342 342 341 339
308 309 309 308 308 309 309 309 310 311 311 311 312 312 312 312 313 313 313 314 316 318 321 324 326 332 336 336 338 339 334 330 328 331 337 337 336 336 334 335 333 333 336 335 337 341 343 342 340
309 309 308 308 309 309 309 309 309 310 310 310 311 311 312 312 312 312 313 313 314 315 318 322 325 328 336 330 334 340 341 337 333 338 338 338 338 338 337 335 329 329 334 334 336 342 344 343 341
307 307 308 309 309 310 308 308 308 309 309 310 311 311 311 311 311 311 311 311 312 314 315 317 321 326 329 333 332 332 338 340 337 339 337 338 330 335 336 335 330 331 333 331 333 340 343 343 341
309 309 310 310 310 308 308 307 306 308 309 310 311 311 311 311 311 311 312 312 313 312 313 314 316 319 325 327 329 335 337 340 340 339 338 335 335 336 336 334 331 332 331 326 332 337 342 344 342
310 310 310 309 308 307 308 307 305 307 307 308 309 309 310 311 311 312 312 312 312 313 313 313 314 316 318 322 327 330 336 339 339 337 336 335 334 336 335 333 330 331 327 331 334 339 343 344 342
308 310 309 309 308 308 308 307 306 306 307 306 306 309 310 311 313 314 314 314 314 314 314 314 313 314 315 318 322 326 329 336 337 335 334 334 334 336 335 330 327 327 326 335 337 341 343 344 342
308 308 305 304 305 307 306 307 306 306 307 307 307 311 313 313 313 313 312 312 312 313 314 315 314 314 315 316 319 326 327 335 331 331 332 333 335 336 331 327 325 324 326 337 340 342 344 344 342
306 305 304 305 305 307 307 307 307 307 308 308 309 312 313 312 312 312 312 312 312 312 312 315 316 314 314 316 317 323 328 329 329 330 332 332 335 332 328 327 324 324 325 339 342 344 343 343 341
308 305 305 309 310 305 307 308 306 306 308 309 312 313 312 312 312 312 313 314 314 313 312 317 317 316 314 316 317 320 324 329 331 330 331 333 334 331 327 325 324 325 332 343 344 344 343 338 340
307 307 305 306 306 307 307 306 307 308 308 309 311 312 312 312 312 313 314 315 316 315 315 318 320 318 314 315 317 318 322 323 325 328 331 334 332 329 328 326 324 329 341 344 344 344 340 338 339
306 305 308 305 311 311 309 307 308 308 307 307 309 310 311 312 312 314 314 315 317 316 316 320 325 327 318 314 317 319 323 323 326 331 333 335 330 330 327 327 325 337 343 344 343 340 339 338 338
307 307 308 306 305 309 309 308 306 308 308 308 308 310 311 311 313 314 314 317 317 318 317 321 325 331 330 316 318 320 326 327 331 332 334 332 328 326 326 328 327 341 344 344 340 340 339 338 337
306 306 307 304 306 305 306 311 309 307 307 308 309 312 312 311 314 313 314 315 316 318 320 325 323 327 335 326 320 321 327 327 330 332 330 325 324 325 326 329 331 343 345 344 340 338 339 338 337

GFSSGP_850_thetae_069.txt.gz
Theta_e
321 314 320 325 321 321 321 322 320 323 322 322 321 322 324 324 331 334 338 336 328 325 321 318 320 323 323 320 318 321 325 327 327 319 319 320 320 320 319 319 319 319 319 319 319 319 319 319 319
321 314 322 323 321 320 321 320 322 322 322 321 321 321 323 325 323 328 331 338 327 325 322 318 318 321 321 317 318 322 324 323 319 320 321 321 321 321 321 320 320 319 319 319 319 319 320 320 320
320 318 321 323 323 320 320 319 322 321 321 320 323 322 323 328 337 329 332 333 326 323 322 319 318 320 319 318 319 321 321 320 321 322 322 322 321 321 321 320 320 320 319 319 319 319 320 320 320
323 320 320 322 320 321 319 321 321 321 322 321 322 325 324 331 333 338 333 337 326 322 322 320 318 319 319 318 320 321 322 322 322 322 322 322 322 321 321 320 320 320 320 319 320 320 320 320 320
323 325 322 321 319 321 320 321 321 322 322 323 325 328 327 328 335 338 339 335 324 322 322 320 319 319 319 319 320 321 322 323 323 323 323 322 322 321 321 320 320 320 320 320 320 320 320 320 320
327 324 327 325 322 321 321 322 322 323 323 326 328 326 328 329 331 339 337 329 323 323 321 321 321 320 320 320 320 322 322 323 323 323 323 322 322 321 321 321 320 320 320 320 319 320 320 320 320
326 327 324 325 325 324 324 322 325 326 327 327 326 327 327 326 329 341 335 326 323 323 322 321 322 322 321 321 321 322 322 323 323 323 323 322 322 321 321 320 320 319 319 319 319 319 319 320 320
325 325 324 324 324 324 324 326 326 326 327 325 325 328 326 324 330 341 335 327 321 322 322 322 322 322 322 321 322 322 322 322 322 322 322 322 321 321 321 320 319 319 318 318 318 318 318 319 319
322 323 323 323 323 323 325 325 325 325 324 324 324 324 322 322 326 338 337 329 323 321 322 321 322 322 322 322 322 322 322 322 322 322 322 321 320 320 320 319 319 318 318 317 317 317 317 317 317
319 320 321 323 323 323 324 324 324 323 324 323 323 322 322 320 323 330 335 333 326 320 321 321 321 321 322 322 322 322 322 322 322 322 321 321 320 320 319 319 318 317 317 317 316 316 316 316 316
317 318 319 321 322 322 323 322 321 322 322 323 321 320 319 320 320 322 329 335 329 322 320 321 321 321 321 321 321 322 322 322 322 322 321 321 320 319 318 318 318 317 317 317 317 316 316 315 315
314 314 317 318 319 318 320 319 317 319 320 318 317 317 318 318 319 320 322 326 329 332 321 320 320 321 320 321 322 322 322 323 322 322 321 321 320 319 318 318 318 318 317 317 316 316 316 315 316
312 313 312 313 313 313 314 315 316 316 316 316 317 317 317 317 318 319 320 324 328 330 332 322 321 321 321 321 321 322 322 322 323 322 321 320 320 319 320 319 318 318 318 318 318 318 318 318 323
311 311 312 311 312 312 313 314 315 316 315 315 315 316 317 317 317 318 318 324 331 328 327 331 324 321 321 321 321 322 321 321 322 322 321 321 320 319 320 319 318 318 318 322 326 327 327 330 333
310 312 312 311 312 313 313 313 314 313 314 315 315 315 315 314 314 316 317 319 324 329 325 325 332 327 322 322 321 321 321 322 320 321 321 321 320 319 319 319 319 319 320 327 333 336 337 337 338
311 310 311 311 312 311 312 314 314 312 312 314 313 314 313 313 313 314 315 316 317 323 329 327 330 333 331 325 322 321 320 321 321 321 322 321 321 320 319 320 329 329 327 333 335 338 340 340 340
311 311 311 312 312 313 313 313 312 311 312 312 312 313 313 313 313 313 313 314 315 316 320 333 328 330 334 336 328 324 323 321 322 322 322 322 321 321 320 326 330 334 334 336 337 336 340 341 342
311 311 311 311 311 313 313 312 312 311 311 311 311 312 311 313 313 313 313 313 314 315 315 317 325 329 325 327 336 338 333 326 324 325 324 322 322 321 324 331 336 335 335 335 339 339 338 341 342
310 311 311 311 311 312 312 312 311 311 311 311 312 311 311 311 312 312 312 312 313 313 314 315 315 318 323 324 331 337 338 338 334 333 331 328 326 325 333 333 334 332 332 335 340 341 339 340 343
310 311 311 312 312 312 312 312 311 311 311 311 311 311 311 311 311 310 311 311 312 312 313 314 314 315 316 319 324 331 336 337 336 339 339 334 329 335 335 333 330 332 334 335 340 341 339 339 342
311 311 312 312 312 311 311 311 310 311 310 311 311 311 310 310 310 311 311 312 312 312 312 313 313 314 314 315 317 321 325 328 333 337 339 340 334 338 335 333 331 332 338 334 339 337 338 339 341
311 311 312 311 311 311 310 310 310 310 311 311 311 311 311 310 310 312 313 313 312 313 313 313 313 313 314 314 315 317 320 328 328 332 338 340 336 338 337 334 332 337 339 335 334 331 337 339 341
311 312 311 311 311 311 310 310 310 310 311 311 312 312 311 313 313 313 312 312 312 312 312 313 313 313 313 314 314 315 316 321 326 328 334 339 339 339 337 338 337 340 335 332 328 328 335 338 342
310 311 311 309 310 310 309 310 310 311 311 312 311 311 311 314 314 313 312 312 312 312 312 312 312 314 313 314 314 315 315 317 323 326 328 333 338 338 338 337 338 336 330 327 325 325 335 340 343
311 311 310 308 309 308 310 310 310 311 311 311 311 311 312 314 314 313 313 313 312 313 313 313 312 312 313 314 314 314 315 316 319 323 326 331 334 337 336 336 336 331 327 325 324 325 337 342 344
311 310 308 307 307 308 309 309 310 310 310 310 311 312 313 313 313 313 314 315 315 315 315 315 314 314 315 314 314 314 314 316 317 323 326 328 332 333 333 336 335 328 326 324 324 329 341 344 344
310 311 309 310 310 311 309 310 311 311 312 312 312 312 312 313 313 313 315 315 316 318 318 317 316 316 319 319 317 315 314 315 316 322 327 328 329 331 335 336 330 327 325 324 326 340 343 343 343
310 310 311 312 312 312 311 311 311 311 311 312 312 312 312 313 313 314 315 315 316 316 317 319 318 321 324 325 324 319 315 314 316 318 326 326 323 327 334 335 329 327 326 325 337 343 343 344 337
311 311 311 312 313 312 312 311 311 311 312 312 312 312 312 313 313 315 315 314 315 315 316 318 318 321 322 325 328 331 320 314 316 318 322 322 323 327 335 335 329 328 326 329 341 343 343 341 338
310 311 312 314 313 314 314 312 312 312 312 312 312 312 312 313 313 314 313 315 315 315 314 316 318 318 319 322 327 332 331 316 316 319 322 323 327 332 336 333 328 326 327 334 343 344 340 338 338

GFSSGP_850_thetae_072.txt.gz
Theta_e
321 316 320 325 324 325 329 327 326 326 326 325 325 325 328 328 330 335 338 335 339 336 324 320 319 324 329 325 324 331 334 331 326 324 318 318 319 320 319 319 319 319 319 319 319 319 320 320 320
320 317 321 325 327 326 329 326 324 325 324 324 325 326 327 328 327 330 329 336 336 339 324 321 319 321 328 325 323 328 331 327 325 320 319 320 320 320 320 320 320 320 320 320 320 320 320 320 320
321 316 322 326 331 327 326 324 325 324 323 325 327 327 326 331 335 337 341 339 338 334 323 321 319 320 326 323 323 326 326 326 322 320 321 321 321 321 321 320 320 320 320 320 320 320 320 320 320
325 324 322 325 328 328 322 324 324 324 324 324 327 330 329 331 333 340 342 342 338 341 325 321 319 319 324 323 322 325 326 324 320 321 322 322 322 322 321 320 320 320 320 320 320 320 320 320 320
325 325 327 327 326 324 322 322 321 324 324 324 328 331 332 330 334 342 343 341 338 341 338 321 320 319 320 321 321 324 323 320 322 322 322 322 322 322 321 320 320 320 319 320 320 320 320 320 320
326 325 328 329 328 324 322 321 324 324 324 324 329 330 332 328 333 341 341 341 338 339 341 321 320 320 319 319 320 321 319 321 322 322 322 322 322 322 321 321 320 320 319 319 320 320 320 320 320
325 327 328 327 327 327 325 325 326 326 327 326 328 330 331 328 331 338 341 338 336 338 341 323 320 320 320 319 319 319 318 320 322 322 322 321 321 321 320 320 319 319 318 319 319 319 319 319 320
322 326 327 327 327 327 325 325 325 327 327 327 327 330 330 326 330 337 341 337 336 338 340 343 319 320 320 320 319 319 319 320 321 321 321 321 320 320 319 319 319 318 318 318 318 318 318 318 319
321 326 327 326 327 327 325 326 326 326 327 326 326 327 326 324 325 330 338 339 335 337 339 341 339 330 323 323 320 320 320 320 321 321 321 321 320 320 320 319 319 318 317 317 316 316 316 316 317
322 324 324 325 326 326 325 325 325 325 325 326 327 326 325 323 324 325 331 340 335 334 336 338 340 341 340 338 334 321 321 321 321 321 321 321 321 324 321 320 319 318 318 317 316 316 315 315 323
320 323 322 322 323 324 325 325 325 323 325 324 325 323 322 322 323 324 326 333 337 333 335 337 342 343 342 339 340 337 336 333 326 323 322 321 330 333 323 328 319 318 318 317 318 316 316 326 330
318 319 320 320 321 322 324 323 324 324 323 321 321 321 321 321 322 323 325 327 334 336 333 336 341 344 343 342 341 341 339 341 341 334 323 323 323 328 332 336 335 325 330 319 323 332 332 331 331
315 317 316 317 318 319 320 320 321 322 321 318 321 320 320 320 321 321 323 325 326 335 338 335 336 331 329 331 339 337 339 340 341 339 323 322 324 325 325 333 327 333 333 331 330 332 332 333 332
314 314 315 315 315 316 317 317 317 317 317 316 321 319 318 319 319 319 322 326 324 333 330 335 338 327 321 320 321 323 325 338 335 338 332 322 325 330 330 323 319 321 323 329 323 331 331 333 332
313 314 315 315 315 316 315 316 317 316 316 317 323 319 318 318 318 318 320 321 321 328 331 328 326 331 328 322 320 320 321 321 325 323 329 324 321 321 321 321 319 318 320 319 324 333 333 332 334
314 314 314 316 315 314 315 317 318 315 315 317 317 321 322 317 317 317 318 316 317 318 328 332 329 328 332 331 325 322 320 320 320 320 320 320 320 319 318 318 318 322 329 334 334 335 335 337 338
316 314 315 315 315 315 315 315 317 314 315 315 314 317 318 316 316 317 317 317 315 314 314 320 331 332 327 330 334 333 326 324 321 320 321 332 325 319 319 319 320 334 335 333 332 330 334 337 340
316 315 314 314 315 315 315 316 316 315 314 314 314 314 316 315 316 316 316 317 313 313 314 315 315 328 332 330 330 326 332 334 328 326 320 322 319 320 320 320 324 335 333 330 331 330 330 335 341
313 314 314 315 315 314 315 316 316 315 315 314 313 313 314 314 315 315 315 316 317 314 313 314 314 315 330 331 331 332 339 340 340 337 330 324 321 321 322 322 333 336 332 333 332 330 331 335 339
313 314 315 315 314 314 315 315 315 316 315 314 314 314 313 315 314 313 314 316 318 314 316 312 313 314 321 331 332 332 330 333 338 342 338 336 330 324 324 324 333 333 333 332 331 331 334 335 341
313 314 314 314 314 314 314 315 316 314 314 313 314 314 314 313 313 314 315 317 317 317 313 315 313 313 313 315 326 329 331 332 337 343 343 337 337 337 336 328 333 333 331 334 332 333 334 340 344
313 314 313 313 314 315 315 315 315 315 315 314 314 314 314 313 313 315 316 316 317 316 314 312 313 313 315 314 314 315 329 332 330 339 343 343 335 338 339 330 335 333 331 332 332 334 338 336 343
313 313 313 314 314 314 314 314 315 314 314 314 315 313 313 314 316 315 315 316 316 316 313 313 312 312 312 313 314 315 321 328 331 337 342 343 338 337 340 333 334 336 334 333 333 335 338 336 343
313 313 314 315 314 313 313 313 313 314 314 314 314 312 313 315 316 316 315 316 316 317 318 316 312 312 312 313 315 315 315 317 324 330 337 343 347 339 340 337 337 338 338 336 337 338 336 334 339
314 315 316 315 314 314 314 313 313 314 313 313 313 312 314 315 316 316 316 316 317 318 319 320 320 314 312 312 313 314 315 315 315 315 327 334 342 346 339 339 338 339 339 338 337 337 334 331 338
315 315 315 314 313 312 313 312 314 313 312 312 313 314 314 315 315 315 315 316 317 318 320 321 321 322 318 313 313 315 315 315 319 321 317 326 335 340 343 334 339 339 338 336 338 335 329 335 334
314 315 314 314 313 313 313 313 313 314 313 314 314 314 314 315 315 315 315 316 318 318 318 319 320 321 323 323 326 327 321 316 315 315 315 319 319 335 333 329 333 336 333 337 336 328 328 334 338
314 313 313 313 313 312 312 314 314 314 313 314 314 314 314 314 314 315 315 316 317 317 318 318 319 320 321 323 325 326 330 331 324 316 314 315 317 318 328 330 330 333 335 338 327 329 339 338 342
313 313 312 313 314 316 314 314 316 314 314 315 314 314 314 315 315 315 315 316 316 316 317 317 317 317 319 321 323 325 327 330 333 334 321 315 316 318 322 332 332 334 337 330 326 338 344 336 346
313 313 313 320 315 315 316 316 315 315 315 314 314 314 315 314 315 315 314 315 315 317 315 315 315 316 316 318 320 323 326 327 329 333 325 319 327 322 327 342 331 336 334 327 328 336 344 343 345

GFSSGP_850_thetae_075.txt.gz
Theta_e
322 326 321 326 330 328 333 333 330 328 328 328 328 329 330 331 332 336 340 341 339 347 333 321 319 320 325 327 330 337 339 334 328 323 320 319 318 318 318 318 318 318 318 318 319 320 320 320 320
320 325 324 327 330 331 333 333 329 330 328 326 326 327 328 329 331 336 340 342 339 349 334 321 319 319 321 325 329 335 335 330 326 322 320 320 320 319 319 319 319 319 319 319 320 320 320 320 320
323 325 325 328 331 335 333 330 329 328 326 326 328 328 329 332 335 336 340 345 340 348 341 322 319 319 319 324 327 333 331 327 324 321 320 320 320 320 320 320 320 320 320 320 320 320 320 320 320
325 327 325 327 329 333 335 330 327 327 326 325 327 330 330 332 333 339 343 345 342 345 349 327 319 319 319 322 327 331 329 326 323 321 321 321 321 321 320 320 320 320 320 320 320 320 320 320 320
326 326 329 330 329 329 333 332 326 325 326 326 326 329 331 332 333 339 344 344 343 344 347 338 319 319 319 321 325 330 331 327 323 321 321 321 321 321 320 320 320 320 319 319 320 320 320 320 320
327 327 329 329 330 329 327 324 327 327 326 326 326 328 331 332 330 338 344 344 342 344 346 343 319 319 319 320 323 327 329 329 322 320 320 320 321 320 320 320 320 320 319 319 319 319 320 320 320
325 328 329 328 329 330 329 326 326 329 328 328 327 330 332 331 328 337 343 342 342 343 345 349 319 319 319 320 321 325 328 328 321 319 320 320 321 320 320 319 319 319 318 318 318 319 319 319 319
323 327 328 328 329 329 329 327 326 327 330 328 328 330 331 329 327 330 340 341 341 342 343 351 322 320 320 320 320 323 326 324 319 318 319 320 320 320 319 319 318 318 318 317 317 317 317 318 318
322 326 326 327 327 328 328 329 327 326 328 329 328 328 329 327 327 328 333 343 339 340 342 347 343 343 331 325 320 320 321 321 319 319 319 320 320 320 319 319 319 318 318 317 317 316 316 316 316
323 325 325 325 326 327 327 328 327 327 327 327 327 327 328 326 326 327 329 337 340 339 341 342 343 344 343 340 336 320 320 320 320 320 320 320 321 334 332 331 322 319 318 318 317 317 316 315 316
322 324 325 324 324 324 325 326 327 327 327 326 326 326 326 325 325 326 327 331 339 338 339 340 343 343 343 340 341 333 333 325 322 321 324 323 333 337 341 340 334 323 319 318 319 321 320 327 332
321 321 322 323 322 323 324 324 326 326 327 325 325 327 325 325 325 325 325 328 333 339 336 337 342 344 344 341 340 343 339 340 339 335 332 340 332 340 342 342 342 340 337 328 327 336 335 336 336
319 320 320 320 320 320 321 323 324 325 325 326 324 323 326 325 324 323 324 326 329 335 339 336 339 345 348 344 342 341 342 340 341 342 343 344 345 342 345 343 339 338 338 337 337 335 332 335 337
317 317 317 318 319 319 320 321 320 321 322 323 322 320 323 326 324 322 321 325 331 336 336 340 337 339 341 343 347 344 344 341 342 343 345 344 346 345 344 343 341 338 335 334 333 334 335 336 338
316 317 318 318 318 319 318 319 320 319 319 321 320 320 323 326 323 321 321 323 327 330 333 332 336 337 340 337 333 343 344 344 343 344 344 346 340 344 342 341 338 335 331 324 327 330 333 334 336
317 317 317 318 318 318 317 318 319 318 319 319 319 319 323 324 322 320 320 322 323 325 324 329 333 337 331 338 341 339 340 341 341 343 342 342 341 331 336 333 331 321 322 329 333 336 339 340 337
318 318 318 318 318 317 318 318 319 318 318 319 318 319 319 323 325 321 319 319 320 316 315 324 332 333 332 331 340 343 340 337 336 336 336 337 329 323 323 326 331 320 323 334 331 331 332 335 329
318 319 319 317 319 318 318 318 319 318 318 318 318 318 318 322 325 320 319 319 319 316 314 315 328 332 331 331 333 332 334 339 339 331 333 333 327 321 325 325 326 320 329 334 332 333 332 332 330
317 317 318 318 318 317 317 318 318 319 318 318 317 317 317 319 320 319 318 317 319 322 316 313 314 318 329 328 333 334 332 339 335 339 335 336 334 325 331 333 323 320 326 334 332 333 333 333 332
315 315 316 317 317 317 317 318 318 318 318 318 318 317 317 317 318 317 317 317 320 319 317 314 313 313 314 320 328 339 340 339 334 331 342 340 337 335 329 328 325 321 321 334 333 332 333 338 333
315 316 316 317 317 317 317 318 318 318 318 317 316 317 317 317 316 318 317 317 320 320 317 317 314 313 313 315 315 323 333 336 334 337 335 332 340 338 338 336 329 323 324 335 333 333 332 340 346
316 316 316 316 316 317 318 318 319 319 318 318 316 316 316 317 316 316 316 317 318 319 319 319 316 313 313 314 314 318 320 328 333 332 333 334 337 337 339 339 337 328 327 336 335 335 336 335 342
316 316 316 316 317 317 317 317 317 318 318 317 317 316 316 316 316 317 316 317 318 318 319 320 321 314 313 313 313 314 322 325 325 331 332 331 333 339 342 344 341 338 330 334 336 341 337 340 342
315 315 316 316 317 318 318 318 317 317 317 317 317 315 316 315 317 318 317 317 317 318 319 321 320 324 318 316 318 314 313 315 317 324 329 332 333 339 332 335 343 337 341 333 334 335 333 333 339
316 316 317 318 318 319 318 316 316 317 316 317 317 315 315 315 316 317 318 317 317 318 319 321 322 323 324 325 325 325 322 316 314 315 322 333 336 340 346 349 345 343 342 334 341 336 336 335 340
316 317 318 319 319 317 316 316 316 316 316 314 314 314 315 316 317 317 317 317 317 318 319 321 322 323 323 325 326 326 326 327 327 325 326 328 327 329 339 347 349 346 347 338 335 339 339 339 340
316 316 316 317 318 316 317 316 317 316 316 315 315 315 316 316 316 317 316 316 317 319 320 320 321 321 322 324 325 327 329 330 329 328 325 329 328 327 333 338 348 345 345 344 340 341 343 339 340
315 316 315 319 319 316 315 315 316 317 316 316 316 316 315 316 316 316 316 316 317 318 319 319 320 320 320 320 322 324 326 328 330 332 333 329 324 322 328 333 343 339 334 343 348 345 344 339 334
315 315 316 315 315 319 317 316 317 317 316 316 316 316 315 316 316 316 316 317 317 317 318 318 319 319 319 319 319 320 323 325 328 330 331 334 336 330 318 319 335 341 336 346 346 342 340 335 328
316 316 316 321 319 316 317 316 316 317 316 317 316 316 315 316 316 316 317 316 315 316 317 319 318 317 317 317 317 318 319 322 325 328 330 329 325 331 333 328 326 335 342 342 338 338 341 336 343

GFSSGP_850_thetae_078.txt.gz
Theta_e
321 325 326 325 329 330 331 333 333 331 329 329 329 330 331 330 332 343 343 341 346 345 323 320 319 319 325 334 336 333 332 329 327 323 320 319 318 319 318 318 319 319 319 319 319 319 319 319 319
322 325 326 326 330 334 335 333 333 331 328 328 327 328 329 330 336 337 343 344 345 345 328 320 320 319 322 328 334 334 332 328 326 321 320 320 320 320 319 319 320 320 320 320 320 320 320 321 320
324 326 327 327 329 332 334 332 329 330 327 327 327 328 329 334 334 337 341 344 345 347 341 320 319 319 321 326 333 335 333 328 325 321 321 321 320 321 320 320 320 320 320 320 320 320 320 320 320
324 326 328 327 328 331 333 333 330 328 327 327 327 329 330 332 334 337 342 344 345 349 346 321 319 319 321 325 333 336 335 328 324 321 321 321 321 320 320 320 320 320 320 320 320 320 320 320 320
323 326 328 330 329 328 329 330 333 327 327 327 327 328 331 333 332 337 343 344 344 346 350 322 319 319 320 324 329 335 336 333 328 322 321 321 321 320 320 320 319 319 320 320 320 320 320 320 320
323 326 328 328 328 329 330 329 332 330 328 327 327 327 329 332 330 334 343 344 344 344 350 337 320 319 320 323 325 330 332 333 333 326 321 320 320 320 320 320 319 319 319 319 319 319 319 319 320
323 326 327 328 327 327 329 327 326 328 328 330 328 330 330 331 329 330 340 343 345 344 348 346 323 320 320 322 324 326 330 331 330 327 321 320 320 320 319 319 319 319 319 319 318 318 318 318 319
322 325 325 326 328 328 328 328 327 327 328 330 329 330 330 330 328 329 331 342 344 343 348 347 336 322 321 321 323 325 327 330 331 326 321 319 319 319 319 319 319 318 318 318 318 318 317 317 317
321 324 325 325 326 327 327 328 328 327 327 329 330 330 329 329 327 328 329 341 341 343 346 349 345 321 323 323 322 323 325 327 329 324 320 319 319 319 319 319 319 319 318 318 318 318 317 317 317
321 323 323 324 325 325 326 327 327 328 327 327 329 330 329 329 326 327 327 330 342 341 344 349 347 329 325 335 323 322 324 326 326 322 319 319 319 320 320 320 320 319 319 318 318 318 318 317 317
321 323 323 323 324 324 324 325 325 327 329 328 329 329 329 328 326 326 326 327 332 340 341 345 346 340 335 341 338 325 322 323 322 320 319 319 320 325 338 337 330 329 324 319 319 318 321 325 326
320 321 321 323 323 323 324 324 324 324 327 328 327 328 327 328 326 325 324 324 328 337 340 342 344 343 342 341 341 338 328 322 321 320 319 320 321 330 339 342 338 340 336 324 325 322 327 332 333
318 320 320 321 321 322 322 322 323 323 324 326 327 326 327 326 328 326 325 323 324 329 338 339 344 343 344 342 344 342 341 331 331 324 322 321 324 331 339 344 342 342 339 333 330 328 333 334 334
318 318 319 319 319 320 321 321 320 321 323 324 324 326 325 325 326 326 324 322 326 331 338 340 338 343 344 342 345 346 346 341 339 340 336 337 330 338 340 341 342 339 339 338 336 331 333 332 333
318 318 318 318 318 319 318 319 320 320 321 321 321 322 324 323 322 322 325 321 322 329 329 338 340 338 338 338 342 347 346 345 342 342 343 343 344 339 345 345 338 329 329 325 327 330 332 332 334
317 318 318 318 319 318 318 318 319 319 319 319 319 320 321 321 321 325 322 321 322 323 321 331 333 339 335 334 333 343 345 344 345 345 344 346 345 344 341 342 338 331 324 321 324 333 332 332 334
317 316 317 318 320 319 319 318 319 319 319 320 320 320 320 321 321 325 321 321 321 321 319 328 330 338 335 334 333 331 339 342 340 344 344 344 344 341 336 333 332 336 327 320 325 333 331 334 337
317 318 319 319 320 319 318 318 319 318 318 319 320 320 320 320 320 323 322 320 320 319 316 316 322 335 341 340 337 332 332 333 335 331 335 340 340 339 329 329 326 331 328 320 326 334 332 333 338
319 319 318 319 320 319 318 319 318 319 319 319 319 319 319 319 319 320 322 320 319 319 319 314 315 325 330 333 338 334 332 332 333 337 334 335 333 333 330 326 324 334 328 323 322 333 332 333 336
317 317 317 317 317 317 318 318 318 319 319 319 320 320 319 319 318 320 321 319 320 320 319 318 314 315 320 330 331 333 335 340 340 338 336 335 336 335 336 333 328 330 332 331 322 328 333 332 338
316 316 316 317 317 318 318 318 319 319 319 319 318 318 319 319 319 319 320 318 318 321 322 319 317 314 314 316 324 329 331 332 332 344 341 337 338 336 337 337 336 332 335 332 333 325 334 338 338
316 316 317 317 317 317 318 319 320 320 320 320 319 318 318 318 318 319 319 319 318 321 321 322 321 317 315 314 314 315 320 327 329 329 341 346 345 340 339 336 337 336 334 337 338 337 339 338 334
316 317 317 317 317 318 318 318 319 320 320 320 321 318 317 317 318 318 318 318 319 320 319 319 322 319 314 316 318 317 319 317 319 324 331 332 334 333 333 332 336 335 334 332 340 342 345 342 333
317 316 316 316 316 318 317 317 319 319 321 320 320 318 317 317 317 317 318 318 318 318 319 320 321 322 323 314 316 313 318 318 322 327 325 333 333 334 334 334 339 332 332 332 333 342 340 333 339
316 316 317 318 319 319 318 318 320 320 318 318 318 317 317 317 317 319 319 319 318 318 319 320 321 320 318 317 315 313 312 312 313 313 315 321 330 334 339 342 341 335 332 331 332 333 333 336 335
318 318 319 322 322 321 320 320 319 320 319 317 317 316 316 315 316 317 318 319 318 318 319 320 321 323 323 324 324 326 322 320 316 318 327 322 317 320 332 334 340 344 336 331 332 332 337 341 340
318 319 318 318 320 321 319 319 318 319 318 318 316 316 315 316 317 317 318 318 318 317 318 320 321 321 322 323 324 324 323 326 327 323 325 325 323 318 318 327 332 338 342 347 346 343 344 343 343
318 318 319 317 320 321 317 318 318 319 319 318 316 316 316 316 317 317 317 317 317 317 318 319 320 320 321 321 321 322 323 325 327 328 329 333 332 324 316 316 326 331 343 344 347 348 346 346 345
317 319 318 318 318 319 320 318 317 318 318 318 317 316 316 316 317 316 317 317 317 318 318 319 319 320 320 320 320 320 320 321 322 325 326 327 329 332 336 328 314 323 337 347 344 346 343 351 350
316 317 318 320 322 321 318 320 317 317 318 317 316 316 316 316 316 317 317 317 317 316 316 317 317 320 319 318 317 318 318 318 319 321 322 324 328 326 325 334 334 319 316 340 345 337 337 348 352

GFSSGP_850_thetae_081.txt.gz
Theta_e
323 322 326 326 322 324 325 325 328 329 327 326 328 327 334 341 343 346 345 345 344 338 321 322 325 327 327 332 336 332 327 323 321 319 319 321 321 321 320 320 319 320 320 320 320 320 320 320 319
323 324 326 325 323 326 327 329 327 324 326 327 328 327 333 335 339 342 345 344 344 342 321 320 322 325 325 326 330 331 327 324 322 320 320 320 321 320 320 321 321 320 321 321 321 321 321 321 320
323 324 326 323 322 324 328 329 328 327 327 326 326 329 332 335 336 338 343 346 343 344 326 320 320 323 323 323 325 327 326 324 322 321 320 321 321 321 321 321 321 321 320 320 321 321 321 321 320
323 323 326 324 324 324 326 325 326 327 326 326 326 327 333 333 335 338 340 344 348 346 340 320 319 322 323 323 324 326 327 326 323 321 321 321 321 321 320 321 321 321 320 320 320 320 320 320 320
322 322 323 324 324 325 326 327 330 329 325 328 328 327 332 331 334 340 338 343 344 348 346 321 319 321 324 324 324 325 329 330 326 322 321 321 321 321 321 321 320 320 320 320 320 320 320 320 320
321 323 323 324 324 324 325 329 330 331 331 330 328 328 330 329 330 331 340 340 344 346 347 327 320 321 325 325 324 325 329 330 330 325 321 321 320 320 320 320 320 320 320 320 319 319 319 319 319
320 319 321 323 325 325 325 327 329 330 330 331 329 328 329 329 328 329 338 340 345 346 347 339 319 321 323 326 326 325 327 332 328 325 322 320 320 320 320 320 319 319 319 319 319 318 318 318 318
320 319 321 322 323 323 324 326 327 327 331 330 329 329 329 328 328 329 330 342 345 348 348 347 322 320 322 325 327 327 326 327 329 326 322 320 320 320 320 319 319 319 319 319 318 318 318 317 317
319 318 319 320 322 322 324 323 326 327 327 327 328 328 329 329 327 328 327 335 344 348 348 347 343 320 323 325 326 328 329 327 327 326 323 320 320 320 320 319 319 319 319 319 319 318 318 318 318
317 316 318 319 320 321 322 323 323 327 326 326 327 329 329 329 327 326 326 326 332 349 349 347 345 342 321 325 326 326 328 330 328 326 322 320 320 320 320 320 319 319 319 319 319 319 319 319 323
317 316 317 320 321 321 322 322 323 323 324 327 327 328 329 329 327 326 325 324 325 331 349 348 344 344 328 322 326 325 325 327 328 327 323 320 320 320 320 320 321 321 322 323 320 320 320 324 330
313 317 319 319 320 321 320 322 322 322 322 327 327 327 327 328 328 327 326 325 325 327 336 350 347 343 331 321 324 327 324 324 326 326 324 320 320 320 321 322 324 327 329 331 322 322 325 329 330
313 314 317 318 320 320 321 320 320 321 321 321 325 328 327 326 328 327 326 326 326 325 334 343 346 344 341 326 330 340 338 328 323 324 323 320 319 320 321 323 330 333 331 330 325 325 331 332 332
316 316 316 317 317 318 317 317 319 320 320 320 320 325 328 327 326 326 327 325 326 325 330 342 345 343 342 339 342 345 343 343 339 323 322 320 320 320 322 327 332 331 330 328 323 325 332 331 332
315 314 314 315 316 315 318 316 316 318 319 320 320 321 326 326 326 325 325 326 324 326 327 334 346 346 344 342 343 347 345 345 341 340 335 335 329 328 323 327 330 328 329 327 325 323 331 332 332
313 312 313 314 316 317 316 315 316 318 319 319 319 319 319 324 325 324 322 322 323 324 325 326 333 345 344 342 341 342 347 346 344 342 342 343 342 342 340 332 328 327 331 331 326 323 328 331 331
312 312 312 314 316 316 315 315 316 318 318 318 318 319 319 319 320 322 321 322 323 322 323 324 332 337 338 333 334 337 343 346 345 345 345 347 346 345 344 342 336 331 332 329 324 321 325 330 332
312 313 314 315 316 316 315 315 315 318 318 318 318 318 319 320 320 321 323 322 322 321 321 321 329 335 334 330 332 335 339 343 344 344 344 343 344 345 342 340 335 332 336 329 327 323 326 330 334
315 315 316 316 316 314 314 314 316 317 318 316 317 319 319 319 319 319 320 321 320 320 320 320 319 332 336 334 332 327 332 334 338 342 344 343 343 343 342 333 334 333 332 333 329 330 329 328 335
315 314 314 315 315 315 313 314 314 315 316 317 318 317 319 319 319 318 319 321 320 320 319 319 317 316 331 342 339 332 326 328 331 333 333 332 334 332 336 332 333 334 329 328 327 327 328 323 327
314 314 314 315 315 315 314 315 314 316 317 318 318 318 318 318 318 318 319 321 319 319 319 318 317 315 315 321 336 341 340 338 336 336 337 339 336 336 335 336 337 336 335 333 331 330 330 331 328
313 314 315 315 315 314 315 315 315 315 316 316 317 318 318 317 319 318 320 320 319 319 320 320 320 319 317 316 316 323 330 333 332 337 338 334 340 338 335 338 339 338 337 335 335 336 337 337 333
314 315 315 316 313 312 314 313 315 315 316 316 316 317 318 318 318 319 320 319 319 322 321 321 320 319 318 317 315 316 319 324 322 325 329 333 331 333 338 342 343 341 340 334 335 337 338 337 335
316 314 314 314 312 313 313 314 314 314 315 317 316 318 318 318 318 319 320 318 318 318 318 319 318 317 316 318 315 315 314 319 320 317 319 324 329 328 329 331 335 334 338 340 337 338 336 335 333
315 314 314 313 313 315 314 315 315 317 318 318 316 317 318 318 317 317 317 317 317 318 317 317 317 319 318 318 318 318 317 318 317 318 317 319 325 329 328 330 331 333 334 339 337 340 338 337 335
316 315 318 319 316 317 318 319 317 317 318 318 318 317 317 317 317 317 318 318 319 318 318 318 319 321 321 322 323 325 326 322 320 320 317 313 315 319 322 328 333 333 334 339 342 342 336 337 336
315 316 316 320 321 321 317 316 316 316 316 316 316 317 315 315 316 318 319 319 319 318 318 318 320 320 320 319 320 323 323 325 325 323 326 325 329 319 317 320 322 331 335 336 339 343 336 337 335
316 315 317 317 322 321 318 317 315 315 318 316 317 315 316 316 316 316 318 318 318 317 317 318 319 319 319 320 320 322 322 322 323 323 323 322 319 323 319 315 315 318 325 331 336 341 343 343 344
314 313 317 317 316 322 320 314 315 316 316 316 316 316 316 315 316 317 316 316 316 317 317 318 318 319 319 319 321 320 320 319 320 322 322 322 323 324 327 330 332 322 319 318 326 337 339 339 341
313 316 315 319 319 320 319 316 315 313 313 317 315 316 316 316 315 316 315 316 317 317 317 317 317 320 319 321 320 318 318 318 319 318 319 319 320 319 319 325 326 326 331 322 318 319 340 347 343

GFSSGP_850_thetae_084.txt.gz
Theta_e
323 323 325 326 321 321 324 324 325 324 322 325 339 341 341 341 342 343 345 346 345 325 321 327 336 334 329 322 320 322 320 320 319 320 325 325 322 320 320 319 320 320 320 320 320 320 321 320 320
323 323 325 325 321 324 326 326 326 325 324 325 332 334 337 339 343 346 347 346 338 328 320 324 334 333 327 322 321 321 321 320 320 321 322 322 321 321 321 321 320 321 321 321 321 321 321 321 320
323 323 324 319 319 323 326 325 323 326 325 327 327 331 333 337 338 342 345 345 337 333 321 321 330 334 327 323 322 322 322 321 321 321 321 321 321 322 323 322 321 321 322 321 321 321 321 320 320
323 322 325 323 323 323 324 324 324 327 330 330 329 328 334 335 336 336 340 343 345 342 325 320 326 333 331 325 323 323 323 322 321 321 321 321 322 322 323 322 322 321 321 321 321 321 320 320 320
321 321 321 322 323 322 325 325 326 326 329 329 330 329 329 339 340 339 341 343 344 343 336 321 322 330 332 329 325 324 324 323 322 321 321 321 322 322 322 322 321 321 321 321 320 320 320 320 320
320 319 320 322 322 323 324 325 325 326 329 329 329 329 328 327 328 341 340 343 346 345 338 322 320 328 332 330 327 325 325 324 323 322 321 321 321 321 321 321 321 320 320 320 320 320 319 319 319
317 316 318 320 321 322 323 324 324 326 326 329 330 328 328 329 327 335 342 342 344 347 343 326 319 324 330 333 331 326 325 325 324 322 321 321 321 321 321 321 321 320 320 320 319 319 319 318 318
318 316 320 319 320 320 322 323 323 324 328 329 330 327 328 327 328 329 339 342 345 347 346 332 319 321 326 330 334 332 327 325 324 323 322 321 321 321 321 321 321 320 320 319 319 319 319 318 318
317 315 316 317 320 320 321 320 322 323 325 329 330 328 329 328 328 328 335 345 346 349 348 335 322 319 323 327 331 335 332 327 326 325 322 321 321 321 321 321 321 320 320 320 319 319 319 318 318
314 312 315 316 317 318 319 320 321 323 324 326 327 328 328 328 327 328 325 325 345 349 348 343 324 320 320 325 328 332 336 331 328 327 324 322 321 321 321 321 320 320 320 320 320 320 319 319 320
314 314 314 316 318 319 319 319 320 322 323 326 327 328 328 328 327 327 326 324 325 342 349 347 339 323 319 321 325 329 333 333 329 327 326 322 321 321 321 321 321 321 321 321 322 321 321 320 322
311 313 315 316 317 318 317 319 319 320 322 322 325 327 327 328 328 327 326 326 325 328 346 348 347 344 327 320 321 325 328 332 332 328 326 324 321 320 321 321 321 322 323 325 323 322 324 325 326
311 311 314 315 317 318 318 318 318 319 319 320 321 321 323 326 327 328 328 327 326 325 328 337 348 347 341 327 321 322 324 326 328 328 327 325 322 320 321 321 321 323 325 327 323 323 327 331 332
313 313 314 315 315 314 314 315 316 318 318 318 318 319 320 323 326 327 328 327 327 326 326 328 341 346 340 331 324 321 323 324 325 325 325 326 323 320 320 321 322 323 325 326 324 322 325 331 333
313 312 310 313 315 314 315 314 314 317 317 318 318 318 319 320 325 327 326 326 326 326 325 328 332 344 343 339 326 324 322 334 339 337 326 323 323 320 320 320 321 322 324 325 325 324 324 328 333
312 310 311 311 314 315 315 315 314 317 317 317 318 318 319 320 324 327 326 325 324 326 326 326 326 334 343 342 339 339 338 334 339 338 335 329 325 322 320 321 321 322 324 327 327 325 329 327 331
309 310 311 312 313 313 313 314 314 317 316 316 317 318 318 318 319 322 325 325 324 324 323 324 326 326 344 343 345 347 344 344 344 341 340 339 337 335 333 331 331 333 328 331 331 331 333 330 328
311 311 311 312 314 314 313 312 312 315 315 315 316 317 318 318 318 319 319 323 324 321 322 323 326 333 344 345 346 345 345 346 347 345 342 341 342 339 338 342 340 340 338 333 335 333 332 327 326
312 312 312 313 314 313 312 311 311 314 315 315 316 317 317 318 319 319 320 322 322 323 323 322 323 329 342 344 341 338 334 335 343 344 345 345 344 345 344 342 342 343 337 331 335 334 332 330 328
313 313 312 312 313 314 312 312 312 313 314 316 315 316 317 317 318 319 319 319 322 323 322 321 321 321 331 336 338 335 335 334 333 330 342 342 342 345 345 344 343 342 338 334 334 336 336 333 332
313 312 312 313 314 313 313 313 313 313 315 316 316 317 317 317 317 317 320 319 319 320 321 321 320 318 318 329 334 338 337 332 329 330 332 333 337 340 340 340 341 338 334 335 335 333 334 331 329
312 313 314 314 313 312 314 313 312 313 313 314 315 316 317 317 317 317 318 320 320 320 320 319 319 318 318 315 320 334 337 335 331 327 328 329 329 334 337 336 336 337 337 336 336 335 333 332 329
314 314 313 313 312 310 312 311 312 313 313 313 313 314 316 317 318 317 317 319 320 320 319 319 319 318 316 315 314 314 317 328 334 336 332 330 328 328 330 337 336 337 340 339 339 338 337 335 336
314 313 312 311 309 311 310 311 313 312 312 312 314 317 317 317 318 317 317 319 320 320 320 320 319 319 318 318 318 317 316 314 317 322 328 333 335 336 328 328 331 334 336 337 337 338 339 339 338
313 312 312 314 312 314 311 312 313 312 314 316 315 316 316 317 316 316 319 320 322 321 320 319 318 318 318 317 316 315 315 315 314 315 318 324 327 332 336 332 329 330 330 331 329 332 334 341 340
316 315 316 320 316 318 317 318 315 315 315 317 316 316 316 317 318 318 320 320 318 318 317 317 317 318 318 317 317 315 315 319 321 318 318 317 321 328 329 330 330 328 327 329 331 331 333 338 340
314 315 315 317 319 321 319 317 315 314 316 316 314 314 315 316 317 317 318 318 317 317 318 318 318 318 319 318 318 318 319 318 320 324 324 324 321 321 323 322 322 327 330 331 334 335 334 332 331
315 315 316 316 322 323 319 318 316 314 315 315 316 315 315 315 315 316 316 317 318 318 318 318 317 317 317 318 319 319 319 322 321 321 323 326 328 328 329 328 324 330 326 327 330 334 335 334 331
313 313 315 313 314 319 316 316 313 314 314 314 313 315 316 316 316 316 317 316 316 317 318 317 317 318 319 319 319 318 318 320 320 319 321 322 322 322 323 324 328 329 331 331 328 323 323 327 333
313 315 314 313 317 317 317 314 312 313 312 312 314 315 315 316 316 316 316 316 315 316 316 317 317 318 318 319 319 319 320 320 320 318 317 318 320 320 319 319 319 320 322 323 324 327 331 336 332

GFSSGP_850_thetae_087.txt.gz
Theta_e
323 323 324 326 321 320 324 324 323 323 323 333 339 339 340 341 342 341 345 342 342 324 323 334 337 339 335 332 326 323 326 332 333 330 337 332 327 321 319 320 321 321 321 321 322 321 320 319 321
323 323 324 324 320 324 325 324 324 323 325 328 331 334 335 338 341 346 346 347 342 323 322 330 336 336 334 326 322 321 320 318 320 329 331 327 321 320 321 322 322 322 322 322 322 321 320 320 320
322 323 323 318 317 323 325 323 322 323 325 329 326 332 333 336 338 343 343 342 334 322 323 330 332 333 331 323 321 320 319 319 321 326 326 322 321 321 322 323 323 323 322 322 321 321 321 320 320
322 322 323 322 323 321 324 323 323 323 327 330 329 330 335 336 336 339 342 341 331 324 322 327 332 330 329 325 323 321 320 321 322 323 322 321 321 321 322 323 323 322 322 321 321 321 320 320 320
320 320 319 321 322 322 324 324 324 322 324 328 330 328 330 340 340 339 339 343 336 325 324 327 329 327 326 327 325 323 321 321 321 322 322 321 321 321 322 322 322 322 321 321 320 320 320 320 320
320 318 318 320 322 322 322 324 323 323 323 328 328 327 326 327 329 339 342 342 340 334 323 329 331 326 325 325 326 324 322 321 320 320 321 321 321 321 321 321 321 321 321 320 320 320 319 319 319
317 315 317 319 320 320 322 323 322 321 324 324 328 326 326 327 329 337 341 345 341 336 329 324 333 331 328 327 325 325 323 322 322 321 321 322 321 321 321 321 321 320 320 320 320 319 319 318 318
317 315 319 318 320 320 320 321 322 321 322 323 328 327 326 326 329 340 341 343 346 340 330 324 326 331 329 329 328 326 324 323 323 322 322 322 321 321 321 321 321 321 320 320 319 319 318 318 317
316 313 315 317 319 321 320 319 321 320 321 321 323 328 328 326 328 335 339 343 346 345 335 326 323 327 329 329 330 330 328 325 323 323 323 322 322 322 321 321 321 321 320 320 319 319 318 318 317
313 310 314 315 317 316 318 318 318 319 319 320 323 327 326 325 327 329 336 341 346 346 340 331 325 324 328 329 329 332 333 331 327 324 323 323 322 322 322 322 321 321 321 320 320 319 319 318 318
312 312 313 315 317 318 316 317 318 319 318 320 321 325 326 325 326 328 331 337 343 345 347 339 327 324 324 328 330 330 333 332 331 327 324 323 322 322 322 322 322 322 321 321 321 323 324 322 321
311 312 313 315 316 316 316 317 317 318 318 319 320 321 323 327 326 325 325 325 328 342 348 345 331 325 325 325 328 330 329 329 331 330 327 324 322 322 322 322 322 322 322 322 324 327 323 327 327
309 310 312 313 313 314 315 315 316 316 317 318 319 321 321 323 326 326 325 326 326 329 343 348 344 331 326 323 323 326 329 329 328 331 329 327 324 322 322 322 322 322 322 323 326 328 327 331 333
312 312 312 313 314 313 312 313 313 315 317 318 319 319 319 319 319 324 326 326 326 326 327 338 344 347 345 338 328 322 324 327 329 329 329 328 327 324 321 321 322 322 322 324 327 330 331 332 334
312 311 310 311 314 313 314 312 312 316 315 315 316 317 317 318 319 319 324 327 327 327 327 326 326 331 344 346 343 337 325 325 327 327 327 328 327 327 323 320 321 322 322 324 326 330 333 330 332
310 309 310 310 312 313 313 312 313 316 316 316 316 315 316 317 318 319 320 326 327 327 326 325 325 327 339 345 343 336 329 325 325 325 325 325 324 324 325 321 320 321 321 322 324 329 333 334 332
306 309 310 311 311 312 312 312 312 315 314 314 316 315 316 316 317 318 320 325 326 326 325 325 326 326 326 331 342 340 329 328 331 337 337 336 328 324 322 322 320 320 321 322 323 327 332 335 334
309 310 310 311 312 312 311 310 310 314 313 314 316 316 315 315 317 317 318 319 325 324 325 325 324 324 327 330 342 342 336 339 340 337 338 341 335 328 325 323 321 322 326 330 330 328 333 335 334
310 310 310 311 312 312 310 310 310 312 313 313 315 315 316 316 317 318 318 318 318 319 324 324 323 322 325 327 340 343 344 345 343 341 333 332 340 340 339 336 337 339 340 340 341 339 338 337 335
310 310 311 311 311 310 310 311 310 311 312 314 315 316 316 316 316 318 318 319 319 319 320 322 321 323 326 327 338 343 343 344 344 341 340 339 340 341 343 343 342 343 343 344 344 341 340 337 335
312 311 311 312 312 311 312 311 312 312 313 314 315 315 315 316 316 316 316 317 318 320 322 322 322 324 334 335 339 345 344 341 337 336 340 339 340 339 334 338 339 342 343 343 341 340 339 338 337
311 311 312 312 312 311 311 313 310 311 311 312 313 314 314 314 315 315 316 316 317 319 319 322 323 322 321 328 337 340 341 337 335 337 333 335 336 336 331 331 331 335 333 338 338 339 339 339 335
312 313 312 312 311 310 311 310 312 310 311 311 310 313 315 316 317 317 317 317 318 318 319 321 322 321 320 318 318 323 328 334 337 337 335 334 332 332 332 330 329 329 329 337 338 339 340 339 338
312 312 310 307 307 310 310 310 311 310 311 310 311 314 316 317 317 317 317 317 317 317 321 322 320 320 319 318 316 315 315 315 315 317 324 332 331 333 333 333 336 332 328 332 332 331 335 336 335
312 311 312 314 313 315 313 315 310 311 312 312 312 315 316 316 316 317 317 318 316 317 321 320 319 319 318 318 317 317 318 317 317 316 315 315 317 324 326 331 334 336 334 332 330 328 329 328 330
312 311 313 318 317 316 315 317 315 314 314 315 314 315 315 315 315 316 318 317 318 321 321 320 320 319 318 317 317 316 315 315 314 313 314 314 314 315 319 323 325 328 331 332 331 333 332 329 330
314 313 313 313 316 313 315 316 314 313 314 313 314 314 315 314 314 317 318 319 320 322 321 319 317 317 317 316 316 316 316 316 316 316 316 317 317 319 318 321 325 326 326 329 330 328 327 329 331
314 314 315 313 320 321 318 317 316 313 313 312 312 312 313 314 315 316 317 321 320 319 318 317 317 318 317 316 316 316 317 317 317 318 320 319 320 324 326 328 328 328 328 328 328 326 330 332 333
313 316 315 314 316 320 320 314 311 312 309 309 310 312 311 312 315 316 316 316 316 316 317 317 318 318 317 317 316 317 318 318 318 317 318 318 320 321 324 325 325 327 329 329 329 323 320 328 331
313 314 313 311 312 317 315 313 310 309 308 310 310 310 312 312 313 315 315 316 316 317 317 316 317 317 318 318 317 317 319 319 319 319 319 318 318 317 317 319 319 319 319 321 324 326 327 326 328

GFSSGP_850_thetae_090.txt.gz
Theta_e
323 323 323 325 320 320 323 323 322 322 322 326 325 340 341 339 340 339 344 336 337 329 332 338 338 337 337 335 330 330 337 343 343 343 341 334 326 320 320 320 321 322 322 322 322 321 321 322 324
323 323 323 324 319 323 323 323 323 322 324 327 324 333 334 336 340 345 344 339 342 328 331 339 339 338 337 336 330 327 332 338 339 340 337 331 323 320 321 322 322 323 322 322 321 320 320 321 322
322 323 323 317 317 322 325 323 322 322 326 327 328 332 333 334 336 343 344 345 340 327 326 338 339 338 337 335 328 325 331 332 333 332 335 326 321 321 322 322 322 322 322 321 320 320 319 319 320
321 322 321 321 322 321 323 323 322 322 326 329 328 330 334 337 337 339 343 343 336 325 327 336 338 337 334 332 326 322 321 324 324 331 328 322 320 321 322 322 322 322 321 321 320 320 320 320 319
321 320 317 321 322 322 322 323 323 322 323 327 327 328 333 337 337 338 339 341 334 325 326 337 338 336 331 323 322 320 318 319 324 326 323 321 321 322 322 322 322 321 321 320 320 320 320 320 319
319 318 317 319 320 322 321 323 322 322 323 326 326 326 327 328 329 339 339 340 337 325 325 332 337 337 331 324 322 322 321 320 323 323 322 322 323 323 323 322 321 321 320 320 320 319 319 319 319
316 314 317 318 319 319 321 321 321 319 321 323 323 326 326 327 329 337 340 341 341 330 325 330 335 336 333 327 324 322 322 322 322 322 322 323 324 324 323 322 322 321 320 320 319 319 318 318 318
317 313 317 317 319 319 320 320 321 320 320 321 321 325 326 330 328 335 339 342 340 334 327 327 332 333 333 332 327 324 323 321 321 322 322 323 323 323 323 322 322 321 320 320 319 318 318 318 317
316 311 314 317 319 319 319 317 320 319 319 319 320 321 324 327 329 337 338 342 343 338 332 327 330 331 332 331 330 328 326 323 321 321 322 323 323 323 323 322 321 321 320 319 319 319 318 318 318
312 310 312 313 316 316 317 317 318 318 318 318 319 320 326 326 335 336 335 336 341 343 342 331 328 332 332 332 331 329 330 327 324 322 322 322 323 323 323 322 321 321 320 319 319 319 319 319 318
311 312 311 314 316 317 315 315 317 317 316 318 318 319 324 327 332 336 333 334 333 341 343 340 330 329 332 333 331 330 329 330 328 325 323 322 322 322 322 322 322 321 320 320 319 320 321 323 321
312 312 313 314 314 314 314 316 315 316 317 317 317 317 318 324 325 328 329 334 337 339 345 344 337 328 328 331 333 330 330 327 328 327 324 323 322 321 322 322 322 322 321 320 320 322 328 324 325
309 309 311 312 313 313 313 312 313 314 315 316 317 316 317 320 324 325 326 327 331 337 339 345 344 334 327 327 330 332 330 330 326 327 326 325 323 322 321 322 321 322 321 321 322 327 329 328 331
310 311 311 312 313 312 311 312 312 314 316 316 316 317 319 320 323 323 324 325 326 327 333 342 347 344 331 326 326 325 328 328 329 327 326 326 326 324 322 321 321 321 321 321 324 327 329 331 332
311 310 309 310 313 311 312 311 311 315 315 315 316 316 316 316 317 317 319 321 323 326 326 333 345 346 345 339 334 327 323 324 326 328 329 329 329 327 325 323 321 321 320 321 324 328 329 329 330
309 307 309 308 310 312 312 311 311 315 314 313 314 315 316 317 316 317 317 318 320 326 326 326 327 327 332 337 340 343 339 329 325 327 328 332 332 332 331 329 325 321 320 320 322 327 328 328 329
305 306 309 309 309 311 311 311 311 315 314 313 314 315 315 316 316 317 317 318 320 324 326 326 326 325 326 330 337 343 344 342 338 328 328 326 325 327 328 328 327 326 321 319 321 325 333 333 334
309 310 309 310 311 311 310 308 309 313 312 313 314 315 315 316 316 316 317 317 317 322 325 326 326 325 325 326 335 342 342 342 335 329 326 326 328 329 328 326 326 327 324 320 321 325 330 336 338
310 309 309 309 310 311 309 309 309 311 311 312 314 315 316 316 316 316 316 317 317 318 324 325 325 326 325 326 326 334 338 341 338 330 327 332 336 333 335 337 328 325 325 322 323 330 337 340 341
309 309 309 309 310 308 309 309 308 308 310 314 315 315 315 315 315 316 316 316 318 318 318 321 323 324 326 324 324 325 329 337 341 336 337 339 338 335 333 336 337 333 333 332 337 341 341 343 344
310 310 310 311 311 310 310 310 311 311 311 313 314 314 315 315 314 314 314 315 316 317 317 318 319 320 324 324 324 327 333 341 341 341 340 338 339 338 334 332 337 339 341 332 331 341 340 339 339
310 310 311 311 311 311 310 313 311 309 310 310 313 314 314 314 315 315 315 316 317 316 316 317 318 321 322 325 327 327 325 337 334 336 337 336 337 335 339 336 333 330 328 339 339 335 337 336 336
311 312 311 311 310 309 309 308 311 310 310 309 309 313 313 314 315 316 316 317 317 317 317 317 317 321 323 324 325 326 329 334 335 335 338 335 334 332 335 335 334 331 331 332 331 332 329 333 337
312 312 310 306 306 309 310 309 311 309 310 310 311 313 314 315 315 316 316 316 316 316 316 316 317 320 324 325 327 330 334 338 336 336 335 335 334 332 332 334 332 332 330 330 329 329 328 328 331
311 310 311 312 312 314 313 313 310 310 311 312 311 314 314 313 314 315 315 315 316 316 316 317 317 319 324 322 321 323 322 318 316 316 316 316 318 324 330 332 331 332 331 333 330 329 329 330 332
311 310 312 316 315 314 312 314 314 311 313 313 313 313 313 313 312 313 315 316 317 317 317 317 316 322 322 319 317 316 317 317 317 316 314 314 315 315 318 323 327 331 334 334 334 329 328 329 328
313 312 310 312 313 309 313 313 314 313 313 312 310 310 312 312 312 312 313 316 318 319 319 318 319 322 320 318 318 317 316 315 314 314 314 314 315 317 319 321 322 326 328 332 334 334 333 333 332
312 312 315 312 319 319 315 316 315 313 312 309 308 309 312 312 312 312 312 315 317 319 321 322 322 319 319 318 317 316 316 315 314 315 315 314 315 319 323 326 327 329 329 329 330 330 330 329 329
312 314 314 314 318 317 315 313 311 312 310 307 306 310 311 314 314 314 313 314 316 318 317 320 320 318 317 317 317 316 315 315 316 316 316 313 316 317 319 323 325 326 328 329 329 328 327 325 324
312 312 313 315 313 313 314 314 310 308 307 307 308 313 314 313 314 314 314 314 315 315 315 316 317 317 317 317 317 316 316 317 318 317 317 316 317 317 317 317 319 321 321 322 323 325 327 326 325

GFSSGP_850_thetae_093.txt.gz
Theta_e
322 323 323 325 326 328 331 328 325 328 329 327 324 341 343 342 343 346 345 335 335 330 335 339 338 336 337 336 336 341 345 346 345 344 340 331 323 320 320 321 320 320 320 319 318 318 320 323 326
320 323 323 324 326 329 332 326 327 327 325 325 324 334 338 340 342 346 342 335 337 330 331 337 337 336 334 333 334 340 344 344 344 343 339 328 322 320 320 321 321 321 320 320 319 319 321 323 325
319 322 323 325 325 328 330 326 326 326 326 327 330 332 334 336 335 344 344 338 341 333 328 336 337 336 336 334 331 335 343 343 343 342 337 324 321 321 322 322 322 321 321 320 320 319 319 321 322
319 322 321 325 326 325 326 326 325 326 327 328 327 334 336 338 338 340 343 342 341 331 330 335 338 337 337 336 332 329 337 341 341 340 334 323 322 323 324 323 322 321 321 320 320 320 319 319 319
320 321 324 325 325 324 325 324 324 325 326 327 326 328 333 335 338 337 340 341 337 329 328 335 338 337 337 336 332 328 332 335 337 337 332 322 322 324 324 323 322 321 321 320 320 320 320 319 319
321 320 322 323 323 323 324 323 323 324 323 324 325 325 328 328 335 337 339 341 336 327 325 332 338 338 337 336 330 326 326 329 331 329 327 322 323 324 323 322 322 321 320 320 320 320 319 319 319
321 322 321 321 322 322 322 322 323 322 322 324 322 325 328 328 328 339 339 340 337 328 325 330 337 338 336 335 326 323 321 320 323 331 326 322 323 324 323 322 321 320 320 320 319 319 319 318 318
318 321 321 321 321 320 321 321 320 321 322 320 320 324 325 324 325 331 341 341 339 330 325 327 333 337 336 334 326 323 321 319 323 329 324 322 322 323 322 321 321 320 320 319 319 318 318 317 317
317 320 320 320 321 320 319 321 320 319 319 319 319 320 320 323 325 327 341 341 339 334 329 327 331 336 336 333 328 326 323 322 323 325 324 322 321 322 322 322 321 320 319 319 318 318 318 317 317
317 318 318 318 320 320 319 318 318 318 318 319 319 319 320 327 326 327 338 340 339 338 335 328 329 331 333 334 331 328 326 323 322 322 323 321 321 321 322 321 320 320 319 319 318 318 318 318 318
314 317 316 316 317 317 317 317 317 318 319 319 318 318 318 319 322 336 338 340 341 339 338 336 330 329 331 333 333 331 328 325 322 321 320 320 321 321 321 321 320 320 319 319 319 318 319 320 320
315 314 315 316 315 316 315 315 315 316 317 317 316 317 316 317 318 321 334 337 336 338 340 340 337 332 330 332 331 331 329 327 324 322 322 321 321 321 321 321 320 320 319 319 319 319 320 328 324
312 312 312 312 312 312 312 314 315 315 315 315 316 316 317 317 319 321 325 330 333 334 338 342 342 341 333 330 331 330 330 328 327 326 323 323 322 322 322 321 321 320 320 320 319 320 326 328 328
312 312 313 313 313 312 313 315 313 315 316 316 316 316 316 317 319 321 323 326 325 327 333 335 340 344 340 332 329 331 332 331 330 328 327 325 324 323 322 322 321 321 320 320 320 321 327 333 330
312 314 314 314 315 315 313 315 314 315 314 314 315 315 315 316 316 316 319 319 324 325 324 325 329 341 344 341 333 327 327 331 332 330 329 328 327 326 325 324 322 321 321 320 320 322 330 333 335
313 312 314 314 313 313 314 316 316 314 314 315 314 315 315 316 316 316 317 317 317 320 321 323 327 336 346 346 342 334 328 326 329 332 330 331 330 330 330 329 326 325 323 322 320 321 324 331 334
311 312 312 314 313 313 314 315 316 316 314 315 315 314 315 316 316 316 316 316 316 317 318 322 326 330 335 335 335 336 338 336 330 328 327 327 327 328 326 328 329 328 328 327 322 321 322 326 333
313 313 313 314 315 314 315 316 316 315 315 315 315 315 315 316 316 316 316 315 315 316 317 321 326 327 331 336 340 338 331 337 341 341 339 335 328 328 328 330 329 330 329 328 327 323 321 326 330
312 313 313 314 315 313 316 316 316 315 314 315 316 316 316 315 316 316 316 316 316 317 316 319 327 328 328 331 334 336 334 332 335 338 339 340 331 328 328 329 331 330 329 327 326 325 323 328 338
312 313 314 315 315 314 316 316 316 316 315 315 316 316 316 316 315 315 315 315 315 316 316 318 321 325 327 329 328 332 334 332 330 332 340 339 329 327 328 335 335 337 337 332 327 326 326 340 341
314 314 315 315 315 314 314 316 317 316 314 315 315 315 315 314 315 314 315 315 315 315 316 316 317 319 323 328 332 333 336 335 331 329 336 338 331 329 338 335 331 329 333 332 336 332 341 340 339
315 315 314 314 315 316 314 317 318 317 317 316 315 316 315 314 313 314 316 316 316 316 316 316 316 316 317 320 325 331 329 328 323 323 328 336 340 338 341 340 336 335 332 329 330 336 336 332 332
315 314 314 315 316 315 317 316 317 315 317 317 317 315 315 316 315 315 315 315 316 316 316 316 317 316 316 317 320 322 329 329 326 325 330 334 340 340 338 339 340 337 337 336 330 330 330 328 327
314 314 315 313 315 317 317 317 318 317 317 316 316 317 316 314 314 313 313 314 315 316 316 316 316 316 316 316 317 321 325 331 329 328 334 339 339 340 339 336 336 338 338 337 333 330 328 328 328
314 315 317 317 318 318 317 316 317 317 317 316 317 315 313 313 314 314 313 313 313 315 316 316 315 316 316 317 317 319 323 330 335 335 333 333 336 335 334 334 333 335 337 333 331 330 330 329 331
315 316 317 319 319 318 317 317 318 318 316 316 313 312 312 312 312 312 313 313 312 314 316 318 318 317 317 317 316 323 327 334 337 337 332 328 325 326 326 326 329 333 332 332 332 333 334 330 327
316 316 316 317 317 320 318 318 317 317 318 315 313 312 312 312 313 313 314 313 313 314 316 319 321 320 318 317 319 326 330 324 318 316 316 315 315 314 314 315 315 318 327 329 333 334 334 332 328
315 315 317 318 320 321 319 318 318 317 316 315 313 312 311 312 313 314 315 315 313 314 316 318 319 322 322 323 323 319 317 317 315 315 314 314 313 314 315 314 315 317 320 325 329 334 333 335 331
316 316 318 317 320 322 321 318 317 317 315 314 313 311 312 314 314 315 315 315 314 314 315 317 318 318 321 321 320 319 317 315 316 316 316 316 315 314 314 317 320 321 323 324 326 330 332 334 334
314 315 316 322 320 320 320 318 315 316 313 311 312 313 314 314 313 314 315 315 315 315 314 315 315 316 316 318 317 317 317 317 317 317 317 316 316 314 315 319 321 324 325 325 329 330 330 330 329

GFSSGP_850_thetae_096.txt.gz
Theta_e
322 322 324 326 332 335 341 336 331 332 332 332 335 344 344 343 346 352 351 344 344 347 332 339 342 343 341 343 344 345 345 345 345 343 341 331 323 320 320 320 320 320 320 320 320 320 321 323 328
320 322 325 327 333 339 342 333 333 331 330 331 332 339 342 345 345 349 348 345 346 345 328 339 340 338 338 339 341 343 345 346 345 344 340 329 322 320 320 321 321 321 321 321 320 321 323 325 330
319 321 325 329 333 338 339 333 332 330 330 332 333 336 339 341 341 348 350 346 348 349 338 336 338 337 337 337 337 341 345 346 345 344 338 328 322 321 321 322 322 322 322 321 320 320 321 323 326
320 323 324 328 332 332 333 332 329 330 330 330 331 335 337 337 341 348 347 347 349 349 346 331 336 336 335 335 335 339 345 346 345 343 339 327 321 321 322 323 322 322 321 320 320 319 319 320 321
320 322 326 328 329 328 329 329 328 329 329 330 330 331 334 335 347 349 346 349 350 348 346 331 335 337 336 334 334 335 342 345 345 343 339 328 322 322 323 323 323 321 320 320 320 319 319 319 319
321 321 325 327 327 326 327 327 327 328 327 328 328 330 332 330 343 351 351 351 349 348 346 330 335 337 337 336 334 332 336 342 344 342 339 329 322 321 322 322 322 321 320 320 320 320 320 319 319
321 323 321 322 324 326 326 325 326 327 326 328 326 329 331 330 330 348 352 352 349 347 346 332 335 337 337 337 336 332 329 333 337 338 336 330 322 321 321 322 321 320 320 320 319 319 319 319 318
320 323 322 322 323 322 323 323 324 324 325 323 323 331 331 326 328 336 350 352 348 347 346 348 334 337 337 336 336 332 328 327 331 333 332 331 322 320 320 321 320 320 320 319 319 319 318 318 317
319 320 321 321 321 322 322 323 322 322 321 322 322 323 324 323 332 335 344 350 349 346 347 348 347 346 344 343 334 328 325 323 322 324 331 329 323 321 320 319 320 319 319 319 319 318 318 317 317
319 320 321 320 321 321 321 321 320 320 320 321 321 322 322 322 327 336 340 345 348 347 346 348 349 348 346 344 344 328 325 323 320 322 330 328 324 333 332 328 319 319 318 318 318 318 318 317 324
319 320 320 320 319 319 319 319 319 319 321 320 321 321 321 321 323 328 336 339 346 347 347 348 350 350 348 345 345 342 340 333 324 322 327 326 335 334 322 333 320 318 318 319 319 318 318 326 330
318 318 318 318 318 318 319 319 318 318 319 319 319 319 319 321 323 323 328 339 344 347 347 348 350 345 337 346 345 344 341 341 339 325 323 326 325 328 332 333 333 327 332 326 330 331 326 323 328
317 318 316 316 316 316 316 317 317 317 317 317 318 318 319 320 321 323 324 328 340 344 346 349 349 345 338 334 346 344 344 343 342 337 323 322 327 323 321 328 333 333 332 331 332 330 326 328 330
316 316 316 316 316 316 317 317 317 317 317 317 318 318 319 320 321 322 325 327 331 340 345 348 346 344 341 336 339 341 341 344 344 344 338 322 321 322 321 321 322 332 330 330 330 331 327 333 339
316 317 317 317 317 318 317 318 318 317 317 317 317 318 318 318 319 319 321 325 328 327 332 342 344 340 338 342 337 342 346 345 345 343 336 328 324 323 323 322 322 324 326 321 321 320 320 326 332
317 317 318 318 317 316 316 317 320 317 317 318 318 318 318 318 318 319 319 318 318 318 325 328 339 340 327 333 344 345 348 346 344 345 342 329 327 326 325 326 324 324 323 323 324 325 333 336 339
317 316 317 316 316 317 316 317 319 318 318 318 318 318 318 318 319 319 317 317 317 317 317 318 330 332 336 329 345 349 348 348 347 346 346 339 330 330 331 327 332 330 328 326 329 335 327 334 337
317 316 315 317 318 318 318 318 318 318 318 318 318 318 318 318 319 319 319 317 316 316 316 316 317 324 327 335 344 350 350 348 347 346 344 332 330 328 331 327 329 335 328 331 331 335 335 332 334
316 316 317 318 318 318 318 319 319 318 318 318 318 318 318 318 318 319 319 320 319 315 316 316 316 317 338 346 348 350 349 348 348 346 347 342 337 333 328 331 335 333 334 337 334 331 330 335 338
316 316 318 318 318 318 319 319 319 320 319 318 318 318 318 318 318 318 319 320 321 321 316 315 316 318 335 344 346 347 348 347 347 346 347 345 342 339 338 331 338 333 334 334 332 332 331 331 341
316 317 318 318 318 318 319 320 320 320 319 318 318 318 318 318 318 319 319 320 321 322 322 320 316 315 318 337 344 347 346 346 346 346 347 338 334 337 340 335 335 333 331 333 336 333 331 331 338
317 318 317 318 318 319 319 320 320 320 320 320 319 319 319 319 319 319 319 319 320 320 320 317 316 316 316 316 334 340 341 341 341 343 343 344 335 337 339 332 328 331 336 335 333 329 328 334 333
317 317 317 318 319 320 320 321 321 321 320 321 321 320 319 319 318 318 318 318 318 319 320 322 318 316 316 316 316 331 338 339 338 340 341 342 344 340 341 334 330 337 338 330 330 330 328 330 332
317 317 318 319 320 321 321 321 322 322 322 321 320 319 319 317 317 317 317 317 317 318 318 320 322 317 316 316 316 316 322 330 333 338 340 342 344 346 344 346 343 343 342 340 340 336 336 333 331
318 319 321 322 322 323 322 321 322 321 320 320 320 319 317 316 316 316 316 316 316 317 317 318 320 323 320 317 316 318 320 324 334 335 341 341 341 342 345 345 341 343 343 343 340 338 334 333 331
320 321 322 323 323 323 322 322 322 320 320 319 318 316 316 316 316 315 315 315 316 316 316 318 320 323 324 326 321 319 318 332 336 339 340 340 340 343 343 340 341 337 341 337 340 340 338 336 335
320 319 320 321 321 323 322 322 321 321 320 319 318 316 316 315 315 314 314 315 316 316 317 320 321 323 324 326 327 326 322 327 335 339 341 342 342 340 342 340 341 341 341 340 339 339 339 335 334
318 319 321 321 325 326 323 322 322 321 321 320 318 316 315 314 314 314 315 316 317 317 318 319 321 321 323 326 328 327 328 331 333 336 335 330 329 327 329 327 328 332 331 335 338 337 338 339 338
318 319 319 320 321 327 325 323 321 319 320 319 318 315 314 314 314 315 315 316 317 317 317 318 319 319 321 321 326 328 328 328 328 328 327 325 317 314 320 324 324 326 327 329 331 334 335 337 337
317 318 319 326 324 323 326 325 320 319 319 318 316 315 313 314 315 315 315 316 316 316 316 316 317 318 320 319 319 321 324 326 327 327 327 324 320 321 323 325 327 327 328 329 330 330 329 333 335

GFSSGP_850_thetae_099.txt.gz
Theta_e
323 324 325 328 334 338 341 340 337 335 334 334 337 342 343 343 350 358 352 345 345 352 325 331 337 344 346 346 346 346 345 345 342 342 333 326 323 321 320 324 326 326 324 322 321 320 321 324 327
322 323 325 330 336 341 342 339 337 336 334 333 335 338 340 346 347 350 347 345 346 352 332 333 338 343 344 345 345 346 346 346 344 343 337 329 323 321 320 320 321 321 321 321 321 321 323 326 328
321 323 326 332 336 340 342 341 337 334 333 334 335 337 341 343 344 351 350 348 347 351 349 336 337 340 339 341 342 344 346 346 345 344 340 331 324 321 321 321 321 321 321 321 320 321 323 324 325
321 324 326 331 335 337 338 340 335 334 333 332 333 338 339 341 345 350 348 348 350 349 349 334 335 337 337 338 339 341 344 346 346 344 341 333 326 322 321 321 321 322 321 320 320 320 321 321 322
320 323 328 331 332 335 334 334 333 334 333 333 332 334 338 343 345 346 348 348 351 348 347 336 335 336 337 335 335 338 343 345 346 345 343 336 328 322 320 321 321 321 321 320 320 319 319 319 320
322 322 326 330 331 333 332 332 332 333 333 332 331 332 335 337 345 346 347 349 349 349 347 341 334 336 336 335 334 333 340 345 346 345 343 339 330 322 320 320 321 321 320 320 320 320 320 319 319
321 324 323 324 328 331 330 330 330 331 333 331 330 331 334 332 333 347 348 349 348 348 348 348 331 335 336 336 335 333 333 342 345 345 344 340 332 324 320 320 320 320 320 320 320 320 319 319 319
320 322 323 325 324 325 328 328 328 329 329 328 327 331 332 329 330 335 346 347 347 347 347 351 339 335 336 336 336 335 332 333 342 344 343 340 333 325 321 320 320 319 319 319 319 319 319 318 318
320 323 323 323 324 324 324 325 324 326 326 326 326 327 328 326 328 333 340 345 345 345 347 350 348 346 344 343 338 336 333 329 331 337 339 337 334 327 321 320 320 319 319 319 319 319 318 318 318
321 322 322 323 323 324 324 324 324 324 324 324 324 324 324 325 326 332 336 340 345 345 345 348 350 349 347 344 345 337 333 328 326 328 332 333 335 338 334 330 320 320 319 319 319 318 318 318 320
321 322 323 323 322 321 322 322 322 322 322 322 323 323 324 325 326 327 333 336 340 343 344 346 351 351 349 346 347 347 341 336 328 324 328 327 340 338 336 336 327 320 319 319 320 318 318 326 332
321 321 321 322 321 320 321 320 321 321 321 320 321 321 322 322 324 325 328 332 336 342 344 346 350 352 351 348 346 348 342 341 339 336 329 342 336 339 339 337 339 329 327 321 332 334 333 334 336
320 321 320 320 320 320 319 319 320 320 319 319 319 320 320 321 322 324 326 327 334 339 345 346 349 354 353 348 349 347 345 342 341 340 338 339 342 340 340 339 336 336 334 335 334 335 334 335 336
320 319 319 319 319 319 319 319 319 319 319 319 319 319 319 320 321 323 325 327 329 340 344 345 349 351 353 350 345 348 346 344 344 343 343 335 339 340 341 336 338 337 337 335 335 334 335 331 336
318 319 320 319 319 320 319 320 320 319 319 319 319 319 320 320 320 322 323 326 329 331 338 342 347 351 354 354 349 347 350 348 345 344 344 343 332 336 332 333 337 337 337 335 334 334 333 325 336
319 320 320 321 321 320 319 320 321 320 320 320 319 319 319 319 320 320 322 323 324 328 328 329 339 347 354 351 352 352 352 350 348 346 345 346 339 327 328 339 337 326 329 327 333 333 335 335 337
320 319 320 320 320 319 319 320 321 320 320 320 320 320 320 320 320 320 321 322 323 324 326 328 331 338 342 351 351 352 352 353 351 348 346 346 345 338 330 328 337 336 333 326 326 326 333 335 336
320 320 320 320 320 320 319 319 320 320 320 320 321 320 320 320 320 321 321 321 322 324 325 326 327 331 339 344 350 351 352 352 353 351 348 347 348 348 341 337 340 328 328 332 334 330 333 331 333
320 319 320 321 320 320 321 321 321 321 321 321 320 320 320 320 320 320 321 322 322 324 326 327 324 317 317 332 344 347 349 351 354 353 351 349 349 351 345 340 335 334 330 327 333 341 338 337 335
319 319 320 320 320 321 321 321 322 322 322 321 321 321 320 320 320 320 320 322 322 324 325 327 327 321 320 331 334 341 345 347 350 349 349 349 350 350 347 344 343 333 328 331 341 338 337 335 335
320 319 320 320 321 321 321 322 322 322 321 320 320 320 320 320 320 320 321 321 322 323 324 324 326 326 320 321 337 343 345 346 348 348 349 349 350 349 348 348 345 345 343 343 339 335 336 337 340
319 319 319 319 320 321 322 323 323 323 323 323 322 321 321 320 321 321 322 322 322 322 322 323 325 327 321 325 330 332 342 342 342 342 344 345 348 349 349 347 349 346 346 343 339 335 331 333 341
318 319 319 320 321 322 322 323 323 324 324 324 323 322 322 323 322 321 321 321 320 320 321 321 323 326 329 329 326 331 332 336 340 341 340 342 345 346 348 347 346 346 346 343 341 331 335 339 338
319 319 320 321 321 323 324 325 325 325 325 325 324 322 321 321 320 320 320 319 319 319 320 320 321 322 325 328 329 329 324 327 336 337 339 341 342 345 345 348 347 346 343 342 337 333 330 332 338
320 321 322 324 325 326 325 326 326 325 324 324 323 322 322 321 319 319 319 319 318 318 318 319 319 321 322 325 327 329 328 326 322 332 338 337 339 340 345 344 344 345 343 341 340 338 333 334 337
321 321 322 325 327 326 325 327 326 325 323 322 322 321 320 319 319 319 318 317 317 318 319 319 319 321 321 322 325 328 330 329 330 331 332 335 336 339 340 341 341 345 344 343 344 345 344 344 339
321 321 322 324 325 326 325 325 325 325 324 322 322 321 320 319 318 317 317 317 317 318 319 319 319 320 322 323 325 329 330 331 330 329 332 336 335 339 336 342 339 343 344 342 342 343 342 340 340
319 320 323 324 330 329 325 326 326 326 325 323 322 322 320 319 317 317 316 316 317 318 319 319 320 320 321 322 324 327 330 330 331 332 333 336 339 339 340 342 338 341 339 334 340 341 341 339 339
321 321 321 322 324 329 329 326 324 324 323 323 322 321 319 318 317 316 316 316 317 318 318 318 319 319 320 322 322 323 327 329 330 331 333 334 337 336 338 339 337 339 339 340 339 340 337 336 334
322 322 321 328 329 327 329 329 324 323 323 322 321 320 318 317 315 316 317 316 316 317 317 317 317 318 318 318 320 323 323 325 326 328 330 332 332 332 331 333 333 334 334 333 334 335 333 333 335

GFSSGP_850_thetae_102.txt.gz
Theta_e
322 324 325 327 332 335 338 338 337 337 335 335 336 338 342 347 354 361 352 348 353 338 326 329 334 343 346 345 344 343 344 340 340 338 327 323 322 326 327 327 327 326 324 323 321 320 322 326 328
321 322 325 327 334 339 339 339 340 338 335 334 335 336 339 346 350 350 346 348 354 333 329 331 335 340 345 345 345 345 345 342 341 340 331 324 322 321 322 324 325 324 322 320 320 322 324 327 327
318 323 325 329 334 337 340 341 341 335 334 335 335 336 342 345 349 351 347 348 353 341 332 333 337 340 342 344 345 345 345 345 342 342 336 327 323 321 321 321 321 321 321 320 321 322 323 325 325
322 323 325 328 332 336 337 339 341 336 334 334 334 339 341 345 348 351 349 348 352 352 344 334 336 338 338 340 343 344 345 345 344 342 341 332 325 322 321 321 321 321 321 320 320 321 322 322 322
320 322 326 329 332 333 335 338 336 335 335 334 333 336 343 345 347 348 348 349 350 351 350 334 336 337 337 338 338 338 343 345 346 344 343 336 330 324 321 321 321 321 320 320 319 319 320 320 320
320 322 324 327 330 332 333 335 334 334 335 334 333 334 340 344 345 345 346 348 349 349 350 338 333 336 336 335 334 335 339 343 345 345 344 340 331 325 322 321 321 321 320 320 320 319 319 319 319
320 322 323 324 327 329 332 333 333 333 333 334 332 333 335 338 346 347 346 348 349 349 350 348 331 335 336 335 333 333 336 342 345 346 345 343 337 328 322 321 320 320 320 320 320 320 320 319 319
319 321 323 324 325 325 327 331 331 331 331 330 330 331 331 330 332 340 346 346 347 348 351 350 332 335 336 335 334 333 333 340 344 346 345 344 341 332 324 321 320 320 320 319 319 320 319 319 319
319 321 321 321 322 324 326 326 327 329 329 330 328 328 329 328 328 333 340 346 345 346 349 352 337 335 336 336 335 334 333 333 340 345 345 344 342 337 327 321 321 321 320 320 320 319 319 319 318
320 321 321 323 324 324 325 325 325 325 325 327 327 327 326 326 327 330 335 342 345 345 347 351 350 346 339 344 338 335 334 332 330 335 339 342 341 337 332 323 321 321 321 320 320 319 319 318 318
320 321 322 322 322 323 323 323 324 325 325 325 325 324 325 325 326 328 330 336 340 344 344 347 349 349 348 345 344 342 336 334 329 328 330 334 336 336 338 331 324 322 321 320 320 319 319 319 321
320 321 321 321 322 322 322 321 322 322 322 322 322 322 322 323 325 326 327 330 334 340 344 345 348 349 350 347 346 346 344 335 330 328 326 326 331 333 338 334 330 328 323 321 320 321 321 321 325
320 321 321 321 321 321 321 321 321 321 321 321 321 320 321 322 322 323 324 325 329 331 342 344 348 350 351 349 348 347 348 341 339 328 331 327 326 334 339 336 334 332 331 322 322 323 335 334 331
320 320 321 320 321 320 320 320 319 320 320 320 320 320 320 320 321 321 323 325 327 328 339 344 343 339 349 351 349 348 347 346 342 341 338 329 332 333 341 338 338 339 336 332 333 330 334 334 328
320 320 320 320 320 320 320 320 320 320 320 320 320 320 320 320 320 321 322 324 326 327 330 344 342 343 333 353 349 352 348 347 344 343 342 341 337 338 339 338 338 336 338 336 336 335 335 334 332
320 320 319 321 321 320 320 319 321 321 321 320 320 320 320 320 321 321 321 323 324 328 330 333 339 350 351 349 347 345 351 351 347 348 344 344 343 339 339 341 337 334 337 337 336 335 334 330 328
321 320 320 320 322 322 321 320 321 320 321 321 321 321 320 320 320 321 321 322 323 324 324 326 330 336 352 348 348 347 347 349 351 350 348 346 346 345 342 339 340 335 331 329 329 329 329 330 333
320 320 320 320 322 321 320 319 320 320 321 321 321 321 321 321 321 321 321 321 323 323 324 325 325 330 336 350 349 348 350 350 350 351 350 350 347 347 346 344 339 339 334 331 324 325 325 327 334
320 320 320 322 322 321 321 321 321 321 321 321 321 321 322 321 321 321 321 322 322 323 327 328 330 330 322 331 345 352 351 348 350 350 352 351 350 349 348 347 346 341 343 338 328 328 330 331 335
321 320 320 321 321 321 321 321 322 322 323 322 322 322 322 321 321 321 321 322 323 324 325 326 327 329 331 331 326 335 344 348 347 348 349 350 351 351 349 349 348 343 345 343 336 332 332 334 334
321 321 321 320 321 321 322 321 322 322 322 322 322 322 322 322 322 321 322 323 323 324 324 324 324 326 326 323 324 332 339 336 341 351 353 351 350 349 349 348 349 346 343 345 338 337 330 332 335
320 321 321 320 320 320 321 322 324 323 325 325 324 322 322 321 321 322 324 323 324 323 323 322 323 324 326 328 327 329 331 337 344 339 349 351 348 346 347 346 348 346 345 343 340 334 331 334 331
320 319 320 320 321 321 321 322 322 324 323 325 326 324 323 324 324 323 323 322 322 321 321 321 322 322 322 325 326 324 325 326 331 337 344 340 347 338 345 345 344 345 347 347 346 343 340 334 337
319 319 320 320 320 322 321 323 323 324 326 327 327 324 323 324 323 322 322 321 320 320 320 320 320 320 321 322 323 325 326 323 321 330 334 339 344 345 342 340 344 343 346 347 347 346 344 342 338
319 321 321 322 323 324 323 323 326 328 326 326 326 324 324 323 322 321 321 320 320 319 319 320 320 320 320 321 321 323 324 326 326 317 318 329 339 343 346 344 343 342 344 345 347 347 345 342 335
320 321 322 323 325 324 325 327 327 327 326 325 324 324 323 323 322 321 320 319 319 318 319 320 320 320 320 321 322 325 326 326 325 329 327 321 319 332 339 338 340 332 341 341 345 346 344 340 336
322 322 322 323 323 327 326 326 326 326 327 326 324 323 323 321 321 320 319 319 318 317 318 320 320 321 321 322 322 323 324 329 331 330 328 329 329 331 322 333 337 339 331 325 338 345 343 339 335
322 320 321 323 330 329 325 325 327 328 327 325 325 324 322 321 321 319 319 317 317 317 317 319 320 320 320 321 322 323 323 323 328 330 332 331 327 329 338 334 332 340 333 332 337 344 341 340 337
323 323 322 322 324 330 329 326 327 326 325 325 324 323 323 322 321 319 318 317 317 318 317 318 319 319 319 319 320 321 322 324 324 326 328 331 331 334 331 336 334 340 338 337 336 335 337 335 326
323 324 324 328 328 328 330 330 326 327 324 324 323 323 322 322 320 318 317 316 317 317 316 316 318 318 318 318 318 318 318 321 323 324 324 326 328 330 331 332 334 339 338 336 333 323 336 331 328

GFSSGP_850_thetae_105.txt.gz
Theta_e
322 322 323 324 324 326 329 331 333 333 333 334 336 336 350 352 356 357 348 348 348 327 335 336 338 341 342 341 343 339 338 337 332 324 322 325 325 325 325 325 325 325 324 322 321 322 324 327 329
321 322 324 325 323 327 331 332 338 332 333 334 334 338 349 352 352 352 352 351 349 329 334 336 340 341 343 343 343 343 340 339 336 327 322 322 325 326 326 326 325 323 322 322 322 323 325 327 328
317 320 323 321 323 327 330 337 338 336 334 334 334 338 344 349 348 346 350 349 348 326 330 335 340 340 342 343 343 344 343 340 339 333 326 322 321 321 323 323 323 322 321 321 322 323 324 326 326
318 322 323 321 322 325 330 332 338 340 335 334 334 341 345 350 350 347 348 349 349 327 331 334 338 339 341 342 343 344 344 343 341 339 331 325 322 321 321 321 322 322 321 320 321 322 322 323 323
319 320 318 321 323 327 328 331 339 338 334 332 335 344 346 349 349 348 347 349 347 330 331 335 338 338 338 339 341 343 344 344 343 341 337 329 324 322 321 321 321 321 320 320 320 320 320 320 320
317 320 317 319 322 325 327 330 336 334 334 333 333 343 345 346 346 347 348 349 350 349 329 333 337 337 337 337 337 338 343 344 345 343 341 335 328 323 321 321 322 321 321 320 319 319 319 320 320
315 315 316 318 320 323 324 326 331 333 333 331 333 337 339 346 345 346 347 350 349 349 347 338 333 336 336 336 335 334 338 342 345 345 343 339 332 326 322 321 321 321 321 320 320 320 320 320 319
317 314 317 317 319 319 323 323 329 332 331 330 331 330 330 335 346 347 347 349 349 349 347 348 332 334 335 335 334 333 335 340 344 345 344 344 341 330 323 321 321 321 321 320 320 320 320 319 319
316 313 314 316 318 319 322 321 324 330 331 329 329 329 329 329 329 336 345 349 347 347 345 345 339 331 334 335 334 332 332 336 343 345 345 344 343 338 327 322 322 322 322 321 320 320 320 319 319
314 314 316 318 319 319 321 321 322 324 327 327 328 329 327 326 327 328 331 345 348 347 346 345 343 329 331 334 335 334 332 332 337 342 345 345 343 341 336 326 322 323 323 322 321 320 320 320 319
316 315 318 319 320 321 321 321 322 321 322 324 326 326 325 323 326 326 328 330 345 346 346 341 346 345 335 331 334 335 333 332 331 334 340 343 343 342 339 332 324 322 323 322 321 321 321 320 319
314 317 319 319 320 321 321 321 320 321 321 322 321 322 322 321 322 326 328 328 328 333 347 345 348 345 345 343 338 342 341 335 333 329 327 331 336 340 338 334 327 322 323 323 322 322 321 321 320
315 316 319 319 320 320 321 320 320 320 321 321 321 321 321 320 321 322 322 325 325 325 332 349 347 344 346 347 344 346 346 346 344 332 327 324 329 332 338 335 331 327 327 324 322 321 321 322 323
318 318 319 320 320 320 319 318 320 320 320 320 320 320 320 320 320 320 321 322 323 327 336 349 346 341 349 347 347 347 349 347 347 339 333 326 322 323 330 337 336 332 329 331 325 322 321 325 331
318 316 317 318 319 318 319 317 317 320 319 320 320 320 320 320 319 320 320 321 322 326 332 341 348 348 342 349 342 348 347 349 348 347 342 341 337 327 327 339 339 335 333 335 335 330 328 331 330
317 317 314 316 318 319 318 316 318 320 320 320 320 320 320 320 320 320 320 321 322 326 330 339 345 345 344 341 335 333 350 351 348 345 345 343 343 342 334 336 341 339 337 338 337 335 335 333 333
316 316 317 317 318 318 318 316 318 319 320 321 320 320 320 320 320 320 320 321 325 325 326 325 333 338 345 345 342 337 346 348 350 348 348 348 344 344 343 340 334 340 338 339 337 336 336 332 328
316 317 317 318 318 318 317 316 317 319 320 321 321 321 321 320 320 320 320 320 321 322 324 324 326 327 332 347 349 348 349 345 344 350 349 347 348 346 345 345 344 338 336 337 338 337 336 335 328
317 317 317 317 318 319 317 317 317 319 320 320 320 321 320 320 321 321 321 320 321 322 322 322 322 321 325 326 336 348 350 348 348 345 343 350 350 349 347 347 346 345 342 336 336 337 337 335 330
318 317 317 318 319 318 317 318 318 318 319 321 320 321 321 322 321 321 321 321 323 324 323 323 322 322 322 322 323 329 339 349 351 348 346 344 344 350 349 348 347 345 345 343 336 334 335 336 331
318 318 319 319 319 318 317 317 318 320 320 321 321 321 322 321 322 321 322 324 323 325 324 324 324 324 323 322 320 319 330 332 336 342 346 347 348 347 345 344 348 348 346 344 343 335 339 333 331
317 318 318 320 319 316 318 317 317 319 319 320 321 321 321 322 322 324 323 323 323 323 322 322 322 322 322 322 321 320 322 324 332 339 342 341 343 348 343 345 342 346 348 345 346 341 341 340 336
319 319 317 318 317 318 318 316 317 319 319 319 319 321 322 322 323 323 323 322 322 322 321 321 321 321 321 320 320 323 322 320 319 324 336 342 341 342 344 345 344 342 339 336 340 342 341 342 341
319 319 318 317 316 316 317 318 317 318 319 320 322 323 322 323 323 322 322 322 321 320 320 320 320 320 319 320 320 320 321 322 324 319 316 317 324 330 336 336 341 330 328 328 335 340 339 342 343
318 317 316 318 317 319 319 319 318 319 325 325 323 324 323 322 322 321 321 320 320 319 319 318 319 319 320 320 319 320 320 322 325 326 324 320 314 314 316 319 329 338 331 331 334 339 338 339 339
317 318 318 320 319 319 320 323 323 323 324 324 324 323 323 322 321 321 320 319 319 319 318 318 319 319 319 319 320 320 322 323 324 327 326 330 330 325 321 327 333 339 334 337 332 330 328 327 338
321 322 319 321 320 320 321 322 322 324 325 324 324 323 322 322 321 320 319 319 318 318 317 317 318 319 319 319 320 321 322 323 322 322 324 329 330 330 331 329 330 332 334 333 331 331 327 326 330
322 321 322 321 325 325 324 322 325 324 324 324 323 323 321 321 320 320 320 319 317 316 316 317 317 318 319 319 318 319 321 321 322 322 323 324 325 326 330 332 333 336 335 334 334 331 330 328 328
320 321 320 319 324 323 321 322 323 325 323 322 320 321 321 323 321 320 319 318 317 316 317 317 317 318 319 318 319 319 319 318 318 318 321 322 321 322 324 327 328 330 330 331 333 333 333 325 324
318 319 323 327 327 323 319 323 321 322 320 320 320 320 321 321 320 319 318 317 316 316 317 317 316 316 318 318 317 317 317 316 316 317 317 317 317 316 316 318 320 323 324 327 327 329 332 329 327

GFSSGP_850_thetae_108.txt.gz
Theta_e
321 321 321 324 322 321 326 329 330 331 332 332 347 350 351 351 354 354 348 349 346 331 335 341 342 340 340 339 338 334 330 323 322 323 323 323 322 322 322 322 323 324 323 322 321 323 325 328 329
320 320 321 324 321 324 324 327 330 330 332 334 349 349 349 348 348 348 351 351 343 330 331 341 343 340 340 341 340 336 333 326 322 323 324 325 324 324 324 324 324 323 322 321 321 324 326 327 327
318 320 321 318 319 323 324 328 331 331 338 333 338 344 347 348 350 351 351 348 334 327 330 340 343 341 339 341 341 339 335 330 324 322 323 325 325 325 325 324 323 322 322 322 322 323 324 325 325
316 320 321 319 321 322 325 324 326 328 337 335 342 343 349 348 347 348 349 348 336 327 329 338 343 342 341 340 342 342 339 335 328 324 322 321 322 323 323 323 322 322 321 321 322 322 323 323 323
315 318 316 318 320 322 323 325 327 334 332 334 343 345 349 350 347 347 349 349 347 327 330 337 341 343 342 341 341 343 343 339 336 330 326 323 321 321 322 322 322 322 321 320 321 321 321 321 321
316 316 315 317 318 321 322 323 324 335 332 333 345 345 347 348 347 347 347 348 343 326 329 335 339 341 342 340 341 342 343 343 340 336 327 326 323 322 322 322 323 322 321 320 320 320 320 320 320
314 311 314 317 319 319 321 322 322 323 333 332 345 338 345 349 347 347 348 349 349 342 327 331 335 338 340 340 340 342 343 343 343 341 339 331 324 322 322 322 323 322 321 321 321 321 321 321 321
317 311 315 315 318 318 320 322 322 323 329 340 343 330 332 344 348 348 349 349 349 348 347 336 331 335 337 338 339 338 340 343 344 344 342 340 333 325 322 322 323 323 322 321 321 321 321 321 320
315 311 312 314 317 318 320 320 322 323 328 329 333 341 338 338 337 348 349 350 349 348 346 339 338 329 333 335 336 335 335 339 343 344 344 342 340 333 325 322 323 324 323 322 321 321 321 321 320
312 309 312 315 318 318 319 319 320 322 321 326 328 328 327 328 332 329 344 349 348 348 347 343 343 327 326 330 331 331 331 332 339 342 344 344 342 341 335 326 322 323 323 323 322 322 321 321 320
312 311 314 317 319 319 318 319 321 320 320 321 321 323 324 325 326 328 327 338 346 347 347 345 345 334 326 328 330 331 330 330 335 341 343 344 344 343 340 335 326 322 322 323 322 321 322 321 320
313 314 315 316 317 318 317 320 320 320 320 321 321 321 321 321 322 325 326 326 346 347 347 347 347 337 330 328 329 331 329 328 327 327 335 340 343 343 343 339 336 326 321 322 322 322 321 320 320
312 312 315 316 317 318 319 318 319 320 320 320 320 321 321 321 320 321 322 323 321 326 330 340 347 346 340 339 334 331 333 333 332 332 328 327 333 340 341 342 340 334 328 322 321 321 320 320 320
315 314 315 316 317 317 317 318 318 319 320 320 320 319 320 320 320 320 321 321 321 325 332 335 342 347 345 343 343 341 343 344 345 346 345 332 326 325 328 334 336 336 331 326 323 323 322 320 320
315 313 313 314 317 315 318 316 316 319 319 320 319 319 319 319 319 319 319 320 320 321 329 335 339 349 346 346 344 341 341 347 347 347 346 345 332 326 325 325 330 332 332 331 330 331 329 321 322
316 314 314 313 316 317 317 316 316 319 319 319 319 319 319 319 319 320 319 320 320 323 328 337 345 348 345 348 345 337 337 349 349 349 347 346 343 341 340 336 326 326 333 335 335 335 335 325 323
312 315 315 316 316 316 315 315 316 319 318 318 319 319 319 319 320 320 320 320 320 322 331 346 348 348 347 346 344 343 342 345 349 350 349 346 346 345 345 343 342 333 330 340 338 337 337 334 332
314 315 315 316 317 316 315 315 316 318 318 318 319 320 319 320 320 320 319 320 320 323 326 330 341 339 342 344 345 341 335 332 344 347 351 349 347 347 346 345 343 343 337 338 340 338 338 335 335
315 315 315 315 316 317 315 315 314 316 316 317 319 319 319 320 320 320 320 320 321 322 322 323 324 325 326 332 342 344 346 347 345 346 345 346 348 346 347 347 346 344 343 341 338 336 337 338 337
315 315 314 315 316 316 317 316 316 316 316 318 319 320 320 320 320 320 320 320 322 322 323 323 324 323 322 321 320 323 333 337 337 337 344 348 347 344 345 347 347 348 346 343 342 339 338 338 338
316 315 316 317 318 317 317 315 315 316 318 320 320 320 321 320 320 320 320 321 323 322 323 324 323 323 322 321 319 319 318 319 325 337 341 339 344 348 346 344 343 343 341 341 342 341 339 338 337
318 316 317 317 317 315 316 316 314 315 316 317 319 320 320 320 321 320 321 324 324 324 324 323 323 322 321 321 321 320 320 319 318 318 324 331 334 334 335 337 344 344 343 341 339 339 341 340 338
316 317 317 317 316 316 315 313 313 315 316 316 315 320 321 322 320 321 324 324 323 323 322 322 322 321 321 321 320 320 320 320 319 319 318 316 317 318 318 319 326 330 338 341 341 336 330 325 340
317 317 315 314 312 314 314 315 314 316 316 316 318 321 323 321 321 323 323 323 322 321 321 321 320 320 320 320 319 319 319 319 319 319 320 321 319 318 321 325 327 326 326 328 334 336 333 327 326
316 314 314 315 313 315 316 317 314 316 320 321 322 321 322 321 323 322 322 321 321 320 320 319 319 319 318 318 318 318 318 318 319 320 323 324 325 325 326 330 331 330 328 331 332 332 330 326 327
314 313 314 317 316 316 318 319 319 320 323 323 321 320 321 321 321 321 321 320 320 319 318 318 318 318 318 318 317 317 317 317 321 322 322 322 321 323 326 327 328 330 330 331 328 333 333 330 332
320 318 315 318 318 318 318 318 320 323 322 322 322 321 321 320 320 320 319 319 319 318 318 317 317 317 316 316 316 317 317 318 317 320 321 322 321 321 322 322 322 322 326 328 329 328 330 331 331
320 320 321 318 322 322 321 321 322 324 321 320 319 320 321 320 319 320 319 319 318 318 317 316 316 316 317 317 317 318 318 317 316 316 316 317 316 316 318 316 316 316 317 320 325 326 328 330 332
318 319 319 318 322 321 318 320 320 322 320 319 319 321 321 320 320 318 318 318 317 317 317 316 316 317 317 317 317 318 318 317 317 316 316 315 313 312 312 311 311 312 312 314 316 319 323 326 327
317 319 321 322 323 320 314 318 319 318 319 320 320 319 319 322 321 320 320 319 317 316 316 316 317 317 317 316 316 318 318 317 317 317 316 315 314 314 313 311 309 309 309 311 312 315 316 317 322

GFSSGP_850_thetae_111.txt.gz
Theta_e
320 320 320 324 322 320 325 327 328 329 328 344 342 348 348 349 351 349 345 338 338 331 340 343 341 337 337 335 330 330 329 327 324 321 320 320 321 322 324 324 323 323 323 322 321 322 325 328 327
320 319 321 323 321 323 325 324 329 329 330 349 348 348 348 348 348 348 347 341 340 331 336 341 341 337 338 336 332 325 323 322 322 322 322 321 322 323 323 323 323 324 322 321 323 324 327 327 327
318 317 321 316 316 322 325 325 327 325 326 331 342 345 347 350 348 348 349 349 338 333 335 339 340 338 339 338 333 327 323 322 323 323 323 322 322 322 323 324 324 323 322 322 323 325 325 326 326
316 318 319 318 320 320 322 323 322 323 325 337 344 346 348 348 347 349 349 346 335 332 335 338 339 338 340 339 336 331 328 323 322 324 324 325 325 325 324 324 323 323 322 322 322 323 324 324 324
315 317 314 317 319 320 321 323 323 321 326 340 346 347 349 348 347 348 347 342 334 330 333 338 339 339 340 341 340 336 332 327 322 322 323 324 325 325 324 323 323 322 321 322 322 322 322 322 322
315 315 314 317 318 321 320 322 321 321 323 346 348 346 347 347 347 347 347 346 337 328 331 337 338 339 339 340 341 340 337 333 328 323 322 321 322 322 322 322 322 322 321 321 321 321 321 321 321
313 310 314 315 317 318 320 320 319 319 321 331 345 344 347 349 347 346 348 347 337 329 331 336 338 340 341 340 341 341 342 339 334 330 325 323 322 322 322 323 323 322 321 321 320 320 320 320 320
315 311 314 314 316 319 320 319 320 320 321 337 345 335 339 346 347 348 348 347 341 329 329 332 336 337 339 339 339 340 341 342 341 338 335 329 325 323 322 322 323 323 322 321 321 321 321 321 321
314 311 312 315 317 317 318 316 320 321 323 327 332 343 344 347 348 349 349 349 346 335 333 329 330 332 335 337 336 336 338 341 342 342 340 339 333 326 323 322 322 323 322 321 321 321 321 321 321
311 308 313 314 317 317 317 317 318 320 322 325 333 336 335 346 348 348 349 350 349 346 345 339 336 330 332 334 336 337 336 337 340 342 343 342 340 336 331 325 322 322 323 322 321 320 320 320 319
311 311 313 315 317 318 317 318 319 319 320 321 323 325 326 339 345 347 348 347 346 348 347 345 340 337 331 333 333 333 333 332 334 339 341 341 342 342 341 338 326 323 322 322 322 321 320 320 319
312 312 314 315 316 316 316 318 318 318 320 321 320 321 322 322 322 329 336 344 346 347 348 347 345 343 334 332 333 332 331 329 329 331 337 341 342 342 342 338 339 331 325 321 321 321 320 320 320
311 312 314 315 315 315 316 316 316 318 319 320 320 320 320 321 321 320 320 323 333 340 346 348 347 346 342 329 331 332 332 329 328 327 326 330 337 340 341 342 341 339 337 330 323 321 322 321 320
313 313 314 315 315 314 315 316 316 318 320 320 320 320 319 319 320 320 320 320 320 321 323 325 332 347 346 339 331 330 332 332 332 331 331 332 330 328 328 331 337 340 340 339 335 327 321 322 321
314 313 312 313 315 313 315 314 315 318 319 319 319 319 319 319 319 319 319 319 319 321 325 327 329 335 347 344 337 337 333 337 341 343 344 345 345 340 334 331 330 326 331 335 336 335 330 326 325
315 313 314 314 314 315 316 315 316 319 318 318 319 318 319 319 319 319 319 320 319 319 325 328 330 335 346 344 344 344 344 344 343 346 346 346 347 345 341 340 338 333 329 326 327 331 335 332 330
311 314 314 316 315 315 314 315 315 318 318 317 318 319 319 319 319 319 320 320 319 320 323 329 332 334 344 347 345 346 345 337 344 346 345 342 345 345 345 344 344 343 341 339 332 329 334 335 332
314 314 315 316 317 315 315 314 313 318 315 316 318 318 319 319 319 319 319 320 319 320 321 327 330 340 348 347 345 347 347 342 341 340 338 342 343 344 345 345 346 345 343 342 341 338 334 335 335
314 314 314 314 315 316 313 313 313 315 314 314 316 318 319 319 320 319 319 319 319 320 321 325 330 338 344 344 345 344 340 341 337 334 338 346 342 342 343 346 346 348 348 345 344 342 340 341 340
314 314 313 313 314 313 313 314 314 315 313 315 317 318 319 320 319 319 319 319 320 320 322 322 325 331 332 335 336 336 334 338 341 344 343 341 341 340 340 340 339 340 342 342 343 342 342 341 341
315 314 314 314 316 315 315 314 315 315 316 318 318 318 318 319 319 319 319 319 321 321 322 323 324 326 328 326 323 325 324 321 320 321 324 325 327 330 335 336 337 340 342 343 340 338 337 339 338
315 315 316 316 315 313 314 314 313 313 313 314 317 318 318 319 319 320 319 319 320 322 323 324 324 323 322 321 320 320 320 319 319 319 319 318 318 318 319 320 320 322 325 333 338 340 339 337 335
315 316 315 316 314 314 313 312 312 313 316 314 313 320 323 323 323 321 320 320 320 324 325 325 323 322 322 321 321 320 320 320 319 318 318 317 318 320 323 322 321 322 324 325 327 329 331 335 338
316 316 312 310 310 313 313 313 312 314 315 315 316 322 323 323 323 322 319 320 323 325 324 323 322 321 321 320 320 320 319 318 318 317 317 318 319 322 322 321 323 325 326 325 326 331 334 334 334
314 312 313 314 313 313 313 314 312 314 318 319 320 320 321 321 320 320 321 325 325 324 323 321 321 320 320 319 319 318 317 317 316 316 316 319 321 321 321 320 319 323 325 325 326 328 329 330 333
312 311 312 316 315 315 316 317 316 320 320 322 319 318 321 321 321 322 322 322 322 321 321 320 320 319 319 319 318 317 316 315 315 315 315 316 319 319 319 319 318 318 319 319 321 326 326 327 328
318 314 312 315 316 317 317 317 317 320 319 319 319 320 318 319 321 321 321 321 320 320 320 319 318 318 318 317 316 316 316 316 316 317 316 315 315 315 314 313 315 312 311 312 315 320 324 323 324
320 318 320 316 321 321 319 319 318 322 320 319 318 319 320 319 318 317 318 319 318 318 318 318 317 317 316 316 316 316 317 316 316 316 316 316 316 315 314 314 312 312 310 309 309 311 315 320 323
318 318 317 317 316 318 317 318 317 321 319 320 319 319 321 321 320 319 318 318 318 317 317 316 316 316 316 316 317 317 316 316 316 316 316 316 316 316 315 314 314 314 313 312 310 309 308 310 315
317 319 318 320 321 316 313 315 317 318 316 316 317 320 320 320 320 322 322 321 319 317 316 316 316 316 316 317 317 316 316 317 317 317 315 316 316 316 315 314 314 313 313 313 312 311 311 310 308

GFSSGP_850_thetae_114.txt.gz
Theta_e
320 320 320 323 322 319 324 326 326 329 328 340 347 345 344 348 347 346 344 335 336 333 343 343 338 333 332 332 331 331 332 332 331 328 321 321 323 324 323 324 323 322 323 322 321 321 324 327 326
319 320 320 322 321 324 326 324 328 328 326 326 341 347 346 348 348 347 338 336 336 333 341 342 337 333 333 333 331 331 331 331 327 321 319 320 321 322 324 323 323 323 323 322 323 324 327 327 327
318 317 320 316 316 324 327 324 326 323 323 325 340 345 347 348 346 342 342 342 334 333 339 341 337 335 335 333 329 327 323 322 321 321 320 321 322 323 324 323 323 323 322 322 323 325 326 326 326
317 318 318 317 319 319 322 323 321 321 323 331 341 346 348 348 347 348 346 345 334 332 336 340 338 337 336 335 330 323 321 321 322 322 321 321 322 322 322 324 324 323 322 322 323 325 325 325 325
315 317 314 317 318 320 320 322 322 320 320 328 346 347 348 348 347 348 348 345 334 333 337 340 338 337 337 337 331 325 321 321 323 323 322 322 322 324 324 324 323 322 322 322 322 323 323 323 323
314 314 314 317 318 320 320 321 320 318 320 342 346 347 348 347 346 347 346 342 334 332 336 340 339 338 337 338 335 328 325 322 322 323 324 324 324 324 324 324 323 322 321 321 322 322 322 322 322
312 310 314 315 318 318 320 319 318 318 318 329 347 344 346 346 348 347 345 340 334 333 334 339 339 338 338 339 339 336 332 329 324 322 322 322 322 323 322 322 322 322 321 321 321 321 321 321 321
314 309 313 314 316 317 319 319 319 318 320 336 343 340 344 346 347 346 344 339 335 333 332 333 336 337 337 337 339 340 339 336 333 329 325 323 322 321 321 322 322 322 321 320 320 319 319 319 319
313 310 311 314 315 317 317 317 319 320 321 327 336 335 342 348 348 347 344 339 337 333 331 333 334 336 337 337 337 339 341 341 340 337 335 333 328 325 322 322 322 322 321 320 320 319 319 319 319
312 309 311 313 314 316 316 316 318 318 321 325 328 335 345 347 348 347 347 344 338 333 332 331 332 334 336 338 338 338 340 341 341 341 340 337 335 331 327 324 322 321 321 321 320 319 319 320 320
310 310 313 315 316 317 317 316 318 318 319 321 323 327 342 348 348 347 348 348 346 340 337 336 332 333 334 336 338 339 338 339 340 341 342 342 340 338 335 333 328 324 322 321 321 320 319 319 319
311 311 313 314 315 315 315 316 316 318 319 320 320 320 323 341 348 349 348 348 348 345 342 342 337 335 334 333 335 335 334 334 336 335 338 341 342 342 340 339 337 335 331 324 322 321 321 320 319
310 312 313 314 314 315 315 314 315 316 318 319 319 320 320 320 322 329 336 345 348 348 347 346 344 341 340 338 332 332 333 333 331 331 331 332 336 339 341 342 342 341 340 338 335 329 324 321 321
312 313 313 313 313 313 313 314 314 316 318 319 319 319 320 319 319 319 320 321 324 330 340 345 347 347 345 344 341 332 332 332 332 331 330 329 330 331 332 334 336 338 340 342 342 340 338 334 325
313 313 312 311 313 313 314 312 312 317 318 318 318 319 319 319 319 319 319 319 319 319 320 321 325 342 346 346 346 336 331 333 333 333 333 334 336 338 340 340 337 334 333 332 331 330 334 336 335
312 312 314 314 312 314 315 313 315 318 317 317 318 318 319 319 318 318 318 319 319 319 319 322 324 325 329 339 346 342 333 333 334 336 341 342 342 343 345 345 343 341 340 338 335 334 330 327 330
311 313 313 315 313 314 313 313 314 317 316 316 317 318 318 318 318 318 319 319 319 319 319 322 323 325 329 335 347 341 337 339 342 342 341 342 341 341 343 343 343 344 343 343 342 341 341 337 331
314 314 314 315 316 313 314 313 313 316 315 316 317 316 317 318 319 319 319 318 319 319 319 321 324 329 333 341 346 340 343 344 344 342 342 339 335 337 341 340 337 338 340 342 342 342 342 341 340
314 314 314 314 314 314 314 313 312 314 315 313 315 315 317 318 319 319 319 319 319 319 319 320 325 327 327 339 343 345 341 345 344 343 338 336 337 340 343 341 339 337 335 333 335 341 340 341 341
313 314 313 313 313 313 313 313 312 312 314 315 315 316 317 319 319 319 319 319 319 319 319 319 321 323 326 330 341 344 343 344 345 343 342 342 340 337 337 337 338 339 340 340 337 337 337 338 338
313 313 314 314 314 313 314 313 314 314 314 316 317 316 316 317 318 319 318 318 319 319 319 319 320 322 323 327 336 342 341 344 339 331 322 318 318 318 318 318 321 327 333 336 336 338 340 341 340
314 313 315 315 314 314 313 313 312 313 312 312 315 316 319 321 320 319 319 319 319 319 319 321 322 327 335 341 342 343 343 335 321 319 319 317 317 317 317 318 320 320 320 320 324 330 333 335 338
314 314 314 315 313 312 313 312 311 312 315 314 313 318 322 323 323 323 323 322 320 319 320 324 328 336 342 342 333 327 320 319 318 316 315 314 314 314 315 317 320 320 319 320 322 325 327 329 332
314 313 310 308 308 312 312 312 311 312 314 315 317 320 322 323 323 323 324 323 321 318 324 332 332 329 326 323 321 320 319 318 316 315 314 314 314 314 315 316 317 318 317 319 325 326 325 327 333
311 310 312 313 312 313 311 312 311 313 314 317 317 320 321 321 322 323 323 322 320 320 327 328 326 324 322 321 320 319 318 317 316 315 314 313 313 313 312 312 312 313 315 315 316 319 320 326 327
312 311 311 315 314 313 314 315 315 316 318 317 317 318 319 319 320 321 322 321 321 325 328 325 322 321 320 319 319 318 317 316 316 315 315 315 315 315 314 313 313 312 312 311 311 313 315 320 324
314 312 310 312 314 315 314 315 315 319 318 318 318 319 318 317 318 321 324 325 326 325 323 321 321 320 319 318 318 317 316 316 316 316 316 316 315 315 315 315 314 314 313 312 310 309 309 312 316
316 314 318 314 320 321 317 318 316 321 319 318 317 317 318 318 318 318 320 323 322 322 321 320 319 318 318 317 316 316 316 316 317 316 316 316 316 316 315 315 315 314 314 314 313 313 312 311 309
317 317 315 314 314 316 317 317 315 319 316 315 314 318 318 319 318 319 318 318 318 319 319 318 318 317 317 316 316 316 316 317 317 316 316 317 317 316 315 315 315 315 315 313 313 313 313 313 313
316 319 316 318 319 312 312 315 314 315 315 315 315 315 315 315 316 317 320 320 319 317 317 317 317 317 317 317 317 317 317 317 317 318 318 318 318 317 316 316 316 316 316 314 313 313 313 312 312

GFSSGP_850_thetae_117.txt.gz
Theta_e
319 319 318 321 328 330 335 334 329 332 330 336 329 344 346 348 348 351 347 338 338 336 341 342 338 334 332 333 333 336 335 333 332 332 330 326 324 327 323 323 322 323 322 321 319 321 324 326 326
318 319 318 322 331 336 338 331 332 331 327 324 333 348 349 350 348 346 340 336 336 334 341 342 337 332 330 331 331 332 333 332 331 329 323 322 323 322 324 323 322 323 322 321 321 324 326 326 326
318 317 321 325 328 337 338 331 331 327 323 325 332 346 348 348 347 339 336 334 332 334 339 341 337 332 331 331 331 332 332 332 329 322 320 320 321 322 324 323 323 324 322 321 323 325 326 326 327
317 316 318 325 330 328 334 329 326 325 323 328 333 347 348 346 342 342 340 336 332 335 340 340 337 334 334 332 331 329 330 327 322 320 320 320 321 323 324 323 324 323 322 322 324 325 325 325 325
316 316 323 324 326 325 325 324 323 324 322 325 345 348 349 346 348 347 345 339 332 334 340 340 336 335 335 333 331 325 321 321 321 321 320 321 323 323 322 323 324 323 322 322 323 324 324 324 324
315 315 322 325 324 324 323 323 322 321 322 324 343 349 349 348 347 348 346 344 333 333 338 340 336 335 335 335 333 326 322 321 322 322 321 321 322 322 324 324 324 322 321 321 322 324 324 324 324
315 318 320 320 323 323 323 320 321 321 322 327 345 348 347 348 347 347 347 344 334 336 337 339 337 336 337 336 335 329 326 322 322 323 324 323 324 325 325 325 323 322 321 320 321 322 323 323 323
315 317 317 318 320 323 321 320 319 320 323 333 342 347 346 348 347 346 345 343 336 336 337 338 338 337 337 337 337 335 331 327 323 322 323 324 324 324 323 322 322 321 320 319 318 319 321 321 321
314 323 321 317 318 320 318 320 319 319 319 325 340 332 341 345 348 346 344 341 337 336 337 338 339 337 337 338 338 339 338 335 332 329 325 323 322 322 321 322 322 322 321 320 319 318 318 319 319
317 323 324 318 317 318 318 319 319 321 320 327 328 338 341 347 347 346 343 339 336 334 334 336 339 338 337 337 338 339 340 340 339 337 335 333 330 327 325 323 322 322 322 321 320 319 319 319 319
314 318 319 316 316 317 318 318 318 320 322 322 328 344 346 349 347 346 345 342 339 335 333 333 336 338 338 337 337 338 338 339 340 341 340 339 337 336 334 330 327 325 323 322 321 321 321 320 319
314 314 313 315 315 317 317 317 317 318 320 319 318 326 345 348 347 347 347 346 344 339 336 334 334 336 337 338 337 337 337 337 338 339 340 341 341 341 340 339 339 338 336 333 328 324 322 321 321
314 313 312 316 315 315 314 315 316 317 318 318 318 318 321 328 342 346 347 348 348 346 343 340 338 335 335 336 336 336 336 337 337 337 336 337 338 340 341 341 342 341 341 341 340 339 337 335 329
314 316 315 314 314 314 314 316 315 317 318 318 318 319 319 320 320 322 325 329 337 340 343 346 344 341 338 336 337 336 336 338 337 336 334 333 333 334 335 337 338 340 340 338 338 341 341 341 341
312 313 313 314 313 314 314 315 316 316 317 318 318 318 318 319 319 319 320 320 320 321 323 332 340 344 345 344 341 340 338 337 335 335 334 333 333 333 333 337 341 342 338 336 335 334 332 331 333
313 313 314 316 314 315 315 317 318 318 317 318 318 318 318 318 319 319 319 319 319 319 319 320 325 329 338 344 346 344 344 339 335 334 334 334 337 340 340 343 345 345 343 341 341 341 340 339 339
315 315 316 317 315 316 316 317 317 316 316 318 318 318 318 318 318 318 318 318 318 318 319 319 319 322 325 334 343 345 345 343 335 334 335 341 342 342 343 342 341 341 343 342 342 343 340 341 341
317 317 317 317 316 315 316 317 318 317 317 318 319 319 318 318 319 319 318 318 318 318 319 319 320 321 322 327 335 344 347 344 336 337 341 340 342 339 336 335 339 340 338 336 336 336 337 339 337
317 317 317 317 316 317 317 318 319 319 316 318 319 318 317 317 319 318 318 318 318 318 319 319 320 320 322 327 334 342 347 339 338 342 342 342 339 335 335 338 339 340 339 337 336 335 335 334 336
317 317 317 317 316 317 318 319 320 319 319 318 318 318 316 316 317 317 318 319 319 318 319 319 319 320 324 326 328 342 342 340 342 343 343 340 340 339 336 331 327 324 325 330 334 337 338 338 339
317 317 317 317 317 317 318 318 319 319 317 317 317 316 316 317 317 317 319 319 318 318 319 319 319 320 324 326 328 342 342 342 342 342 340 334 323 318 318 318 317 317 318 318 318 323 333 335 337
318 316 317 317 318 318 316 318 318 319 319 318 319 318 320 322 322 321 320 319 319 319 319 319 319 321 323 326 334 343 341 338 340 335 322 318 317 315 314 314 314 316 318 319 319 319 321 327 334
316 316 317 318 318 318 317 318 318 316 319 320 319 320 322 322 322 323 323 323 321 320 320 319 319 323 327 333 339 341 342 340 329 319 317 315 315 314 313 312 312 313 315 316 316 317 319 322 329
316 316 315 315 317 319 319 319 319 319 319 319 321 322 322 322 322 323 323 323 323 323 321 319 322 329 338 344 344 341 333 321 319 317 316 315 315 313 312 312 311 311 311 312 314 314 320 323 325
317 319 319 319 319 318 316 317 319 318 318 321 324 323 320 320 321 321 322 322 322 321 320 319 335 341 341 334 325 320 320 319 318 317 316 316 315 314 314 314 313 314 313 311 311 312 313 316 319
318 319 318 318 319 318 316 319 319 320 321 320 320 319 319 319 319 321 323 323 321 320 319 328 334 330 325 322 321 320 319 318 317 316 316 316 316 316 315 315 315 315 315 313 312 311 309 310 312
317 319 318 320 318 319 319 319 319 322 322 321 321 320 320 319 319 320 324 325 326 327 329 329 326 323 322 320 319 319 318 317 316 316 316 316 316 316 316 315 315 315 315 315 314 314 312 310 310
318 317 320 319 321 321 320 321 320 325 323 322 322 320 320 318 318 318 319 324 326 327 326 324 322 321 320 319 318 318 317 317 316 316 316 316 316 316 316 316 316 315 315 315 314 314 314 314 313
320 320 321 321 322 323 322 322 322 323 321 321 319 317 317 316 316 317 318 317 320 322 322 321 320 319 319 318 318 318 317 317 316 317 317 317 317 318 318 318 317 316 316 316 316 315 314 314 314
319 322 323 327 326 323 325 324 319 321 321 320 318 316 316 316 316 315 315 318 320 318 317 318 318 318 318 318 317 317 317 317 317 317 317 318 317 318 318 319 319 318 317 317 317 317 316 315 313

GFSSGP_850_thetae_120.txt.gz
Theta_e
320 319 319 322 332 337 339 339 336 337 336 334 332 345 347 347 351 359 355 349 347 351 339 342 341 337 337 339 341 343 344 344 343 342 341 338 329 327 324 325 331 336 333 327 325 324 325 325 325
319 319 321 326 334 339 338 338 337 336 332 329 339 349 349 352 353 355 353 349 348 345 337 341 339 335 336 338 339 340 340 340 339 338 336 331 328 325 324 323 325 324 322 320 320 323 326 326 326
318 319 323 330 335 340 338 338 337 335 329 332 339 349 349 350 353 349 348 347 349 346 339 340 339 333 332 333 335 335 334 334 334 333 329 324 325 323 324 323 323 323 322 321 322 326 326 326 328
318 320 323 329 336 337 339 338 335 334 329 330 335 349 350 351 349 350 347 348 348 349 350 340 338 332 331 332 332 333 332 332 331 325 321 321 322 323 323 323 323 324 322 321 323 326 326 326 328
317 322 329 332 335 337 336 336 333 335 330 330 340 346 350 353 354 350 347 347 347 348 350 340 337 332 331 332 332 332 332 330 325 321 320 321 322 324 324 323 324 323 321 321 323 325 326 325 325
319 320 330 334 336 335 334 333 333 333 330 328 341 345 350 355 356 352 350 347 346 349 351 340 336 333 333 332 331 329 324 322 322 321 321 321 323 324 323 324 324 323 321 320 323 325 325 325 325
321 321 328 334 336 333 333 331 331 332 331 330 343 344 350 354 357 354 353 349 348 349 350 339 336 334 334 333 332 327 323 322 322 322 321 322 322 323 324 325 324 322 321 320 321 323 324 324 325
321 321 325 328 330 332 329 326 327 327 331 331 338 344 346 354 357 355 354 351 349 348 348 347 337 335 335 334 334 330 327 322 322 323 323 323 323 324 325 325 324 322 321 320 319 321 322 322 322
320 325 328 326 326 328 325 327 324 323 325 330 338 340 345 357 356 354 353 351 347 347 348 347 345 344 343 342 336 335 332 328 324 323 323 324 326 325 324 323 322 322 322 321 320 319 319 320 320
323 328 329 327 324 322 323 322 324 325 325 332 335 345 347 354 354 353 352 350 348 347 347 347 346 346 345 344 344 337 336 335 333 328 324 324 337 338 336 331 322 322 322 322 321 320 319 319 322
319 327 328 328 321 323 323 323 321 324 328 329 333 341 350 352 353 350 349 347 346 346 346 347 349 348 346 345 346 344 345 344 342 338 335 334 340 335 327 337 325 323 322 323 325 322 321 330 330
326 324 324 319 321 322 322 322 321 321 330 324 323 329 351 352 350 348 348 347 347 347 347 348 349 343 342 345 346 347 346 347 347 347 340 343 341 344 344 344 344 340 342 339 334 336 334 329 322
325 322 317 318 320 322 322 323 322 321 321 322 322 322 340 352 350 349 349 349 349 348 349 349 349 334 336 339 347 347 348 348 348 349 343 343 347 348 348 348 348 347 347 346 347 346 344 342 339
322 321 320 321 322 321 324 319 323 322 321 321 321 322 323 340 347 351 352 352 352 352 351 349 346 339 335 335 341 349 349 348 349 349 349 338 345 348 347 346 347 348 347 346 346 346 346 347 346
324 327 328 324 323 324 325 324 321 320 320 321 322 322 322 322 327 333 338 341 342 345 350 351 348 346 341 339 337 346 351 350 350 350 349 338 335 335 337 345 346 348 348 347 345 345 344 341 343
326 323 328 327 325 325 324 327 325 322 320 319 322 322 322 321 322 322 323 325 331 335 340 347 347 348 343 344 343 350 352 352 351 350 349 335 334 334 335 346 349 350 350 350 348 347 347 347 346
319 324 321 319 318 319 322 327 325 323 319 320 321 322 322 321 321 322 322 322 321 319 326 325 332 329 326 336 349 352 353 352 352 351 348 336 335 339 341 345 350 347 348 349 349 348 348 346 346
317 318 319 316 318 316 317 318 319 321 320 320 320 322 323 322 321 322 323 323 322 318 318 319 319 319 327 342 345 352 352 352 352 351 348 343 340 341 342 344 344 338 347 348 347 347 346 346 345
318 317 318 318 317 318 318 317 318 319 320 321 321 321 322 322 321 322 323 324 318 318 318 318 319 319 321 333 348 348 350 351 352 350 347 339 340 342 341 341 346 343 347 348 347 346 346 345 344
318 318 318 319 319 319 319 319 319 321 321 320 321 321 322 322 322 323 322 322 319 318 318 318 319 319 320 325 339 349 351 351 352 348 346 344 343 343 344 346 345 341 337 328 322 331 330 338 341
319 319 319 319 320 319 320 321 320 321 321 321 321 321 322 322 322 322 322 319 319 319 319 318 319 319 321 331 336 332 349 350 350 350 346 343 342 339 326 319 322 318 316 329 330 331 336 333 333
319 318 319 319 320 320 320 319 320 321 322 322 321 322 322 324 325 325 324 324 326 327 322 318 319 320 321 324 335 331 337 347 344 345 341 341 331 319 317 315 315 314 323 325 325 329 324 333 332
319 320 319 319 320 320 321 320 321 321 321 322 322 322 324 325 326 326 327 328 327 325 327 328 325 322 329 325 337 336 344 345 339 338 335 328 318 315 316 316 316 314 318 324 312 318 332 331 330
319 319 319 320 320 322 321 320 320 322 321 321 322 323 325 325 325 326 326 326 328 326 325 330 329 324 328 327 334 337 345 341 336 333 324 323 323 317 317 316 314 313 317 316 317 323 326 327 328
319 321 322 321 321 320 321 321 322 322 321 322 324 325 325 324 325 326 327 328 328 327 326 330 334 337 335 338 339 341 342 340 333 321 323 325 326 327 321 316 314 319 315 315 313 311 311 317 323
319 321 320 320 321 321 321 320 322 322 323 324 324 324 324 324 325 327 328 329 329 328 329 331 336 338 339 343 341 334 322 324 325 318 324 324 324 325 325 316 315 315 315 315 315 316 315 313 315
320 321 320 321 322 322 322 322 323 325 325 324 324 324 324 324 324 324 328 329 331 332 333 334 335 335 332 329 329 328 320 324 324 324 317 323 323 323 325 319 316 316 316 316 315 316 316 314 313
321 320 321 321 323 322 320 322 322 325 326 326 325 324 323 322 322 323 322 326 328 329 329 329 329 330 329 329 327 327 321 318 317 316 316 318 323 325 323 326 323 318 318 316 316 318 318 315 317
321 322 321 322 322 324 324 323 324 325 326 326 324 322 322 321 321 321 322 321 322 324 325 325 324 324 323 322 320 319 318 318 318 317 317 317 317 317 321 326 327 327 326 326 321 317 318 320 320
321 321 322 324 326 324 325 327 325 326 325 324 322 321 320 320 320 320 320 322 322 321 320 320 320 320 319 318 318 318 318 317 317 317 317 317 318 319 323 324 324 326 326 326 326 325 323 321 320